Date StartTime U_cm/s V_cm/s W_cm/s Ustd_cm/s Vstd_cm/s Wstd_cm/s Uvar_(cm/s)^2 Vvar_(cm/s)^2 Wvar_(cm/s)^2 KE_(m/s)^2 TurbulentKE_(m/s)^2 HorizWindSpeed_cm/s FrictionSpeec_cm/s DragCoef SpeedOfSound_m/s SonicTemperature_C Pressure_mb 
11/10/2014  00:00:00       -2.770        5.709       -1.775       23.579       11.889        5.470      555.981      141.348       29.926        0.039        0.036        6.346        5.539        0.762      339.546       12.953      857.220
11/10/2014  00:01:00      -45.394      -10.015       -8.056       21.027       22.021       11.331      442.147      484.913      128.400        0.164        0.053       46.486        9.792        0.044      339.685       13.189      857.264
11/10/2014  00:02:00       21.233      -16.156        6.288       24.957       14.214       10.570      622.847      202.030      111.728        0.084        0.047       26.680        8.954        0.113      339.456       12.802      857.285
11/10/2014  00:03:00       41.985       44.509       23.413       34.621       29.767       25.364     1198.624      886.050      643.313        0.351        0.136       61.187       23.427        0.147      339.193       12.359      857.276
11/10/2014  00:04:00       55.011       71.437       69.197       54.324       36.834       36.733     2951.046     1356.774     1349.283        0.929        0.283       90.164       31.933        0.125      339.266       12.481      857.276
11/10/2014  00:05:00       53.113       74.810       79.356       71.647       51.684       40.894     5133.330     2671.199     1672.346        1.209        0.474       91.747       36.843        0.161      339.092       12.187      857.319
11/10/2014  00:06:00       48.701      145.229      143.049       77.926       64.708       57.926     6072.522     4187.178     3355.376        2.877        0.681      153.177       48.435        0.100      339.039       12.098      857.341
11/10/2014  00:07:00      105.397      100.103       90.921       77.749       67.214       68.608     6044.901     4517.778     4707.078        2.233        0.763      145.359       47.084        0.105      338.916       11.892      857.374
11/10/2014  00:08:00      112.522      100.334       75.112       60.937       48.254       37.552     3713.316     2328.488     1410.126        1.791        0.373      150.758       25.477        0.029      338.833       11.752      857.394
11/10/2014  00:09:00       87.893      115.559      108.424       48.312       40.719       33.461     2334.018     1658.023     1119.670        1.897        0.256      145.186       13.416        0.009      338.865       11.805      857.378
11/10/2014  00:10:00      100.063       47.835       70.477       70.862       62.078       50.791     5021.444     3853.667     2579.765        1.436        0.573      110.909       50.874        0.210      338.801       11.699      857.351
11/10/2014  00:11:00       59.730       15.268       32.471       58.579       41.872       33.767     3431.519     1753.242     1140.221        0.559        0.316       61.651       27.496        0.199      338.798       11.694      857.355
11/10/2014  00:12:00       43.278       46.499       75.468       44.085       45.063       39.172     1943.486     2030.673     1534.412        0.762        0.275       63.523       31.047        0.239      338.832       11.753      857.339
11/10/2014  00:13:00       51.153       38.792       72.608       57.466       54.543       43.000     3302.365     2974.904     1848.999        0.876        0.406       64.199       34.300        0.285      338.806       11.708      857.316
11/10/2014  00:14:00       56.414       22.510       47.534       49.457       49.541       42.519     2445.984     2454.271     1807.848        0.633        0.335       60.739       28.879        0.226      338.847       11.778      857.295
11/10/2014  00:15:00       39.557       -7.421       29.827       42.682       64.018       36.137     1821.725     4098.329     1305.889        0.487        0.361       40.247       20.418        0.257      339.043       12.105      857.322
11/10/2014  00:16:00      104.819       61.483       44.246       50.062       39.425       27.676     2506.252     1554.338      765.943        1.077        0.241      121.520       24.448        0.040      339.076       12.162      857.308
11/10/2014  00:17:00       -8.168      -39.480        9.134       58.604       58.361       25.411     3434.384     3405.959      645.731        0.460        0.374       40.316       32.913        0.666      339.009       12.049      857.309
11/10/2014  00:18:00      -85.154      -51.336      -13.708       37.185       26.425       17.797     1382.700      698.272      316.743        0.624        0.120       99.431       10.394        0.011      339.086       12.178      857.358
11/10/2014  00:19:00      -29.929      -35.137       -0.624       21.114       16.269       13.213      445.801      264.671      174.585        0.151        0.044       46.156       13.988        0.092      339.103       12.207      857.366
11/10/2014  00:20:00      -45.521        8.536       -0.043       10.320       21.931        9.512      106.501      480.965       90.477        0.141        0.034       46.314       10.482        0.051      339.206       12.382      857.367
11/10/2014  00:21:00      -57.968       69.294      -16.760       35.334       21.517       12.740     1248.475      462.990      162.302        0.516        0.094       90.343       11.329        0.016      339.170       12.321      857.377
11/10/2014  00:22:00      -90.605        8.276       -7.081       47.297       23.418       18.951     2237.044      548.416      359.123        0.574        0.157       90.982       25.209        0.077      338.994       12.024      857.408
11/10/2014  00:23:00       23.393       39.148       18.446       19.055       19.175       17.832      363.102      367.685      317.970        0.173        0.052       45.605       12.786        0.079      338.959       11.964      857.402
11/10/2014  00:24:00       42.994       44.123        9.682       17.175       12.666       12.814      294.974      160.436      164.188        0.225        0.031       61.606       10.548        0.029      339.389       12.689      857.327
11/10/2014  00:25:00       20.098       66.214        0.892       26.884       58.417       21.082      722.755     3412.543      444.437        0.468        0.229       69.197       27.590        0.159      339.339       12.604      857.289
11/10/2014  00:26:00      -36.882       92.074      -21.914       39.582       55.060       18.484     1566.734     3031.578      341.655        0.763        0.247       99.186       11.936        0.014      339.586       13.020      857.326
11/10/2014  00:27:00     -142.337      -35.927      -16.370       75.074       39.652       25.814     5636.064     1572.310      666.375        1.485        0.394      146.801       15.659        0.011      339.091       12.186      857.347
11/10/2014  00:28:00     -221.927      -56.441      -17.331       85.577       36.643       32.976     7323.462     1342.732     1087.397        3.124        0.488      228.992       39.069        0.029      338.966       11.974      857.362
11/10/2014  00:29:00       56.830       46.966       -5.071       66.463       53.213       28.614     4417.296     2831.651      818.775        0.676        0.403       73.725       34.822        0.223      339.212       12.393      857.263
11/10/2014  00:30:00      -38.469       91.167      -12.368      101.641       57.327       33.997    10330.946     3286.365     1155.784        1.236        0.739       98.951       32.741        0.109      339.605       13.051      857.207
11/10/2014  00:31:00     -164.811       93.838      -23.870       57.318       71.420       38.045     3285.313     5100.760     1447.411        2.318        0.492      189.653       35.134        0.034      339.805       13.388      857.280
11/10/2014  00:32:00     -130.587      117.191      -30.394       70.807       52.802       33.834     5013.595     2788.082     1144.747        2.033        0.447      175.461       40.096        0.052      340.268       14.170      857.304
11/10/2014  00:33:00      -36.166       61.597      -10.600       48.235       31.294       22.120     2326.569      979.328      489.312        0.450        0.190       71.430       16.723        0.055      340.102       13.890      857.209
11/10/2014  00:34:00      -55.648      137.838      -24.575       53.675       32.915       20.050     2880.960     1083.423      401.996        1.353        0.218      148.647       25.472        0.029      340.393       14.382      857.150
11/10/2014  00:35:00     -186.256      212.117      -57.266       73.656       68.634       34.906     5425.135     4710.692     1218.394        4.716        0.568      282.285       45.211        0.026      340.375       14.349      857.198
11/10/2014  00:36:00      -83.783      152.154      -30.042       37.993       85.111       22.430     1443.468     7243.955      503.123        2.013        0.460      173.696       22.602        0.017      340.245       14.131      857.131
11/10/2014  00:37:00     -135.453       15.097      -13.663       60.691       39.315       27.983     3683.414     1545.668      783.025        1.239        0.301      136.292       23.547        0.030      340.146       13.965      857.114
11/10/2014  00:38:00      -96.694       -8.237       -3.718       44.719       42.309       28.487     1999.762     1790.036      811.531        0.702        0.230       97.044       22.543        0.054      339.939       13.617      857.155
11/10/2014  00:39:00      -14.432       19.294        4.259       31.182       36.546       20.190      972.288     1335.639      407.654        0.166        0.136       24.094       16.364        0.461      339.799       13.380      857.111
11/10/2014  00:40:00      -33.609       30.553       -4.509       38.577       29.956       13.458     1488.158      897.376      181.113        0.232        0.128       45.420       18.490        0.166      339.981       13.688      857.100
11/10/2014  00:41:00      -63.452       41.745      -15.112       42.922       47.369       22.460     1842.278     2243.833      504.470        0.529        0.230       75.952       11.300        0.022      340.021       13.754      857.114
11/10/2014  00:42:00      -57.352      155.246      -18.188       48.687       66.755       35.447     2370.455     4456.273     1256.496        1.790        0.404      165.501       32.349        0.038      340.108       13.898      857.109
11/10/2014  00:43:00      -64.881      170.388       -9.490       70.483      111.421       39.449     4967.859    12414.720     1556.209        2.613        0.947      182.323       40.247        0.049      340.134       13.942      857.136
11/10/2014  00:44:00     -116.138       -4.441       -6.358       34.293       51.256       36.128     1175.995     2627.135     1305.219        0.933        0.255      116.223       28.499        0.060      339.775       13.339      857.158
11/10/2014  00:45:00      -68.490       -4.355       -8.740       33.019       27.829       19.672     1090.224      774.476      387.006        0.352        0.113       68.628       20.747        0.091      339.802       13.384      857.163
11/10/2014  00:46:00       -1.482       27.719        3.579       25.038       50.660       19.958      626.896     2566.410      398.318        0.219        0.180       27.758       25.375        0.836      339.733       13.270      857.165
11/10/2014  00:47:00      -71.332      182.900       -9.847       55.673       80.246       41.492     3099.535     6439.421     1721.590        2.495        0.563      196.318       38.566        0.039      340.052       13.805      857.180
11/10/2014  00:48:00        3.047      239.765      -28.455       50.207       63.623       39.748     2520.697     4047.872     1579.892        3.323        0.407      239.785       30.921        0.017      340.079       13.848      857.157
11/10/2014  00:49:00      -10.936      257.593      -30.868       55.976       71.944       35.685     3133.291     5176.004     1273.411        3.850        0.479      257.825       34.225        0.018      340.090       13.868      857.145
11/10/2014  00:50:00       36.829      169.947      -16.318       43.305       98.990       39.234     1875.355     9799.047     1539.343        2.186        0.661      173.892       47.237        0.074      339.977       13.679      857.118
11/10/2014  00:51:00       38.271      136.615      -20.526       40.600       60.847       27.875     1648.327     3702.409      777.026        1.334        0.306      141.874       25.105        0.031      339.917       13.579      857.092
11/10/2014  00:52:00       27.782      232.901      -25.026       41.460       44.790       41.886     1718.954     2006.124     1754.457        3.056        0.274      234.553       31.355        0.018      339.830       13.429      857.092
11/10/2014  00:53:00       71.855      103.324       -4.487       93.429       86.308       45.361     8728.948     7449.121     2057.603        1.704        0.912      125.853       50.734        0.163      339.629       13.091      857.006
11/10/2014  00:54:00      -43.102      112.972      -14.271       95.217       70.917       42.566     9066.194     5029.179     1811.854        1.536        0.795      120.915       39.795        0.108      339.812       13.400      857.019
11/10/2014  00:55:00     -138.036       17.540      -22.534       44.697       53.681       26.326     1997.788     2881.679      693.040        1.272        0.279      139.146       18.214        0.017      339.732       13.268      857.103
11/10/2014  00:56:00       17.295        4.091       20.350       30.952       28.748       21.374      958.011      826.450      456.843        0.149        0.112       17.772       17.727        0.995      339.454       12.798      857.107
11/10/2014  00:57:00     -119.565       -2.475       -4.788       75.103       72.188       30.111     5640.434     5211.079      906.644        1.304        0.588      119.590       21.320        0.032      339.900       13.550      857.122
11/10/2014  00:58:00      -59.047       -3.668        0.073       60.060       56.991       16.606     3607.147     3247.963      275.758        0.531        0.357       59.160       12.989        0.048      339.798       13.379      857.162
11/10/2014  00:59:00        7.944      -82.323       11.817       40.674       50.574       25.518     1654.402     2557.751      651.147        0.592        0.243       82.706       27.439        0.110      339.813       13.403      857.153
11/10/2014  01:00:00      -38.094      -46.307      -14.439       31.327       39.323       19.825      981.386     1546.299      393.027        0.336        0.146       59.962        8.177        0.019      339.689       13.194      857.135
11/10/2014  01:01:00      -15.207      -36.867       -8.619       25.362       24.599       14.774      643.212      605.134      218.281        0.157        0.073       39.880       13.892        0.121      339.498       12.872      857.128
11/10/2014  01:02:00      -41.487      -63.766        7.630       21.660       30.313       24.623      469.139      918.858      606.313        0.392        0.100       76.074       16.663        0.048      339.361       12.640      857.117
11/10/2014  01:03:00      -14.469       28.862       12.510       22.675       22.448       18.990      514.167      503.931      360.605        0.129        0.069       32.286       16.181        0.251      339.146       12.279      857.120
11/10/2014  01:04:00      -25.013       29.772      -13.679       25.429       16.262       10.484      646.625      264.446      109.912        0.136        0.051       38.885       13.735        0.125      339.225       12.412      857.136
11/10/2014  01:05:00       23.200       17.869       10.654       21.671       18.799       16.802      469.620      353.387      282.293        0.104        0.055       29.284       15.810        0.291      339.033       12.088      857.117
11/10/2014  01:06:00        7.363       20.059       45.751       19.596       48.968       27.180      383.999     2397.890      738.733        0.303        0.176       21.367       23.511        1.211      338.822       11.734      857.020
11/10/2014  01:07:00      -41.279      -11.939       -4.211       28.147       69.060       20.099      792.251     4769.301      403.963        0.391        0.298       42.971        3.703        0.007      339.107       12.212      857.044
11/10/2014  01:08:00      -60.016       13.889       -1.496       28.853       23.882       19.933      832.508      570.357      397.321        0.280        0.090       61.602       17.879        0.084      339.051       12.119      857.063
11/10/2014  01:09:00      -74.412      -23.005       -5.304       42.080       30.796       13.745     1770.696      948.414      188.925        0.450        0.145       77.887       19.091        0.060      338.959       11.965      857.091
11/10/2014  01:10:00       12.806      -10.065       16.961       26.523       43.641       28.283      703.453     1904.572      799.914        0.198        0.170       16.287       30.486        3.504      339.115       12.229      857.041
11/10/2014  01:11:00        9.934       14.561       23.412       20.176       20.892       20.258      407.073      436.495      410.374        0.106        0.063       17.627       17.611        0.998      338.871       11.816      857.033
11/10/2014  01:12:00       58.597       36.367       24.508       29.545       14.494       18.141      872.936      210.074      329.097        0.338        0.071       68.965       11.836        0.029      339.100       12.201      857.069
11/10/2014  01:13:00       17.695       -7.936       16.064       36.337       34.080       28.753     1320.402     1161.458      826.715        0.197        0.165       19.393       23.974        1.528      339.103       12.207      857.051
11/10/2014  01:14:00      -55.111       -4.241       -5.350       23.362       18.261       11.553      545.760      333.471      133.463        0.205        0.051       55.274       10.545        0.036      339.218       12.400      857.098
11/10/2014  01:15:00       49.252       34.219       23.959       51.171       32.770       29.475     2618.501     1073.844      868.777        0.437        0.228       59.972       32.183        0.288      338.944       11.939      857.046
11/10/2014  01:16:00       65.465       40.633       11.974       53.545       28.001       18.115     2867.019      784.041      328.158        0.503        0.199       77.050        9.090        0.014      339.163       12.308      857.006
11/10/2014  01:17:00       24.708        7.964       11.926       27.804       16.519        9.727      773.076      272.877       94.612        0.098        0.057       25.960       12.903        0.247      339.055       12.125      857.034
11/10/2014  01:18:00       82.503       74.941        0.672       34.075       23.883       21.959     1161.099      570.376      482.212        0.732        0.111      111.458        9.883        0.008      339.331       12.592      857.003
11/10/2014  01:19:00       64.643       97.833        7.624       69.122       41.524       34.726     4777.895     1724.207     1205.872        1.076        0.385      117.261       26.542        0.051      339.546       12.955      857.002
11/10/2014  01:20:00       37.517      102.971      -17.911       32.988       53.673       22.910     1088.217     2880.776      524.859        0.841        0.225      109.592       26.287        0.058      339.505       12.884      857.026
11/10/2014  01:21:00      137.104       58.553       16.678       38.971       36.684       28.185     1518.761     1345.744      794.397        1.308        0.183      149.083       19.292        0.017      339.131       12.254      856.952
11/10/2014  01:22:00       11.972      101.846      -17.267       40.596       50.517       18.966     1648.008     2551.963      359.715        0.769        0.228      102.547       15.957        0.024      339.144       12.276      856.933
11/10/2014  01:23:00       45.614       79.778        3.061       39.025       57.988       30.475     1522.962     3362.635      928.742        0.713        0.291       91.898       31.346        0.116      339.297       12.533      856.955
11/10/2014  01:24:00       45.524       56.033       13.725       30.554       32.064       24.249      933.555     1028.096      588.009        0.397        0.127       72.195       22.602        0.098      339.111       12.220      856.921
11/10/2014  01:25:00       57.810       77.708       -0.997       57.600       47.302       41.717     3317.806     2237.524     1740.277        0.834        0.365       96.853       30.189        0.097      339.144       12.276      856.876
11/10/2014  01:26:00       57.627      161.912      -24.039       38.019       55.618       30.355     1445.477     3093.404      921.435        1.779        0.273      171.861       34.481        0.040      339.384       12.680      856.872
11/10/2014  01:27:00       50.573      175.882      -23.497       35.030       50.942       34.317     1227.086     2595.131     1177.647        1.952        0.250      183.009       31.923        0.030      339.527       12.921      856.878
11/10/2014  01:28:00       43.349      202.784      -37.309       29.890       51.587       33.052      893.405     2661.173     1092.424        2.452        0.232      207.366       27.982        0.018      339.542       12.944      856.843
11/10/2014  01:29:00        8.237      128.570      -26.608       33.292       43.343       24.712     1108.373     1878.647      610.705        1.045        0.180      128.834       23.858        0.034      339.456       12.802      856.840
11/10/2014  01:30:00     -121.371        2.674      -15.176       32.538       41.707       13.009     1058.698     1739.470      169.231        0.897        0.148      121.401       14.445        0.014      339.060       12.135      856.881
11/10/2014  01:31:00      -32.283       37.556        1.630       28.809       24.841       14.197      829.957      617.062      201.567        0.205        0.082       49.524       11.427        0.053      339.314       12.562      856.878
11/10/2014  01:32:00      -52.693       -2.786       -9.084       29.941       35.013       10.605      896.487     1225.920      112.469        0.255        0.112       52.766       14.784        0.078      339.158       12.300      856.860
11/10/2014  01:33:00      -53.094      -52.699       -3.454       74.986       23.971       24.238     5622.853      574.615      587.504        0.620        0.339       74.807       21.348        0.081      338.853       11.786      856.877
11/10/2014  01:34:00       -9.200      -21.946       -3.438       23.277       18.763       16.623      541.835      352.060      276.311        0.087        0.059       23.797       11.718        0.242      338.874       11.822      856.869
11/10/2014  01:35:00       14.757      -20.900       12.190       18.907       18.675       14.779      357.467      348.767      218.409        0.086        0.046       25.585       14.066        0.302      338.788       11.676      856.880
11/10/2014  01:36:00      -21.394       -5.897       -3.698       22.415       11.587       12.724      502.432      134.263      161.896        0.065        0.040       22.192        8.064        0.132      338.756       11.624      856.917
11/10/2014  01:37:00       -6.604       13.488        3.956       21.616       13.727       13.302      467.265      188.429      176.952        0.054        0.042       15.017        4.438        0.087      338.666       11.472      856.931
11/10/2014  01:38:00      -18.281       15.810       24.007       29.434       25.555       22.395      866.367      653.059      501.522        0.159        0.101       24.169       16.645        0.474      338.441       11.093      856.935
11/10/2014  01:39:00        5.361        0.266       33.885       26.347       32.867       18.827      694.167     1080.243      354.472        0.165        0.106        5.367       15.392        8.224      338.448       11.105      856.934
11/10/2014  01:40:00       49.975      -67.268       -2.925       21.067       47.520       19.072      443.800     2258.181      363.727        0.505        0.153       83.801       20.956        0.063      338.487       11.173      856.945
11/10/2014  01:41:00       79.503      -74.759       -5.613       29.628       29.953       21.520      877.842      897.200      463.115        0.709        0.112      109.131       16.464        0.023      338.751       11.615      856.972
11/10/2014  01:42:00       50.018      -53.560       15.428       36.588       41.140       21.585     1338.653     1692.473      465.902        0.455        0.175       73.283       16.248        0.049      338.728       11.576      856.989
11/10/2014  01:43:00       69.344      -58.955       17.878       36.966       67.867       34.885     1366.485     4605.942     1216.932        0.790        0.359       91.018       42.135        0.214      338.766       11.641      856.989
11/10/2014  01:44:00       34.240      -26.934        7.786       32.072       30.087       22.906     1028.636      905.214      524.707        0.221        0.123       43.564       17.765        0.166      338.594       11.352      856.982
11/10/2014  01:45:00       41.548       -6.982       -2.653       20.293       26.419       18.291      411.816      697.950      334.565        0.161        0.072       42.131       14.741        0.122      338.736       11.588      856.976
11/10/2014  01:46:00       73.762       49.456       13.749       28.705       19.183       17.906      823.983      367.983      320.640        0.479        0.076       88.808        9.441        0.011      338.654       11.452      856.983
11/10/2014  01:47:00       47.169       39.010        0.723       39.407       28.526       17.324     1552.926      813.733      300.122        0.321        0.133       61.210       16.731        0.075      338.507       11.204      856.976
11/10/2014  01:48:00        5.746        5.748        3.769       20.747       11.790        8.595      430.455      139.005       73.872        0.036        0.032        8.128        8.350        1.056      338.530       11.244      856.974
11/10/2014  01:49:00       11.860       35.002        4.311       18.873       28.463       15.626      356.205      810.117      244.157        0.140        0.071       36.957       12.900        0.122      338.886       11.842      856.983
11/10/2014  01:50:00       12.744      133.212      -17.187       25.965       55.223       17.835      674.204     3049.566      318.096        1.112        0.202      133.820       23.521        0.031      339.187       12.349      856.990
11/10/2014  01:51:00      -82.841      131.296      -31.618       86.694       84.162       31.338     7515.889     7083.224      982.041        2.034        0.779      155.246       45.843        0.087      339.668       13.158      856.996
11/10/2014  01:52:00     -137.015       72.035      -19.163       99.316       65.384       42.459     9863.585     4275.086     1802.739        2.013        0.797      154.797       47.474        0.094      339.629       13.091      856.989
11/10/2014  01:53:00     -173.233       61.706      -16.697       63.358       46.236       33.923     4014.261     2137.737     1150.745        2.070        0.365      183.895       26.579        0.021      339.572       12.996      856.976
11/10/2014  01:54:00     -114.738       64.290      -12.380       41.999       39.240       25.895     1763.951     1539.792      670.543        1.071        0.199      131.522       15.497        0.014      339.518       12.906      856.959
11/10/2014  01:55:00     -115.344        3.411      -18.485       23.215       27.059       13.976      538.944      732.200      195.334        0.756        0.073      115.395       11.192        0.009      339.317       12.568      856.962
11/10/2014  01:56:00     -137.981      156.249      -43.585       58.580       59.950       37.530     3431.642     3594.037     1408.535        2.689        0.422      208.452       35.182        0.028      339.782       13.347      856.927
11/10/2014  01:57:00     -175.302      159.962      -42.046       47.663       54.742       29.600     2271.799     2996.689      876.171        3.211        0.307      237.316       25.332        0.011      339.658       13.137      856.885
11/10/2014  01:58:00     -191.611       56.672      -21.683       53.582       45.772       32.965     2871.044     2095.071     1086.689        2.322        0.303      199.816       30.131        0.023      339.503       12.879      856.905
11/10/2014  01:59:00     -217.917      -20.669      -30.424       67.325       44.181       29.650     4532.666     1951.958      879.128        2.810        0.368      218.895       32.050        0.021      339.346       12.612      856.920
11/10/2014  02:00:00     -204.407      -40.203      -22.448       51.791       69.916       34.269     2682.338     4888.248     1174.380        2.632        0.437      208.323       27.683        0.018      339.193       12.356      856.927
11/10/2014  02:01:00     -108.217       17.277      -11.326       59.979       62.365       40.625     3597.433     3889.405     1650.387        1.064        0.457      109.588       35.006        0.102      339.102       12.205      856.930
11/10/2014  02:02:00     -171.490       49.708      -27.449       54.615       59.311       33.650     2982.828     3517.821     1132.292        2.013        0.382      178.549       29.045        0.026      339.107       12.213      856.907
11/10/2014  02:03:00     -173.071       53.208      -22.449       61.557       34.969       33.947     3789.266     1222.846     1152.369        1.973        0.308      181.065       31.273        0.030      339.266       12.480      856.899
11/10/2014  02:04:00     -106.295      -13.682      -15.428       64.872       34.337       30.190     4208.399     1179.014      911.465        0.901        0.315      107.172       26.975        0.063      339.126       12.246      856.880
11/10/2014  02:05:00     -166.298       19.028      -11.152       74.442       74.587       33.045     5541.558     5563.268     1091.976        2.017        0.610      167.383       30.313        0.033      339.046       12.109      856.849
11/10/2014  02:06:00     -150.827       87.890      -25.652       87.890       49.529       34.621     7724.621     2453.083     1198.646        2.125        0.569      174.566       34.329        0.039      339.134       12.258      856.834
11/10/2014  02:07:00      -98.897      106.954      -16.713       37.263       63.271       32.352     1388.528     4003.186     1046.647        1.397        0.322      145.670       27.390        0.035      339.464       12.815      856.799
11/10/2014  02:08:00      -86.761      105.118      -13.504       48.435       47.441       30.901     2345.991     2250.661      954.887        1.215        0.278      136.299       20.697        0.023      339.613       13.067      856.801
11/10/2014  02:09:00      -29.972      113.622       -8.257       30.213       48.360       23.205      912.843     2338.716      538.461        0.883        0.190      117.509       23.543        0.040      339.647       13.124      856.783
11/10/2014  02:10:00      -40.913       27.031        1.722       22.207       51.643       21.370      493.155     2667.022      456.688        0.301        0.181       49.036       24.915        0.258      339.482       12.845      856.775
11/10/2014  02:11:00       21.787       17.756        1.752       24.110       18.621       13.371      581.277      346.758      178.777        0.095        0.055       28.106        6.851        0.059      339.475       12.833      856.760
11/10/2014  02:12:00       35.772        4.977       17.059       31.788       22.576       28.121     1010.456      509.675      790.804        0.195        0.116       36.117       21.018        0.339      339.460       12.807      856.753
11/10/2014  02:13:00        4.204      -17.745       -3.186       29.606       28.605       18.680      876.535      818.244      348.940        0.119        0.102       18.236       13.779        0.571      338.906       11.876      856.757
11/10/2014  02:14:00        4.745       25.533       24.789       16.695       26.717       12.714      278.725      713.805      161.642        0.122        0.058       25.970        8.876        0.117      338.528       11.240      856.753
11/10/2014  02:15:00       38.178       22.084       27.276       26.730       29.705       18.044      714.518      882.372      325.603        0.231        0.096       44.105       13.397        0.092      338.265       10.799      856.745
11/10/2014  02:16:00       17.978       19.037       28.118       32.676       35.479       17.903     1067.721     1258.725      320.520        0.206        0.132       26.185       12.601        0.232      338.156       10.616      856.721
11/10/2014  02:17:00       70.690       57.648       18.302       25.958       19.244       18.254      673.836      370.335      333.212        0.502        0.069       91.216        8.175        0.008      338.099       10.520      856.720
11/10/2014  02:18:00       92.241       56.388       13.137       24.644       14.129       19.296      607.323      199.631      372.324        0.652        0.059      108.111       12.945        0.014      337.997       10.348      856.713
11/10/2014  02:19:00       87.936       49.439       11.718       27.243       22.544       21.380      742.208      508.225      457.123        0.601        0.085      100.881       11.130        0.012      337.833       10.074      856.707
11/10/2014  02:20:00       26.442       16.685       33.480       30.918       37.065       24.721      955.899     1373.822      611.142        0.252        0.147       31.266       22.498        0.518      337.741        9.920      856.727
11/10/2014  02:21:00       33.377        8.893       27.976       39.599       29.049       24.499     1568.115      843.870      600.209        0.249        0.151       34.541       22.144        0.411      337.736        9.910      856.726
11/10/2014  02:22:00       60.235       18.108        7.996       23.800       26.413       19.009      566.435      697.638      361.341        0.282        0.081       62.898        6.041        0.009      337.696        9.844      856.734
11/10/2014  02:23:00       86.952       59.214       30.827       45.069       36.183       28.110     2031.177     1309.221      790.169        0.807        0.207      105.200        9.597        0.008      337.627        9.729      856.744
11/10/2014  02:24:00       88.333       70.370       51.551       39.414       28.334       25.868     1553.470      802.810      669.171        0.922        0.151      112.936       17.707        0.025      337.415        9.373      856.748
11/10/2014  02:25:00       76.690       55.707       53.908       31.969       29.964       30.779     1022.039      897.836      947.318        0.738        0.143       94.788        9.538        0.010      337.328        9.228      856.747
11/10/2014  02:26:00       96.962       63.048       17.353       24.969       24.913       28.178      623.458      620.659      794.005        0.786        0.102      115.657       15.751        0.019      337.171        8.965      856.751
11/10/2014  02:27:00      108.747       57.715        8.726       35.359       28.807       23.375     1250.267      829.869      546.409        0.893        0.131      123.113       12.902        0.011      337.159        8.945      856.763
11/10/2014  02:28:00      108.211       99.515       86.228       50.461       46.199       50.798     2546.342     2134.318     2580.462        1.815        0.363      147.013       37.595        0.065      337.265        9.122      856.696
11/10/2014  02:29:00      149.211      107.696       42.520       46.353       38.553       52.919     2148.639     1486.366     2800.457        2.105        0.322      184.017       26.074        0.020      337.251        9.099      856.690
11/10/2014  02:30:00       58.226       61.649       15.621       47.172       39.834       34.744     2225.192     1586.755     1207.131        0.623        0.251       84.799       22.866        0.073      337.080        8.810      856.731
11/10/2014  02:31:00       92.821       65.207        4.610       43.539       42.703       39.403     1895.607     1823.575     1552.623        0.908        0.264      113.436       27.612        0.059      337.102        8.848      856.760
11/10/2014  02:32:00       38.808       31.343        6.078       31.573       25.553       21.637      996.861      652.935      468.153        0.232        0.106       49.884       14.183        0.081      337.098        8.841      856.812
11/10/2014  02:33:00       91.546       75.814        9.938       42.365       25.987       23.163     1794.797      675.325      536.508        0.862        0.150      118.863       22.424        0.036      337.061        8.780      856.795
11/10/2014  02:34:00      190.827      122.616       34.509       60.152       54.194       64.304     3618.264     2936.950     4135.060        3.166        0.535      226.825       49.086        0.047      337.025        8.715      856.710
11/10/2014  02:35:00      175.859      150.463       94.374       69.001       57.449       57.977     4761.169     3300.363     3361.293        3.695        0.571      231.442       45.426        0.039      337.042        8.743      856.666
11/10/2014  02:36:00      164.816       74.369       51.535       76.389       54.858       50.573     5835.251     3009.390     2557.609        2.337        0.570      180.817       44.577        0.061      336.980        8.643      856.666
11/10/2014  02:37:00      202.624      106.740       44.445       78.978       55.586       55.427     6237.454     3089.777     3072.150        3.341        0.620      229.019       40.530        0.031      337.290        9.162      856.637
11/10/2014  02:38:00       35.855       34.964        6.996       49.913       48.606       32.997     2491.262     2362.547     1088.785        0.425        0.297       50.080       25.312        0.255      337.113        8.867      856.683
11/10/2014  02:39:00       -2.658        6.472      -22.906       19.829       22.601       12.020      393.203      510.785      144.468        0.081        0.052        6.996       14.952        4.568      337.188        8.994      856.706
11/10/2014  02:40:00      -16.544       68.490      -10.460       20.622       26.050       14.292      425.250      678.603      204.252        0.319        0.065       70.460       11.337        0.026      337.129        8.893      856.687
11/10/2014  02:41:00       65.686       77.867       -1.737       26.215       34.707       23.885      687.250     1204.599      570.503        0.642        0.123      101.872       21.226        0.043      337.240        9.079      856.685
11/10/2014  02:42:00       22.644      -32.252       28.887       36.934       64.428       33.240     1364.089     4150.954     1104.888        0.450        0.331       39.408       26.607        0.456      337.347        9.259      856.645
11/10/2014  02:43:00       20.497       91.117        1.634       31.585       58.484       31.957      997.587     3420.382     1021.237        0.708        0.272       93.394       28.644        0.094      337.382        9.318      856.671
11/10/2014  02:44:00      -31.972       27.344      -15.497       46.236       40.311       13.614     2137.790     1624.984      185.341        0.298        0.197       42.070        8.818        0.044      337.319        9.212      856.665
11/10/2014  02:45:00      -81.980      -43.259      -14.152       39.726       21.433       11.726     1578.127      459.379      137.502        0.548        0.109       92.693        5.714        0.004      337.364        9.289      856.657
11/10/2014  02:46:00        0.669        2.898       -1.617        8.664       12.673        9.335       75.066      160.611       87.146        0.017        0.016        2.975        8.757        8.665      337.529        9.563      856.667
11/10/2014  02:47:00      -32.456       -3.574        2.807       35.492       13.849       13.706     1259.657      191.801      187.849        0.136        0.082       32.652       18.202        0.311      337.506        9.524      856.680
11/10/2014  02:48:00       71.960       55.951       26.745       39.336       31.001       24.978     1547.321      961.076      623.894        0.608        0.157       91.152       12.408        0.019      337.547        9.595      856.623
11/10/2014  02:49:00       83.831       67.919       -0.180       38.000       25.903       26.045     1444.020      670.957      678.354        0.722        0.140      107.892       18.380        0.029      337.477        9.477      856.561
11/10/2014  02:50:00       88.797       56.815       16.020       57.171       32.042       30.312     3268.527     1026.671      918.795        0.829        0.261      105.418       27.219        0.067      337.624        9.723      856.525
11/10/2014  02:51:00        3.304       -7.938       14.062       32.682       27.552       18.564     1068.107      759.097      344.607        0.122        0.109        8.598       17.093        3.952      337.662        9.788      856.584
11/10/2014  02:52:00       29.100       28.261       41.660       29.664       24.889       21.560      879.970      619.474      464.836        0.267        0.098       40.565       14.532        0.128      337.643        9.756      856.536
11/10/2014  02:53:00       11.216       14.879       58.595       24.789       22.676       22.588      614.480      514.195      510.223        0.271        0.082       18.633       11.667        0.392      337.890       10.169      856.504
11/10/2014  02:54:00      -15.731       15.850        2.707       11.435        8.960       14.012      130.760       80.276      196.330        0.046        0.020       22.331        6.002        0.072      337.904       10.194      856.545
11/10/2014  02:55:00       -1.426       -9.156        2.104       23.996       12.235        8.704      575.787      149.688       75.767        0.045        0.040        9.267        7.162        0.597      338.020       10.386      856.527
11/10/2014  02:56:00       33.800      -30.057        4.496       35.631       30.884       21.867     1269.551      953.827      478.185        0.238        0.135       45.231       15.058        0.111      338.392       11.013      856.483
11/10/2014  02:57:00       60.354        6.220        5.746       16.484       30.408       22.050      271.725      924.650      486.211        0.270        0.084       60.673       20.039        0.109      338.799       11.696      856.475
11/10/2014  02:58:00       39.480       17.234       22.107       43.476       44.277       21.309     1890.143     1960.482      454.094        0.332        0.215       43.077       14.768        0.118      338.440       11.095      856.413
11/10/2014  02:59:00     -110.856      -33.514      -12.225       54.457       54.433       22.161     2965.523     2962.911      491.092        0.999        0.321      115.811       16.520        0.020      337.900       10.187      856.445
11/10/2014  03:00:00       -3.421      -42.323       13.539       82.421       56.709       35.599     6793.263     3215.923     1267.267        0.663        0.564       42.461       44.099        1.079      338.172       10.643      856.440
11/10/2014  03:01:00       90.891       61.666       21.327       36.758       25.242       35.060     1351.182      637.141     1229.207        0.787        0.161      109.836       20.102        0.033      337.953       10.277      856.380
11/10/2014  03:02:00       74.107       27.734        6.823       60.119       32.054       19.326     3614.333     1027.432      373.510        0.566        0.251       79.127       11.788        0.022      338.359       10.956      856.380
11/10/2014  03:03:00       70.704       32.965        9.552       19.889       18.880       16.109      395.590      356.447      259.508        0.359        0.051       78.011       11.577        0.022      338.585       11.336      856.402
11/10/2014  03:04:00       72.675       54.796       16.825       46.342       25.788       26.410     2147.570      665.011      697.479        0.604        0.176       91.018       18.043        0.039      338.463       11.132      856.398
11/10/2014  03:05:00      -22.086       27.734       20.884       43.014       25.209       21.952     1850.207      635.509      481.898        0.233        0.148       35.454       24.903        0.493      338.187       10.667      856.390
11/10/2014  03:06:00      -66.564       35.730      -20.002       38.029       38.399       12.967     1446.237     1474.486      168.155        0.460        0.154       75.547        8.634        0.013      338.194       10.679      856.437
11/10/2014  03:07:00       15.590       -8.416       -0.357       22.900       12.727       10.303      524.412      161.985      106.145        0.055        0.040       17.717        9.535        0.290      338.260       10.792      856.431
11/10/2014  03:08:00      -35.863      -20.957      -14.438       49.606       23.797       13.783     2460.707      566.274      189.978        0.257        0.161       41.538        7.756        0.035      337.965       10.296      856.472
11/10/2014  03:09:00      -91.683      -15.568       -9.625       36.197       24.589       20.285     1310.209      604.594      411.484        0.553        0.116       92.995       19.192        0.043      337.691        9.836      856.509
11/10/2014  03:10:00       21.869      -56.470       -2.990       38.289       36.138       26.766     1466.029     1305.962      716.396        0.358        0.174       60.556       20.748        0.117      338.246       10.767      856.472
11/10/2014  03:11:00       10.051      -33.716      -14.696       19.048       45.072       19.899      362.812     2031.444      395.970        0.212        0.140       35.182       19.889        0.320      338.722       11.568      856.473
11/10/2014  03:12:00       53.916       37.293       24.592       16.554       29.118       20.281      274.047      847.835      411.317        0.322        0.077       65.557       17.222        0.069      338.292       10.845      856.502
11/10/2014  03:13:00       19.642       -6.348        3.288        9.616       20.306       10.371       92.475      412.326      107.567        0.052        0.031       20.643        5.023        0.059      337.973       10.309      856.562
11/10/2014  03:14:00       74.199       57.315       87.803       81.807       60.403       40.226     6692.346     3648.513     1618.109        1.423        0.598       93.757       41.789        0.199      337.226        9.057      856.614
11/10/2014  03:15:00       41.270       66.744       98.788       73.055       72.188       74.321     5337.016     5211.139     5523.676        1.599        0.804       78.473       72.745        0.859      336.745        8.253      856.606
11/10/2014  03:16:00       77.752       74.147       70.749       84.847       61.794       66.077     7199.025     3818.458     4366.176        1.596        0.769      107.438       62.659        0.340      336.667        8.122      856.570
11/10/2014  03:17:00       92.318       57.674       47.897       59.094       34.558       36.675     3492.155     1194.277     1345.045        1.009        0.302      108.853       34.153        0.098      336.655        8.104      856.571
11/10/2014  03:18:00       97.276       62.247       50.605       91.143       55.214       48.889     8307.028     3048.635     2390.112        1.482        0.687      115.487       35.847        0.096      336.733        8.234      856.529
11/10/2014  03:19:00       28.144       60.666       -4.309       43.355       23.487       31.445     1879.624      551.661      988.786        0.395        0.171       66.876       18.299        0.075      336.863        8.450      856.520
11/10/2014  03:20:00      115.510       54.300        3.207       64.910       49.514       34.821     4213.247     2451.651     1212.488        1.209        0.394      127.636       23.287        0.033      337.522        9.553      856.472
11/10/2014  03:21:00       64.712       34.664        4.168       33.223       24.676       23.580     1103.772      608.920      556.020        0.384        0.113       73.412       10.639        0.021      336.872        8.466      856.495
11/10/2014  03:22:00       14.628       12.635       10.064       70.610       47.536       15.928     4985.825     2259.712      253.708        0.399        0.375       19.329       19.576        1.026      336.926        8.555      856.496
11/10/2014  03:23:00       39.535       55.836        6.764       60.388       34.070       21.456     3646.763     1160.767      460.374        0.500        0.263       68.415       25.149        0.135      336.957        8.607      856.470
11/10/2014  03:24:00      100.688       60.422        5.002       33.541       27.940       16.915     1125.005      780.632      286.106        0.800        0.110      117.426        8.947        0.006      336.744        8.252      856.439
11/10/2014  03:25:00       53.562       40.178       -3.870       58.439       25.917       21.375     3415.147      671.673      456.898        0.452        0.227       66.957       25.642        0.147      336.849        8.428      856.430
11/10/2014  03:26:00      -82.046      -10.389      -10.562       33.822       18.325       11.857     1143.942      335.802      140.578        0.429        0.081       82.701       11.212        0.018      337.001        8.679      856.451
11/10/2014  03:27:00      -58.256       -0.756      -12.989       19.810        9.743        8.558      392.454       94.921       73.247        0.206        0.028       58.261        6.649        0.013      336.886        8.489      856.474
11/10/2014  03:28:00      -45.142      -35.498      -11.607       10.631       18.138        6.515      113.013      328.999       42.443        0.196        0.024       57.427        4.494        0.006      337.095        8.838      856.465
11/10/2014  03:29:00       10.673       37.586        3.515       53.191       27.566       15.919     2829.328      759.912      253.408        0.269        0.192       39.072       25.604        0.429      337.432        9.402      856.466
11/10/2014  03:30:00       78.616       63.968       16.825       21.572       14.080       21.615      465.355      198.243      467.199        0.584        0.057      101.353       15.431        0.023      337.200        9.013      856.419
11/10/2014  03:31:00       38.618        4.660       -7.077       29.906       24.021       12.824      894.356      576.996      164.463        0.160        0.082       38.898       11.879        0.093      337.215        9.039      856.445
11/10/2014  03:32:00      -64.260      -44.694       -9.342       37.845        9.202       10.798     1432.211       84.686      116.603        0.392        0.082       78.275       16.542        0.045      337.217        9.043      856.499
11/10/2014  03:33:00      -10.761      -36.325       -2.273       19.419       18.992       13.911      377.100      360.702      193.527        0.119        0.047       37.885       11.324        0.089      337.123        8.885      856.483
11/10/2014  03:34:00      -19.024        7.567        9.182       25.979       23.557       20.842      674.911      554.910      434.407        0.108        0.083       20.473       24.114        1.387      336.988        8.658      856.468
11/10/2014  03:35:00      -10.634       68.145       -5.759       33.677       25.916       14.922     1134.112      671.638      222.657        0.341        0.101       68.970       10.030        0.021      337.174        8.970      856.461
11/10/2014  03:36:00        6.161      -29.684       -8.745       29.172       33.167       15.217      851.020     1100.075      231.562        0.159        0.109       30.317        6.392        0.044      337.372        9.302      856.416
11/10/2014  03:37:00      -21.019      -15.303       -0.351       53.660       11.673       10.552     2879.362      136.247      111.336        0.190        0.156       25.999       13.722        0.279      337.326        9.227      856.409
11/10/2014  03:38:00      126.991       58.828       20.705       31.951       29.658       29.939     1020.871      879.600      896.344        1.141        0.140      139.955       23.809        0.029      336.982        8.648      856.371
11/10/2014  03:39:00       15.323       -4.114       -1.064       14.905       22.568        9.224      222.162      509.331       85.075        0.053        0.041       15.865        9.114        0.330      337.216        9.040      856.393
11/10/2014  03:40:00       47.322       18.884       20.028       51.499       56.285       20.112     2652.129     3167.959      404.493        0.461        0.311       50.951       25.225        0.245      337.198        9.010      856.401
11/10/2014  03:41:00       45.158       13.263        8.286       51.540       52.202       21.940     2656.407     2725.041      481.367        0.407        0.293       47.066        9.167        0.038      336.982        8.649      856.377
11/10/2014  03:42:00      -17.940      -66.142        6.850       34.711       36.234       16.958     1204.839     1312.924      287.568        0.377        0.140       68.532       20.751        0.092      337.311        9.199      856.405
11/10/2014  03:43:00       68.408       37.063       16.844       19.436       28.280       15.700      377.742      799.753      246.503        0.388        0.071       77.803       14.237        0.033      337.305        9.190      856.417
11/10/2014  03:44:00       74.634       12.344        4.734       30.110       28.598       26.443      906.620      817.840      699.225        0.408        0.121       75.648       16.599        0.048      337.366        9.291      856.401
11/10/2014  03:45:00       17.066       27.658       25.606       22.473       19.651       17.220      505.034      386.181      296.511        0.145        0.059       32.499        7.768        0.057      337.127        8.893      856.413
11/10/2014  03:46:00       47.728       11.582       11.547       31.700       15.190       15.533     1004.920      230.730      241.273        0.201        0.074       49.113       17.886        0.133      337.165        8.954      856.432
11/10/2014  03:47:00       58.840       38.479       29.302       29.193       25.190       18.647      852.212      634.532      347.720        0.382        0.092       70.305       16.960        0.058      337.265        9.124      856.435
11/10/2014  03:48:00       34.830       32.743       20.403       19.978       28.537       25.928      399.121      814.350      672.250        0.229        0.094       47.804       22.421        0.220      337.749        9.934      856.427
11/10/2014  03:49:00       26.669       29.995       32.706       29.107       31.610       20.413      847.199      999.203      416.681        0.247        0.113       40.137       17.256        0.185      337.904       10.193      856.433
11/10/2014  03:50:00       42.082       63.998       58.458       54.655       35.920       37.616     2987.178     1290.269     1414.997        0.749        0.285       76.594       40.719        0.283      337.094        8.836      856.399
11/10/2014  03:51:00       79.908       58.112       46.017       67.839       37.841       32.742     4602.139     1431.942     1072.047        0.949        0.355       98.804       35.762        0.131      337.080        8.811      856.437
11/10/2014  03:52:00        8.010       33.096       65.179       30.235       34.643       25.648      914.177     1200.168      657.844        0.409        0.139       34.052       24.276        0.508      336.896        8.505      856.427
11/10/2014  03:53:00       17.929      -37.517        3.710       33.347       46.996       34.581     1112.020     2208.598     1195.817        0.313        0.226       41.581       24.515        0.348      337.032        8.731      856.445
11/10/2014  03:54:00       48.606       -0.025       20.429       46.741       18.819       25.638     2184.731      354.167      657.327        0.299        0.160       48.606       28.596        0.346      337.046        8.756      856.459
11/10/2014  03:55:00       10.204      -31.217       16.070       43.020       46.781       38.528     1850.681     2188.475     1484.389        0.343        0.276       32.843       37.129        1.278      337.032        8.732      856.412
11/10/2014  03:56:00       -6.186       -3.611       -3.551       31.625       28.899       23.255     1000.157      835.139      540.786        0.122        0.119        7.162       13.133        3.362      337.024        8.717      856.397
11/10/2014  03:57:00       12.818      -21.023       15.678       35.306       41.007       20.272     1246.532     1681.543      410.973        0.209        0.167       24.623       23.920        0.944      336.973        8.633      856.362
11/10/2014  03:58:00     -104.470      -10.931       -4.444       24.950       30.536       16.861      622.523      932.445      284.306        0.645        0.092      105.040       12.598        0.014      337.039        8.743      856.378
11/10/2014  03:59:00      -42.043      -56.177        3.503       45.254       23.683       23.992     2047.925      560.888      575.602        0.406        0.159       70.167       25.035        0.127      336.938        8.575      856.373
11/10/2014  04:00:00       -2.039      -12.014       18.236       22.593       54.258       20.812      510.425     2943.984      433.153        0.218        0.194       12.186       18.027        2.189      337.231        9.066      856.329
11/10/2014  04:01:00     -105.171      -37.538      -10.017       29.954       32.775       16.294      897.251     1074.190      265.484        0.740        0.112      111.670       14.599        0.017      337.000        8.678      856.343
11/10/2014  04:02:00      -19.628      -59.434        8.854       45.314       24.828       17.220     2053.327      616.439      296.515        0.348        0.148       62.592       17.902        0.082      337.238        9.077      856.335
11/10/2014  04:03:00      -32.847       25.185       15.297       50.562       28.695       28.669     2556.486      823.415      821.885        0.307        0.210       41.391       27.898        0.454      337.140        8.912      856.325
11/10/2014  04:04:00      -95.140      -59.497      -10.827       61.800       32.390       23.736     3819.194     1049.127      563.394        0.907        0.272      112.212       28.390        0.064      336.929        8.560      856.346
11/10/2014  04:05:00      -46.436      -78.796        5.423       33.784       56.158       21.333     1141.388     3153.737      455.117        0.657        0.238       91.462       22.420        0.060      337.159        8.944      856.314
11/10/2014  04:06:00      -55.044      -37.515       -3.351       30.138       27.632       16.631      908.311      763.533      276.580        0.320        0.097       66.612       15.639        0.055      337.073        8.801      856.308
11/10/2014  04:07:00      -27.846      -50.795      -10.059       43.031       21.276       13.370     1851.706      452.661      178.758        0.297        0.124       57.927       17.002        0.086      337.169        8.960      856.292
11/10/2014  04:08:00      -45.177      -30.113        0.674       35.529       30.583       16.911     1262.276      935.317      285.982        0.272        0.124       54.293       16.809        0.096      337.316        9.209      856.254
11/10/2014  04:09:00     -149.656      -72.894       -9.143       56.482       32.218       16.163     3190.197     1037.991      261.243        1.614        0.224      166.465       18.132        0.012      336.879        8.475      856.295
11/10/2014  04:10:00       -3.439      -41.899        6.760       21.301       27.621       16.207      453.749      762.944      262.652        0.165        0.074       42.040       10.032        0.057      336.928        8.559      856.277
11/10/2014  04:11:00      -37.529      -98.077        4.683       40.942       33.205       22.946     1676.234     1102.569      526.508        0.718        0.165      105.012       15.697        0.022      337.660        9.784      856.251
11/10/2014  04:12:00     -119.802     -121.123       -5.695       70.693       66.501       35.605     4997.508     4422.368     1267.716        1.987        0.534      170.362       36.434        0.046      337.119        8.874      856.288
11/10/2014  04:13:00      -55.078     -151.078       -1.311       78.964       45.906       39.115     6235.327     2107.345     1529.969        1.786        0.494      160.805       33.745        0.044      337.216        9.039      856.293
11/10/2014  04:14:00      -30.815       -8.792        5.911       19.306       40.849       20.843      372.704     1668.632      434.451        0.177        0.124       32.044       11.833        0.136      337.134        8.903      856.265
11/10/2014  04:15:00      -75.254      -42.461        2.611       54.166       26.266       23.384     2933.946      689.927      546.830        0.582        0.209       86.406       17.760        0.042      337.055        8.771      856.260
11/10/2014  04:16:00       -0.438      -54.421       12.161       26.750       26.676       14.603      715.563      711.588      213.239        0.237        0.082       54.422       12.779        0.055      337.015        8.702      856.258
11/10/2014  04:17:00       13.990       11.738       -2.040       29.189       19.548       27.087      851.995      382.129      733.698        0.115        0.098       18.262       15.205        0.693      336.994        8.667      856.273
11/10/2014  04:18:00      -60.458      -32.591       -8.197       48.675       27.894       14.444     2369.232      778.052      208.635        0.407        0.168       68.683       10.889        0.025      336.953        8.599      856.319
11/10/2014  04:19:00      -35.291      -57.765        1.115       59.735       32.818       19.173     3568.313     1077.053      367.609        0.480        0.251       67.692       22.909        0.115      336.975        8.637      856.346
11/10/2014  04:20:00        8.182       16.839        4.500       38.434       26.786       17.347     1477.145      717.470      300.925        0.143        0.125       18.722       19.103        1.041      336.868        8.457      856.326
11/10/2014  04:21:00      -78.507      -48.874       -3.036       52.032       20.016       16.557     2707.360      400.651      274.128        0.597        0.169       92.477       18.999        0.042      336.994        8.669      856.338
11/10/2014  04:22:00      -54.209      -45.915       -1.104       40.736       34.396       12.757     1659.460     1183.062      162.745        0.403        0.150       71.041        9.876        0.019      336.926        8.554      856.338
11/10/2014  04:23:00       31.073       27.200       17.055       15.240       26.313       17.171      232.253      692.361      294.833        0.161        0.061       41.296       17.904        0.188      336.985        8.653      856.289
11/10/2014  04:24:00       20.751       29.868       17.422       25.567       13.046       16.304      653.654      170.202      265.807        0.136        0.054       36.369       17.295        0.226      336.871        8.464      856.276
11/10/2014  04:25:00      -10.017       28.236       -3.143        8.570       11.485        5.935       73.447      131.910       35.229        0.057        0.012       29.960        4.867        0.026      336.862        8.449      856.311
11/10/2014  04:26:00       31.813       23.420        7.307       24.000       21.762       13.222      575.998      473.578      174.810        0.142        0.061       39.504       12.356        0.098      336.770        8.295      856.327
11/10/2014  04:27:00       10.713       92.348       -8.769       18.316       20.737       15.103      335.468      430.003      228.097        0.486        0.050       92.967       11.659        0.016      336.422        7.712      856.335
11/10/2014  04:28:00       18.814      103.366      -13.961       11.960       17.253        9.611      143.049      297.678       92.378        0.588        0.027      105.064        5.113        0.002      336.715        8.203      856.353
11/10/2014  04:29:00      -17.761       34.091       -3.967       19.266       42.435       13.750      371.180     1800.703      189.069        0.193        0.118       38.440       15.762        0.168      336.800        8.345      856.378
11/10/2014  04:30:00      -59.556      -55.104       -8.917       18.434       22.134       13.462      339.824      489.923      181.228        0.384        0.051       81.138        8.245        0.010      336.697        8.173      856.386
11/10/2014  04:31:00       13.544      -69.175       -6.117       43.301       30.303       21.143     1875.018      918.244      447.015        0.412        0.162       70.489        9.590        0.019      337.086        8.822      856.377
11/10/2014  04:32:00       16.363      -23.534       20.322       25.882       34.115       20.461      669.893     1163.835      418.667        0.174        0.113       28.664       19.093        0.444      337.159        8.946      856.358
11/10/2014  04:33:00       21.056      -20.165        7.974       28.444       26.219       19.487      809.039      687.444      379.762        0.139        0.094       29.154       16.257        0.311      337.095        8.839      856.341
11/10/2014  04:34:00       29.111      -19.263       13.029       27.945       19.805       16.605      780.912      392.252      275.717        0.142        0.072       34.907       12.482        0.128      336.975        8.637      856.330
11/10/2014  04:35:00       57.824       40.435       53.300       29.744       30.598       26.289      884.686      936.210      691.118        0.517        0.126       70.559       22.147        0.099      337.026        8.722      856.285
11/10/2014  04:36:00       83.725       45.601       18.451       21.016       29.217       26.337      441.659      853.605      693.655        0.571        0.099       95.337       19.264        0.041      336.936        8.571      856.272
11/10/2014  04:37:00       41.190       28.282       10.786       29.527       24.208       19.502      871.830      586.011      380.335        0.223        0.092       49.965       10.914        0.048      336.777        8.308      856.279
11/10/2014  04:38:00       21.309        5.565        9.966       16.458       13.395        9.672      270.852      179.434       93.552        0.056        0.027       22.024        8.425        0.146      336.843        8.417      856.311
11/10/2014  04:39:00       19.522        7.380       11.456       14.657        8.999        9.304      214.821       80.982       86.561        0.047        0.019       20.871        4.135        0.039      336.873        8.466      856.296
11/10/2014  04:40:00       -1.329       20.745       32.952       13.606       17.272       11.564      185.128      298.314      133.733        0.107        0.031       20.787       11.801        0.322      336.746        8.256      856.298
11/10/2014  04:41:00       38.932       45.521       38.180       26.761       14.438       15.573      716.145      208.455      242.531        0.311        0.058       59.899       11.190        0.035      336.712        8.198      856.281
11/10/2014  04:42:00        4.149       11.775       14.713       33.850       25.040       13.524     1145.817      626.981      182.888        0.116        0.098       12.485       17.061        1.867      336.711        8.197      856.294
11/10/2014  04:43:00       -8.099      -24.753        7.357       33.427       14.269       13.754     1117.394      203.605      189.162        0.112        0.076       26.044       18.304        0.494      336.580        7.979      856.327
11/10/2014  04:44:00       10.391        1.125        3.846       11.311       19.358       10.387      127.933      374.748      107.882        0.037        0.031       10.452        9.718        0.865      336.528        7.890      856.306
11/10/2014  04:45:00       55.688       22.078        9.917       14.206       11.079       14.294      201.809      122.737      204.326        0.211        0.026       59.905       12.841        0.046      336.713        8.200      856.281
11/10/2014  04:46:00       24.388        3.089        1.591       14.755       20.816        9.922      217.712      433.324       98.441        0.068        0.037       24.583        6.774        0.076      336.683        8.149      856.282
11/10/2014  04:47:00       46.214      -15.667        6.098       19.712       35.747       22.850      388.551     1277.880      522.110        0.230        0.109       48.798       23.896        0.240      336.736        8.239      856.283
11/10/2014  04:48:00        8.647       51.483       64.891       26.484       23.737       18.796      701.392      563.424      353.288        0.428        0.081       52.204       19.347        0.137      336.753        8.265      856.257
11/10/2014  04:49:00       47.464       49.313       30.718       32.320       16.715       29.540     1044.610      279.396      872.591        0.391        0.110       68.444       25.093        0.134      336.468        7.791      856.281
11/10/2014  04:50:00       69.859       37.781       -3.841       18.506       13.670        8.679      342.480      186.857       75.320        0.346        0.030       79.421        4.929        0.004      336.520        7.877      856.266
11/10/2014  04:51:00      101.969       63.739       25.796       37.903       20.607       19.543     1436.617      424.659      381.930        0.868        0.112      120.251       13.920        0.013      336.365        7.617      856.234
11/10/2014  04:52:00       64.510       62.574       -4.602       52.060       35.436       31.831     2710.209     1255.710     1013.220        0.654        0.249       89.872       26.317        0.086      336.377        7.637      856.189
11/10/2014  04:53:00       30.612       51.233        1.039       27.564       38.886       24.840      759.791     1512.093      617.027        0.323        0.144       59.682       24.729        0.172      336.395        7.668      856.206
11/10/2014  04:54:00       17.002       55.245       -8.306       20.855       32.252       12.727      434.918     1040.177      161.979        0.252        0.082       57.802       10.435        0.033      336.456        7.769      856.228
11/10/2014  04:55:00       36.064       29.040       -5.636       12.624       29.682       12.468      159.357      881.002      155.457        0.169        0.060       46.302       12.489        0.073      336.514        7.867      856.238
11/10/2014  04:56:00        9.284       28.613       24.130       15.239       18.522       19.505      232.224      343.061      380.435        0.122        0.048       30.081       12.445        0.171      336.448        7.757      856.237
11/10/2014  04:57:00       43.969       41.088        4.877       13.873       11.576       11.959      192.467      134.011      143.018        0.206        0.023       60.179        6.277        0.011      336.477        7.807      856.217
11/10/2014  04:58:00       51.057       25.520        1.037       15.545       15.848        8.260      241.648      251.150       68.231        0.191        0.028       57.080        4.336        0.006      336.311        7.529      856.201
11/10/2014  04:59:00       -1.560      -36.204       -6.966       16.238       25.002       12.051      263.681      625.125      145.226        0.120        0.052       36.238        5.332        0.022      336.429        7.725      856.223
11/10/2014  05:00:00      -53.799      -43.321        6.038       59.431       32.226       25.911     3532.078     1038.541      671.376        0.502        0.262       69.072       17.373        0.063      336.380        7.644      856.243
11/10/2014  05:01:00      -16.663      -10.317        9.916       27.019       23.283       13.560      730.042      542.077      183.874        0.097        0.073       19.598       10.376        0.280      336.416        7.703      856.257
11/10/2014  05:02:00      -14.725      -49.698       -4.826       32.605       24.066       23.623     1063.078      579.157      558.052        0.245        0.110       51.834       18.695        0.130      336.646        8.088      856.275
11/10/2014  05:03:00       19.323      -14.116        9.594       24.323       20.598       18.361      591.603      424.268      337.111        0.101        0.068       23.930       17.408        0.529      336.506        7.854      856.271
11/10/2014  05:04:00       25.370      -56.748        9.948       43.068       59.210       21.595     1854.871     3505.784      466.336        0.489        0.291       62.161       28.289        0.207      336.856        8.439      856.226
11/10/2014  05:05:00       29.582       48.220       52.164       23.619       27.864       19.690      557.862      776.393      387.690        0.382        0.086       56.571       21.358        0.143      336.429        7.724      856.184
11/10/2014  05:06:00       32.395       55.373       48.485       20.651       21.012       17.858      426.479      441.499      318.917        0.383        0.059       64.153       10.630        0.027      336.492        7.831      856.144
11/10/2014  05:07:00       16.761       85.514       -3.871       23.623       23.787       23.102      558.068      565.810      533.709        0.463        0.083       87.141       19.029        0.048      336.564        7.951      856.175
11/10/2014  05:08:00       24.888       29.028        5.193       15.799       30.119       14.791      249.599      907.171      218.780        0.143        0.069       38.236       10.741        0.079      336.489        7.825      856.151
11/10/2014  05:09:00      -11.185        1.900        6.183       32.133       27.862       16.249     1032.536      776.290      264.040        0.112        0.104       11.345       19.458        2.942      336.485        7.819      856.151
11/10/2014  05:10:00      -79.496      -37.153        5.792       54.044       33.829       26.855     2920.784     1144.371      721.175        0.626        0.239       87.749       16.839        0.037      336.416        7.704      856.200
11/10/2014  05:11:00      -54.887      -99.753        8.397       40.861       48.854       30.664     1669.596     2386.672      940.252        0.901        0.250      113.856       28.090        0.061      336.408        7.690      856.216
11/10/2014  05:12:00      -91.609      -33.542       -9.310       34.088       33.523       25.938     1161.959     1123.788      672.803        0.628        0.148       97.556       13.462        0.019      336.445        7.752      856.203
11/10/2014  05:13:00      -28.740      -74.509       -4.019       39.894       37.729       17.140     1591.534     1423.456      293.790        0.485        0.165       79.860       14.311        0.032      336.471        7.795      856.188
11/10/2014  05:14:00        0.138       46.889       25.447       33.993       40.085       30.938     1155.510     1606.784      957.190        0.328        0.186       46.889       26.263        0.314      336.346        7.587      856.185
11/10/2014  05:15:00       -0.500       55.173      -11.955       14.805       21.075       11.810      219.199      444.138      139.487        0.199        0.040       55.175       12.936        0.055      336.496        7.838      856.217
11/10/2014  05:16:00       23.655        8.502        0.089       19.319       21.579        9.650      373.209      465.645       93.120        0.078        0.047       25.137        9.421        0.140      336.502        7.846      856.218
11/10/2014  05:17:00       -3.361       -2.671       -1.385        8.810       20.360        5.163       77.609      414.510       26.654        0.027        0.026        4.293        3.668        0.730      336.473        7.795      856.245
11/10/2014  05:18:00       -4.723       -4.079        6.632       17.685       12.228        9.662      312.776      149.512       93.363        0.032        0.028        6.240       12.278        3.871      336.448        7.756      856.264
11/10/2014  05:19:00       32.232       41.661       15.368       11.179       12.051       11.617      124.964      145.218      134.964        0.171        0.020       52.674        6.489        0.015      336.368        7.623      856.259
11/10/2014  05:20:00        3.317       21.612        7.205       25.253       15.707        9.051      637.718      246.715       81.925        0.075        0.048       21.865       15.146        0.480      336.435        7.734      856.262
11/10/2014  05:21:00     -103.888      -47.195       -8.908       34.461       38.858       13.998     1187.568     1509.947      195.941        0.800        0.145      114.106       10.154        0.008      336.296        7.501      856.324
11/10/2014  05:22:00      -33.576      -20.299        0.479       41.873       21.532       11.868     1753.340      463.628      140.842        0.195        0.118       39.235       13.041        0.110      336.123        7.214      856.337
11/10/2014  05:23:00       48.560       41.371       11.375       13.591       17.227       18.780      184.709      296.757      352.681        0.252        0.042       63.793        7.654        0.014      336.149        7.258      856.289
11/10/2014  05:24:00       44.602       31.726      -10.203       17.729       30.545       19.974      314.333      932.995      398.948        0.237        0.082       54.735       15.311        0.078      336.003        7.013      856.285
11/10/2014  05:25:00       33.488       20.733       -3.332       19.479       20.609       14.934      379.434      424.747      223.031        0.129        0.051       39.386       11.219        0.081      336.097        7.170      856.303
11/10/2014  05:26:00       51.344       29.590        4.576       21.133       13.497       16.362      446.620      182.176      267.718        0.221        0.045       59.261       10.898        0.034      335.941        6.908      856.336
11/10/2014  05:27:00       32.534      -32.938       -3.965       17.934       33.390       13.497      321.627     1114.896      182.174        0.189        0.081       46.297       11.656        0.063      335.996        7.000      856.368
11/10/2014  05:28:00       -0.693      -43.126       -7.771       38.074       30.804       18.802     1449.625      948.901      353.500        0.234        0.138       43.132       19.033        0.195      336.108        7.188      856.399
11/10/2014  05:29:00       20.286       41.730       12.474       31.089       24.097       28.139      966.517      580.686      791.786        0.232        0.117       46.399       19.704        0.180      336.078        7.136      856.412
11/10/2014  05:30:00       68.820       30.530        4.768       25.868       31.855       21.383      669.161     1014.754      457.238        0.392        0.107       75.288       15.636        0.043      335.778        6.639      856.385
11/10/2014  05:31:00       45.150      -78.718       -6.193       37.238       44.165       24.312     1386.633     1950.522      591.053        0.610        0.196       90.747       25.131        0.077      336.046        7.085      856.370
11/10/2014  05:32:00       -8.616        1.802       15.099       25.527       39.387       18.285      651.638     1551.347      334.358        0.142        0.127        8.803       14.076        2.557      336.104        7.181      856.367
11/10/2014  05:33:00       13.799       25.245       38.804       21.300       20.498       11.454      453.688      420.173      131.201        0.167        0.050       28.770        8.479        0.087      335.982        6.978      856.349
11/10/2014  05:34:00       69.771        9.833       39.148       43.076       32.357       25.087     1855.535     1046.966      629.336        0.501        0.177       70.460       25.720        0.133      336.186        7.319      856.310
11/10/2014  05:35:00       43.261      -43.376       19.175       40.650       42.442       31.545     1652.449     1801.330      995.095        0.428        0.222       61.262       33.005        0.290      336.307        7.521      856.286
11/10/2014  05:36:00        9.461      -42.394       22.380       31.666       50.863       27.245     1002.721     2587.010      742.272        0.336        0.217       43.437       30.842        0.504      336.520        7.878      856.309
11/10/2014  05:37:00      -11.787      -11.689       -0.832       34.231       28.370       18.678     1171.784      804.839      348.880        0.130        0.116       16.600       20.211        1.482      336.233        7.397      856.352
11/10/2014  05:38:00       34.820       12.877       25.498       27.219       31.598       30.207      740.874      998.456      912.462        0.234        0.133       37.125       23.195        0.390      336.214        7.365      856.374
11/10/2014  05:39:00       -2.895      -28.948       15.591       57.151       78.495       54.642     3266.263     6161.541     2985.790        0.675        0.621       29.092       61.075        4.407      336.348        7.589      856.381
11/10/2014  05:40:00      -94.129      -47.465        1.659       72.016       55.862       29.697     5186.367     3120.517      881.929        1.015        0.459      105.419       31.826        0.091      336.231        7.393      856.452
11/10/2014  05:41:00      -70.034      -67.587       -2.226       38.552       49.398       18.994     1486.247     2440.118      360.755        0.688        0.214       97.328       13.541        0.019      336.174        7.298      856.456
11/10/2014  05:42:00       -4.556       -8.290        8.347       55.709       48.866       19.203     3103.459     2387.842      368.748        0.301        0.293        9.459       20.749        4.812      336.142        7.245      856.420
11/10/2014  05:43:00       35.056       15.857       15.564       32.364       33.498       17.471     1047.398     1122.108      305.247        0.210        0.124       38.476        6.004        0.024      336.139        7.239      856.404
11/10/2014  05:44:00       39.884      -99.549      -10.539       58.957       25.482       23.529     3475.924      649.312      553.609        0.814        0.234      107.242       15.756        0.022      336.504        7.851      856.436
11/10/2014  05:45:00        4.812     -104.609      -26.003       39.447       38.902       30.612     1556.031     1513.327      937.080        0.782        0.200      104.720       15.586        0.022      336.422        7.714      856.479
11/10/2014  05:46:00      -11.102        1.684       -7.881       20.840       14.763       20.636      434.298      217.933      425.836        0.063        0.054       11.229       16.100        2.056      336.230        7.391      856.540
11/10/2014  05:47:00      -19.301        1.819        3.160       16.958       19.413       12.542      287.584      376.871      157.305        0.060        0.041       19.387        7.752        0.160      336.267        7.455      856.550
11/10/2014  05:48:00      -27.475       -8.225       -1.296       26.340       20.600       11.859      693.770      424.362      140.637        0.104        0.063       28.680        8.600        0.090      336.207        7.352      856.521
11/10/2014  05:49:00      -74.921      -23.329       -9.586       38.631       17.731       13.505     1492.330      314.381      182.393        0.412        0.099       78.469       10.395        0.018      336.290        7.492      856.501
11/10/2014  05:50:00      -13.599      -34.519        7.245       26.404       18.021       13.474      697.164      324.772      181.536        0.132        0.060       37.101       10.846        0.085      336.208        7.355      856.471
11/10/2014  05:51:00       -5.712      -22.952       14.950       21.514       17.932       16.751      462.835      321.550      280.594        0.092        0.053       23.652       12.298        0.270      336.239        7.407      856.469
11/10/2014  05:52:00      -46.318      -56.804        8.346       35.036       35.880       23.851     1227.549     1287.359      568.893        0.426        0.154       73.294       22.656        0.096      336.192        7.328      856.492
11/10/2014  05:53:00       -1.983       -7.606       12.871       35.079       27.509       18.011     1230.502      756.729      324.396        0.127        0.116        7.860       19.254        6.001      336.110        7.191      856.515
11/10/2014  05:54:00      -36.957       38.823       -7.337       19.244       17.503       12.518      370.333      306.354      156.702        0.188        0.042       53.601        9.394        0.031      336.032        7.061      856.502
11/10/2014  05:55:00       -1.516        9.546        3.075       16.124       17.162       10.102      259.998      294.531      102.052        0.038        0.033        9.665       10.961        1.286      336.075        7.133      856.439
11/10/2014  05:56:00      -59.808        8.898       -3.189       19.770       21.130       13.385      390.858      446.486      179.158        0.234        0.051       60.467        9.288        0.024      336.226        7.386      856.438
11/10/2014  05:57:00     -109.579       24.198      -17.157       29.703       32.332       19.524      882.241     1045.341      381.173        0.760        0.115      112.219       10.658        0.009      335.752        6.596      856.476
11/10/2014  05:58:00     -113.353       16.854      -12.585       35.552       37.224       23.540     1263.949     1385.611      554.140        0.825        0.160      114.599       17.140        0.022      335.838        6.738      856.489
11/10/2014  05:59:00      -12.288        3.992        1.072       25.258       15.748       10.208      637.979      248.012      104.207        0.058        0.050       12.920        3.849        0.089      335.834        6.733      856.477
11/10/2014  06:00:00      -41.339       20.958       -7.961       20.215       16.053       11.855      408.653      257.711      140.539        0.151        0.040       46.348        8.589        0.034      335.966        6.952      856.478
11/10/2014  06:01:00      -77.089        3.544       -4.793       13.705       22.467        9.229      187.821      504.750       85.182        0.338        0.039       77.171        5.860        0.006      335.931        6.893      856.480
11/10/2014  06:02:00      -58.459       -9.438      -11.960       21.478       13.376       11.259      461.295      178.915      126.771        0.221        0.038       59.216       11.661        0.039      335.702        6.512      856.504
11/10/2014  06:03:00      -26.041      -17.187        0.121       15.241        9.882        9.753      232.302       97.663       95.114        0.070        0.021       31.201        5.334        0.029      335.687        6.489      856.503
11/10/2014  06:04:00      -44.506      -14.903      -12.009       26.842       19.027       13.347      720.502      362.019      178.154        0.180        0.063       46.935       13.633        0.084      335.845        6.750      856.478
11/10/2014  06:05:00     -106.442       -9.109      -17.013       24.891       22.619       13.364      619.557      511.633      178.585        0.651        0.065      106.831       10.078        0.009      335.582        6.312      856.477
11/10/2014  06:06:00      -49.563       -0.753       -6.100       16.761       19.634       15.228      280.922      385.496      231.894        0.170        0.045       49.569       11.841        0.057      335.450        6.091      856.487
11/10/2014  06:07:00      -58.571      -23.962       -6.079       21.846       19.498       12.734      477.237      380.191      162.146        0.253        0.051       63.283        8.974        0.020      335.526        6.219      856.491
11/10/2014  06:08:00      -70.194      -16.351       -7.061       21.412       24.737       16.603      458.495      611.917      275.645        0.329        0.067       72.073       11.952        0.027      335.510        6.190      856.482
11/10/2014  06:09:00      -46.940        7.341       -7.694       19.919       43.761       17.685      396.780     1915.011      312.764        0.247        0.131       47.511       18.373        0.150      335.557        6.269      856.457
11/10/2014  06:10:00      -50.023       14.439       -9.521       20.749       30.822       16.167      430.525      950.023      261.375        0.222        0.082       52.065       17.059        0.107      335.812        6.695      856.467
11/10/2014  06:11:00      -63.750      -28.182      -11.660       13.873       11.862       10.791      192.449      140.696      116.453        0.272        0.022       69.701        7.026        0.010      335.766        6.619      856.489
11/10/2014  06:12:00      -76.192       -6.861      -15.186       11.564       12.452        9.038      133.729      155.049       81.691        0.323        0.019       76.501        3.967        0.003      335.842        6.743      856.504
11/10/2014  06:13:00      -72.625       -0.523      -15.084       30.055       28.611       17.582      903.311      818.561      309.119        0.377        0.102       72.627       15.653        0.046      335.742        6.578      856.532
11/10/2014  06:14:00      -96.756      -28.206      -15.912       37.700       25.615       18.301     1421.255      656.106      334.933        0.641        0.121      100.783       16.617        0.027      335.630        6.393      856.550
11/10/2014  06:15:00      -48.711      -25.194       -2.368       36.418       16.428       19.147     1326.289      269.877      366.599        0.249        0.098       54.840       21.545        0.154      335.486        6.152      856.555
11/10/2014  06:16:00      -83.594      -43.989        2.282       26.614       31.249       25.504      708.282      976.522      650.454        0.563        0.117       94.462       17.275        0.033      335.445        6.083      856.551
11/10/2014  06:17:00      -98.128      -37.316      -10.928       44.451       38.175       20.454     1975.888     1457.325      418.371        0.750        0.193      104.984       10.488        0.010      335.518        6.204      856.538
11/10/2014  06:18:00      -64.360        6.338       -9.170       36.226       36.990       22.025     1312.332     1368.245      485.121        0.372        0.158       64.671       17.848        0.076      335.766        6.617      856.522
11/10/2014  06:19:00      -77.347       -8.823      -15.264       39.269       28.062       20.598     1542.045      787.465      424.267        0.452        0.138       77.848       16.004        0.042      336.029        7.056      856.497
11/10/2014  06:20:00      -82.295      -36.498      -18.815       41.070       20.232       16.941     1686.748      409.352      287.009        0.542        0.119       90.025       15.849        0.031      335.776        6.635      856.487
11/10/2014  06:21:00     -102.059      -30.289      -10.868       37.594       42.423       20.035     1413.301     1799.711      401.387        0.753        0.181      106.459       14.309        0.018      335.713        6.531      856.487
11/10/2014  06:22:00     -121.961       -1.241      -10.159       44.591       44.365       22.784     1988.330     1968.216      519.096        0.973        0.224      121.968       21.073        0.030      335.855        6.766      856.495
11/10/2014  06:23:00     -140.687      -14.191      -15.327       38.538       44.835       26.889     1485.161     2010.159      723.029        1.222        0.211      141.401       18.150        0.016      335.769        6.622      856.501
11/10/2014  06:24:00      -88.402      -32.257       -3.525       40.332       34.547       21.546     1626.665     1193.478      464.218        0.608        0.164       94.103       15.967        0.029      335.768        6.623      856.496
11/10/2014  06:25:00     -119.976      -17.978      -10.539       39.166       31.303       19.126     1534.005      979.908      365.787        0.885        0.144      121.316       11.035        0.008      335.719        6.541      856.500
11/10/2014  06:26:00      -89.841      -32.987       -8.503       24.576       25.181       16.028      603.973      634.100      256.905        0.536        0.075       95.706       10.316        0.012      335.648        6.421      856.509
11/10/2014  06:27:00      -82.694      -36.247       -9.808       14.748       20.388       17.386      217.500      415.662      302.285        0.459        0.047       90.289        6.396        0.005      335.672        6.463      856.521
11/10/2014  06:28:00      -98.249      -31.195      -13.355       17.778       18.633       12.457      316.066      347.172      155.186        0.581        0.041      103.083        7.070        0.005      335.845        6.750      856.528
11/10/2014  06:29:00     -118.639      -27.375       -8.764       36.171       42.270       25.418     1308.321     1786.791      646.071        0.932        0.187      121.757       16.408        0.018      335.655        6.433      856.551
11/10/2014  06:30:00      -66.666      -34.787       -5.152       30.699       30.118       18.091      942.421      907.112      327.281        0.393        0.109       75.196       16.096        0.046      335.689        6.489      856.560
11/10/2014  06:31:00      -71.498      -29.409       -3.067       46.963       27.925       22.297     2205.547      779.813      497.174        0.473        0.174       77.310       29.012        0.141      335.842        6.746      856.581
11/10/2014  06:32:00     -115.751      -36.545      -11.786       30.483       28.494       20.809      929.196      811.907      433.027        0.852        0.109      121.383       10.335        0.007      335.718        6.540      856.609
11/10/2014  06:33:00      -48.287      -39.986       -7.106       18.444       22.885       11.771      340.182      523.715      138.549        0.249        0.050       62.694       10.157        0.026      335.792        6.663      856.639
11/10/2014  06:34:00       -2.914      -17.543        2.387       26.606       15.555       10.390      707.899      241.960      107.957        0.069        0.053       17.783        9.939        0.312      335.737        6.571      856.651
11/10/2014  06:35:00       32.373        2.446        8.793       11.873       19.887       14.293      140.960      395.499      204.292        0.094        0.037       32.465        8.494        0.068      335.948        6.922      856.631
11/10/2014  06:36:00       21.684      -18.069       -5.283       16.543       14.100        7.617      273.661      198.819       58.022        0.068        0.027       28.226        5.128        0.033      336.252        7.427      856.621
11/10/2014  06:37:00      -80.313       17.887       -9.299       48.369       28.833       24.527     2339.590      831.336      601.594        0.531        0.189       82.281       29.595        0.129      336.086        7.151      856.661
11/10/2014  06:38:00      -10.153       18.832       -2.386       29.056       37.119       11.526      844.269     1377.826      132.859        0.141        0.118       21.394       12.933        0.365      336.540        7.911      856.696
11/10/2014  06:39:00       35.502       43.977       11.854       22.638       27.184       20.541      512.467      738.947      421.937        0.250        0.084       56.519       14.793        0.069      336.149        7.259      856.712
11/10/2014  06:40:00       19.967       69.378      -16.693       27.697       27.839       16.619      767.150      775.003      276.188        0.365        0.091       72.194       14.876        0.042      335.843        6.747      856.758
11/10/2014  06:41:00      -76.619       14.280      -15.638       39.165       33.218       11.981     1533.912     1103.421      143.545        0.455        0.139       77.938        8.038        0.011      336.164        7.283      856.748
11/10/2014  06:42:00     -100.061      -38.425      -22.346       30.356       34.089       18.658      921.470     1162.075      348.123        0.721        0.122      107.185       16.419        0.023      335.625        6.385      856.746
11/10/2014  06:43:00      -72.294      -38.812      -19.183       22.172       18.037       12.181      491.604      325.321      148.376        0.403        0.048       82.054        4.266        0.003      335.697        6.504      856.739
11/10/2014  06:44:00     -104.685      -41.915      -16.090       21.838       19.182        9.377      476.891      367.949       87.930        0.695        0.047      112.764        4.930        0.002      336.076        7.136      856.748
11/10/2014  06:45:00     -116.123       -1.442      -26.197       36.852       23.823       16.836     1358.044      567.529      283.457        0.819        0.110      116.132       17.101        0.022      335.998        7.006      856.764
11/10/2014  06:46:00      -68.374      -52.573      -15.106       20.413       36.437        9.398      416.679     1327.652       88.314        0.475        0.092       86.250       10.134        0.014      337.475        9.476      856.746
11/10/2014  06:47:00      -70.934        4.902        2.738       44.488       31.882       27.624     1979.166     1016.457      763.080        0.441        0.188       71.103       22.639        0.101      335.970        6.959      856.762
11/10/2014  06:48:00      -72.818      -25.371      -14.419       24.413       22.772       18.519      596.016      518.547      342.964        0.381        0.073       77.111       14.858        0.037      335.728        6.555      856.789
11/10/2014  06:49:00      -75.903      -48.797      -21.019       36.429       33.935       22.264     1327.041     1151.582      495.690        0.578        0.149       90.235       15.141        0.028      335.856        6.769      856.797
11/10/2014  06:50:00      -96.710      -96.307      -12.816       43.178       33.871       31.810     1864.310     1147.226     1011.900        1.141        0.201      136.484       15.689        0.013      335.774        6.631      856.780
11/10/2014  06:51:00      -57.868      -12.828       -1.273       52.431       47.126       20.705     2748.982     2220.841      428.704        0.446        0.270       59.273       25.904        0.191      336.042        7.078      856.789
11/10/2014  06:52:00     -138.651      -25.305      -22.601       54.449       44.217       21.800     2964.729     1955.171      475.237        1.288        0.270      140.941       29.062        0.043      336.021        7.044      856.808
11/10/2014  06:53:00      -25.320      -13.111       10.583       38.326       34.232       27.338     1468.907     1171.858      747.357        0.216        0.169       28.513       28.471        0.997      335.983        6.980      856.818
11/10/2014  06:54:00      -80.344       24.677       -5.852       34.950       39.447       21.370     1221.510     1556.050      456.662        0.517        0.162       84.048       18.430        0.048      336.179        7.307      856.858
11/10/2014  06:55:00      -41.974      -21.970       -3.740       18.606       22.893       14.236      346.178      524.081      202.663        0.167        0.054       47.376       12.968        0.075      336.751        8.263      856.887
11/10/2014  06:56:00      -90.121      -11.747      -14.219       30.295       21.897       15.187      917.814      479.465      230.644        0.504        0.081       90.883       16.018        0.031      336.115        7.201      856.949
11/10/2014  06:57:00      -71.524      -34.805      -11.732       16.877       18.154       14.692      284.832      329.561      215.851        0.365        0.042       79.543        6.632        0.007      335.965        6.948      857.001
11/10/2014  06:58:00      -50.298      -10.774      -13.160       23.404       12.292        9.938      547.749      151.091       98.756        0.181        0.040       51.439       10.073        0.038      336.364        7.616      857.032
11/10/2014  06:59:00      -64.715       -0.793       -8.683       36.145       28.847       20.931     1306.425      832.122      438.121        0.342        0.129       64.719       22.570        0.122      336.276        7.469      857.081
11/10/2014  07:00:00     -129.612      -22.464      -17.344       39.232       26.034       20.441     1539.170      677.767      417.825        1.012        0.132      131.544       18.748        0.020      335.790        6.659      857.131
11/10/2014  07:01:00      -79.743       24.780        3.329       62.832       53.892       29.776     3947.913     2904.324      886.602        0.736        0.387       83.504       32.740        0.154      335.869        6.790      857.171
11/10/2014  07:02:00       45.370       39.118       13.520       37.962       25.548       17.780     1441.087      652.681      316.118        0.309        0.120       59.906       15.301        0.065      336.188        7.322      857.215
11/10/2014  07:03:00       42.586       42.985      -10.919       29.903       15.982       15.262      894.200      255.422      232.922        0.258        0.069       60.509       13.989        0.053      336.131        7.226      857.269
11/10/2014  07:04:00       30.251       56.228      -15.589       13.131       13.401       13.894      172.418      179.590      193.054        0.243        0.027       63.849        9.304        0.021      336.284        7.483      857.306
11/10/2014  07:05:00       31.023       24.650       -0.176        9.900        7.953        8.150       98.003       63.250       66.431        0.090        0.011       39.624        5.998        0.023      336.338        7.575      857.311
11/10/2014  07:06:00      -29.991       69.488      -18.504       24.109       22.047       11.525      581.263      486.057      132.836        0.364        0.060       75.684       17.100        0.051      336.849        8.427      857.332
11/10/2014  07:07:00        0.918       81.975       -9.528       18.194       13.453       16.814      331.014      180.993      282.724        0.380        0.040       81.980       13.491        0.027      336.902        8.515      857.358
11/10/2014  07:08:00       55.366       54.197       42.072       67.745       64.087       44.147     4589.430     4107.140     1948.915        0.921        0.532       77.478       43.426        0.314      336.423        7.714      857.363
11/10/2014  07:09:00     -117.021       -5.918      -13.224       60.325       48.769       30.352     3639.114     2378.372      921.266        1.042        0.347      117.171       28.635        0.060      336.445        7.750      857.409
11/10/2014  07:10:00      -45.659        5.614        4.387       31.428       28.061       16.858      987.698      787.399      284.191        0.210        0.103       46.002       12.056        0.069      336.256        7.435      857.442
11/10/2014  07:11:00      -69.496       18.633      -21.625       32.740       39.077       10.221     1071.895     1527.026      104.470        0.417        0.135       71.950       13.854        0.037      337.351        9.268      857.452
11/10/2014  07:12:00      -56.663       91.951      -25.888      111.586       86.162       52.537    12451.543     7423.914     2760.121        1.748        1.132      108.008       56.734        0.276      338.387       11.002      857.428
11/10/2014  07:13:00      -59.142      -19.182       13.330       75.770       59.521       30.005     5741.125     3542.790      900.275        0.711        0.509       62.175       41.212        0.439      336.816        8.369      857.421
11/10/2014  07:14:00     -107.981        9.904      -19.750       46.649       50.058       15.104     2176.107     2505.825      228.124        0.853        0.246      108.434       12.619        0.014      336.743        8.251      857.471
11/10/2014  07:15:00       -4.150        2.923        2.974       28.278       39.587       14.398      799.643     1567.147      207.314        0.130        0.129        5.076       13.422        6.991      336.881        8.479      857.489
11/10/2014  07:16:00       38.482       14.987        3.172       33.162       45.439       22.341     1099.715     2064.678      499.109        0.269        0.183       41.297       20.033        0.235      337.257        9.109      857.529
11/10/2014  07:17:00       37.378       25.909       33.126       27.399       21.309       21.901      750.699      454.087      479.638        0.242        0.084       45.479        9.531        0.044      336.702        8.181      857.541
11/10/2014  07:18:00       64.644       28.747       13.870       30.002       23.747       14.928      900.092      563.907      222.839        0.344        0.084       70.747       11.422        0.026      336.795        8.337      857.552
11/10/2014  07:19:00       84.762       66.443       12.560       22.099       19.479       15.404      488.387      379.419      237.285        0.643        0.055      107.700       11.682        0.012      337.340        9.248      857.571
11/10/2014  07:20:00      146.742      121.662       22.738       68.034       57.123       40.803     4628.637     3263.065     1664.916        2.320        0.478      190.617       25.770        0.018      337.199        9.009      857.609
11/10/2014  07:21:00      160.646      107.603       16.558       96.171       66.143       52.186     9248.908     4374.932     2723.382        2.700        0.817      193.353       28.070        0.021      337.424        9.386      857.632
11/10/2014  07:22:00       77.895      175.951      -23.485       77.901       92.772       43.709     6068.583     8606.688     1910.497        2.708        0.829      192.422       48.571        0.064      337.783        9.987      857.652
11/10/2014  07:23:00      -21.390      252.565      -49.441       42.964       51.346       27.297     1845.871     2636.372      745.099        3.596        0.261      253.469       21.502        0.007      338.005       10.359      857.670
11/10/2014  07:24:00     -118.040      190.486      -42.111       57.603       70.311       32.621     3318.065     4943.700     1064.136        3.066        0.466      224.094       32.088        0.021      337.994       10.341      857.672
11/10/2014  07:25:00        9.643      148.813      -15.337       65.014       84.319       35.525     4226.798     7109.732     1261.992        1.753        0.630      149.125       43.728        0.086      337.900       10.186      857.696
11/10/2014  07:26:00       65.187       38.564       21.392       48.630       27.708       22.825     2364.913      767.721      520.976        0.492        0.183       75.740       17.181        0.051      337.676        9.811      857.691
11/10/2014  07:27:00       -7.814       37.337       -5.524       47.690       36.482       26.284     2274.377     1330.900      690.852        0.289        0.215       38.146       25.976        0.464      337.739        9.916      857.719
11/10/2014  07:28:00       59.817      138.709      -15.683       36.501       85.289       39.183     1332.290     7274.188     1535.318        1.660        0.507      151.057       52.061        0.119      337.896       10.178      857.743
11/10/2014  07:29:00       67.525       63.204       12.463       54.124       31.589       33.847     2929.354      997.861     1145.596        0.689        0.254       92.490       24.056        0.068      337.732        9.905      857.747
11/10/2014  07:30:00       95.047       38.883       16.756       47.938       29.949       26.354     2298.078      896.934      694.559        0.736        0.194      102.693       27.701        0.073      337.184        8.986      857.775
11/10/2014  07:31:00       73.832       34.736        4.742       22.809       19.298       21.944      520.266      372.422      481.561        0.403        0.069       81.595       10.909        0.018      337.686        9.826      857.801
11/10/2014  07:32:00       41.075       53.580       -3.210       37.995       25.033       18.467     1443.600      626.651      341.012        0.349        0.121       67.513       17.659        0.068      337.802       10.022      857.815
11/10/2014  07:33:00      -30.235      105.356      -10.853       32.058       37.901       24.881     1027.742     1436.481      619.065        0.761        0.154      109.609       18.500        0.028      338.019       10.386      857.837
11/10/2014  07:34:00       -4.695       86.558      -15.636       65.473       57.064       33.097     4286.667     3256.248     1095.433        0.820        0.432       86.685       24.908        0.083      337.947       10.265      857.869
11/10/2014  07:35:00      -18.033      140.290      -25.244       62.382       88.527       33.577     3891.477     7836.954     1127.397        1.675        0.643      141.444       44.526        0.099      338.091       10.506      857.913
11/10/2014  07:36:00        7.484      151.909      -23.181       52.071       51.594       33.767     2711.361     2661.940     1140.238        1.509        0.326      152.093       22.172        0.021      338.152       10.609      857.942
11/10/2014  07:37:00       18.275       97.134       -7.235       29.894       58.080       26.091      893.681     3373.318      680.735        0.738        0.247       98.838       25.876        0.069      338.141       10.590      857.968
11/10/2014  07:38:00        8.655       68.247      -13.009       61.728       42.606       38.907     3810.398     1815.249     1513.723        0.602        0.357       68.794       37.132        0.291      338.212       10.710      857.983
11/10/2014  07:39:00       35.908       39.352       19.437       52.836       29.918       26.753     2791.676      895.070      715.741        0.381        0.220       53.273       21.755        0.167      338.202       10.692      858.015
11/10/2014  07:40:00       41.875       41.378       18.856       30.072       31.854       29.777      904.314     1014.694      886.675        0.331        0.140       58.870       16.913        0.083      338.184       10.663      858.039
11/10/2014  07:41:00       38.544       35.802       -4.812       39.930       15.852       19.890     1594.368      251.279      395.630        0.252        0.112       52.607       15.321        0.085      338.128       10.569      858.081
11/10/2014  07:42:00       20.061       24.053       24.521       22.993       23.875       32.329      528.678      569.996     1045.195        0.186        0.107       31.321       23.921        0.583      338.296       10.851      858.115
11/10/2014  07:43:00       25.135       46.562       55.821       22.877       30.018       20.609      523.357      901.062      424.713        0.388        0.092       52.913       14.989        0.080      338.175       10.648      858.149
11/10/2014  07:44:00       21.298       67.916       62.950       30.083       37.414       32.333      904.968     1399.808     1045.414        0.619        0.168       71.177       29.535        0.172      338.161       10.625      858.166
11/10/2014  07:45:00       -0.425       22.251       33.437       27.917       24.075       19.283      779.354      579.623      371.830        0.167        0.087       22.255       11.473        0.266      338.271       10.809      858.172
11/10/2014  07:46:00        8.309       34.311       84.113       30.577       56.765       30.342      934.969     3222.260      920.661        0.670        0.254       35.303       33.324        0.891      338.387       11.004      858.201
11/10/2014  07:47:00       27.709      -12.063       44.866       39.223       77.102       40.029     1538.470     5944.651     1602.299        0.600        0.454       30.221       28.357        0.880      338.272       10.810      858.229
11/10/2014  07:48:00       42.843       37.805       78.265       52.200       46.671       34.353     2724.802     2178.142     1180.146        0.774        0.304       57.138       30.033        0.276      338.145       10.598      858.254
11/10/2014  07:49:00       70.039      -37.167       24.444       57.425       89.703       56.048     3297.656     8046.555     3141.402        1.068        0.724       79.290       68.390        0.744      337.881       10.156      858.285
11/10/2014  07:50:00       70.757      -50.725       18.326       41.944       47.584       47.189     1759.263     2264.276     2226.843        0.708        0.313       87.061       27.491        0.100      338.089       10.505      858.295
11/10/2014  07:51:00       32.622      -15.284       51.393       46.607       60.348       38.153     2172.166     3641.874     1455.627        0.560        0.363       36.025       31.268        0.753      338.243       10.763      858.286
11/10/2014  07:52:00       -1.341       48.572       58.693       33.019       31.228       29.186     1090.234      975.164      851.809        0.436        0.146       48.590       25.720        0.280      338.260       10.791      858.315
11/10/2014  07:53:00       40.604      -30.561       19.344       45.356       71.145       36.222     2057.202     5061.663     1312.057        0.569        0.422       50.819       46.651        0.843      338.360       10.960      858.347
11/10/2014  07:54:00       51.144     -153.629      -29.506       84.279       53.846       32.055     7102.905     2899.351     1027.518        1.906        0.551      161.918       33.176        0.042      338.196       10.682      858.324
11/10/2014  07:55:00        7.087      -76.881        3.063       70.451       70.855       40.414     4963.274     5020.399     1633.260        0.879        0.581       77.207       40.492        0.275      338.365       10.965      858.327
11/10/2014  07:56:00      -33.952        9.385       19.270       44.894       20.063       20.647     2015.465      402.540      426.285        0.223        0.142       35.225       14.699        0.174      338.643       11.435      858.382
11/10/2014  07:57:00       -7.590       14.862       14.170       23.947       15.820       19.523      573.480      250.274      381.160        0.084        0.060       16.688       16.203        0.943      338.613       11.384      858.410
11/10/2014  07:58:00       -5.739      -31.091       -3.265       24.703       26.304       17.790      610.259      691.880      316.487        0.131        0.081       31.616       10.719        0.115      338.427       11.071      858.426
11/10/2014  07:59:00      -50.866     -113.259       -7.084       46.959       45.994       29.016     2205.188     2115.424      841.911        1.031        0.258      124.157       17.819        0.021      338.381       10.995      858.438
11/10/2014  08:00:00       -0.785       15.739       70.026       28.905       44.851       27.106      835.514     2011.629      734.748        0.437        0.179       15.759       26.792        2.891      338.757       11.624      858.466
11/10/2014  08:01:00      -40.802      -47.410       18.699       99.125       46.312       34.234     9825.797     2144.837     1171.987        0.870        0.657       62.550       38.452        0.378      338.493       11.181      858.520
11/10/2014  08:02:00       -2.156        7.662       79.755       40.461      122.459       64.192     1637.107    14996.146     4120.550        1.358        1.038        7.959       79.208       99.038      338.609       11.377      858.513
11/10/2014  08:03:00      138.683       87.720       37.302       62.138       36.628       41.220     3861.174     1341.643     1699.070        1.761        0.345      164.097       21.983        0.018      338.404       11.032      858.533
11/10/2014  08:04:00       14.042      -54.126      -19.626       41.198       38.661       31.595     1697.263     1494.688      998.265        0.385        0.210       55.918       14.509        0.067      338.524       11.234      858.547
11/10/2014  08:05:00      -17.480      135.857      -15.043       64.303      123.175       45.859     4134.929    15172.184     2103.063        2.020        1.071      136.977       63.059        0.212      338.496       11.184      858.558
11/10/2014  08:06:00      -34.891      120.133      -12.509      112.864       44.374       44.615    12738.254     1969.085     1990.506        1.625        0.835      125.097       33.968        0.074      338.615       11.385      858.563
11/10/2014  08:07:00       62.022      149.343       25.308       87.350      125.979       82.296     7629.958    15870.681     6772.683        2.853        1.514      161.710       60.334        0.139      338.612       11.380      858.575
11/10/2014  08:08:00       21.213      252.397      -22.427       85.173      133.910       61.999     7254.428    17931.799     3843.815        4.684        1.452      253.287       75.381        0.089      338.553       11.279      858.591
11/10/2014  08:09:00       84.702      125.684       -3.606       65.882       74.170       47.137     4340.378     5501.196     2221.922        1.752        0.603      151.562       49.458        0.106      338.645       11.437      858.600
11/10/2014  08:10:00       84.008      175.450      -13.666       91.593      108.324       66.982     8389.231    11734.021     4486.630        3.131        1.230      194.525       65.544        0.114      338.650       11.443      858.625
11/10/2014  08:11:00      174.388       85.330       30.541       60.843       41.924       39.364     3701.845     1757.646     1549.526        2.282        0.350      194.145       32.129        0.027      338.603       11.364      858.631
11/10/2014  08:12:00       47.984      128.597      130.731       81.551       70.656       63.470     6650.640     4992.203     4028.438        2.580        0.784      137.258       65.902        0.231      338.680       11.494      858.615
11/10/2014  08:13:00      128.369      107.388       52.631       83.541       62.727       67.359     6979.022     3934.696     4537.262        2.311        0.773      167.364       51.432        0.094      338.702       11.530      858.641
11/10/2014  08:14:00      184.328      119.451       24.155       82.330       59.135       55.825     6778.296     3496.930     3116.481        3.111        0.670      219.648       22.969        0.011      338.716       11.553      858.661
11/10/2014  08:15:00      176.397      119.524       19.004      103.023       63.272       57.354    10613.662     4003.361     3289.519        3.183        0.895      213.077       33.629        0.025      338.738       11.592      858.677
11/10/2014  08:16:00      200.146      108.567       18.083       65.115       53.553       51.211     4239.999     2867.960     2622.518        3.095        0.487      227.695       10.345        0.002      338.707       11.538      858.705
11/10/2014  08:17:00       70.061       72.529       34.469       58.585       36.331       35.644     3432.218     1319.951     1270.527        0.869        0.301      100.842       30.179        0.090      338.895       11.858      858.724
11/10/2014  08:18:00      115.652      196.167      -12.956       79.447      132.225       69.990     6311.848    17483.511     4898.618        4.035        1.435      227.721       71.371        0.098      338.789       11.677      858.753
11/10/2014  08:19:00       64.905      193.994      -18.301       62.646       92.903       56.222     3924.460     8630.907     3160.922        2.895        0.786      204.564       48.421        0.056      338.798       11.692      858.768
11/10/2014  08:20:00       63.412      137.254      -20.325       50.230       85.111       39.848     2523.033     7243.799     1587.862        1.731        0.568      151.194       44.913        0.088      338.900       11.866      858.759
11/10/2014  08:21:00      130.820      161.753       -9.077      105.945       90.017       57.725    11224.313     8103.024     3332.210        3.301        1.133      208.034       44.265        0.045      338.831       11.746      858.765
11/10/2014  08:22:00       73.981      105.822      -11.242       72.612       70.625       51.796     5272.534     4987.844     2682.849        1.487        0.647      129.118       36.789        0.081      338.889       11.846      858.772
11/10/2014  08:23:00       98.901      120.209        4.544       70.478       59.319       57.706     4967.127     3518.737     3330.029        1.803        0.591      155.665       40.489        0.068      338.867       11.811      858.776
11/10/2014  08:24:00       79.263      127.483        2.315       68.515       81.049       56.488     4694.253     6568.872     3190.894        1.849        0.723      150.115       51.035        0.116      338.867       11.809      858.778
11/10/2014  08:25:00       65.536       89.035        2.643       76.136       75.829       49.052     5796.749     5750.113     2406.078        1.309        0.698      110.554       42.839        0.150      338.977       11.993      858.792
11/10/2014  08:26:00       47.465      120.112      -14.307       49.576       68.559       40.659     2457.773     4700.268     1653.173        1.285        0.441      129.151       35.065        0.074      338.906       11.876      858.790
11/10/2014  08:27:00      114.400      147.552       -3.055       57.937       67.001       43.873     3356.727     4489.175     1924.883        2.232        0.489      186.706       40.527        0.047      338.902       11.867      858.804
11/10/2014  08:28:00       21.936      184.552      -16.639       54.114       84.423       39.374     2928.352     7127.299     1550.347        2.321        0.580      185.851       43.766        0.055      338.890       11.846      858.804
11/10/2014  08:29:00       91.050      130.518        7.857       90.608       71.856       61.429     8209.740     5163.297     3773.513        2.126        0.857      159.138       46.551        0.086      338.980       11.999      858.814
11/10/2014  08:30:00      202.064      174.069        5.724      117.771       89.130       81.215    13870.109     7944.154     6595.836        4.978        1.421      266.702       54.579        0.042      338.848       11.776      858.832
11/10/2014  08:31:00      298.067      156.270       23.305       89.236       83.063       67.538     7963.088     6899.442     4561.333        6.661        0.971      336.548       33.030        0.010      338.846       11.772      858.835
11/10/2014  08:32:00      166.871      135.963       -3.414       96.187       77.816       49.746     9251.864     6055.345     2474.655        3.206        0.889      215.249       37.423        0.030      338.823       11.735      858.889
11/10/2014  08:33:00       52.293        5.700       14.293       40.998      103.257       37.232     1680.798    10661.914     1386.226        0.835        0.686       52.602       17.011        0.105      338.751       11.617      858.890
11/10/2014  08:34:00       36.054       65.699       91.336       71.125       49.376       32.988     5058.787     2437.965     1088.218        1.127        0.429       74.942       29.522        0.155      338.730       11.581      858.881
11/10/2014  08:35:00       66.923       58.569      100.095       80.675       99.348       66.375     6508.482     9870.009     4405.675        1.935        1.039       88.932       62.816        0.499      338.519       11.225      858.879
11/10/2014  08:36:00       24.714       90.315      132.798       64.321       96.509       60.910     4137.192     9314.037     3709.984        2.178        0.858       93.635       65.416        0.488      338.554       11.283      858.897
11/10/2014  08:37:00       83.404       99.378       84.818       81.122       74.829       61.566     6580.792     5599.386     3790.408        2.000        0.799      129.739       50.425        0.151      338.494       11.182      858.933
11/10/2014  08:38:00       56.227      101.292      109.672       87.655       70.984       53.524     7683.473     5038.733     2864.870        2.052        0.779      115.851       50.949        0.193      338.496       11.186      858.919
11/10/2014  08:39:00      125.800     -165.534      -27.977       77.487      102.475       63.279     6004.193    10501.202     4004.171        3.226        1.025      207.911       59.476        0.082      338.442       11.093      858.908
11/10/2014  08:40:00       61.519      -55.617       36.872       72.506       96.203       87.821     5257.186     9255.049     7712.613        1.523        1.111       82.933       82.042        0.979      338.728       11.576      858.906
11/10/2014  08:41:00       52.212      -32.749       46.912       59.539      114.309       72.464     3544.873    13066.630     5251.082        1.393        1.093       61.633       82.811        1.805      338.886       11.841      858.900
11/10/2014  08:42:00       99.466       84.662       85.238      104.013       64.228       58.732    10818.695     4125.252     3449.396        2.136        0.920      130.618       40.307        0.095      338.728       11.575      858.923
11/10/2014  08:43:00       55.539       29.103      108.567       72.925      130.621       84.732     5318.054    17061.768     7179.568        2.263        1.478       62.703       85.657        1.866      338.587       11.339      858.920
11/10/2014  08:44:00       49.758       21.484       60.835       69.229       92.422       76.301     4792.681     8541.844     5821.869        1.289        0.958       54.198       71.141        1.723      338.693       11.517      858.930
11/10/2014  08:45:00        3.615        7.117       61.362       62.007       88.644       62.667     3844.871     7857.687     3927.129        0.973        0.781        7.983       62.251       60.815      338.695       11.521      858.939
11/10/2014  08:46:00       29.001       -7.387       71.674       65.689      115.859       73.329     4315.049    13423.243     5377.154        1.457        1.156       29.927       81.036        7.332      338.802       11.702      858.938
11/10/2014  08:47:00       75.387      -88.476       54.534       74.746      112.671       64.083     5586.919    12694.855     4106.644        1.943        1.119      116.238       68.764        0.350      338.748       11.609      858.931
11/10/2014  08:48:00       63.799      -16.746       77.034       61.741       90.983       60.809     3811.957     8277.958     3697.690        1.303        0.789       65.961       58.491        0.786      338.826       11.742      858.943
11/10/2014  08:49:00       73.896     -130.661       -6.548       73.465       73.229       46.051     5397.171     5362.535     2120.739        1.773        0.644      150.110       39.196        0.068      338.604       11.366      858.953
11/10/2014  08:50:00        2.939       -1.909       41.150       32.548       82.014       32.456     1059.369     6726.282     1053.420        0.527        0.442        3.505       43.804      156.221      339.105       12.212      858.959
11/10/2014  08:51:00       61.663       58.558       66.604       56.865       49.584       43.081     3233.593     2458.601     1856.000        0.961        0.377       85.037       31.144        0.134      338.883       11.838      858.975
11/10/2014  08:52:00       18.026       43.349       81.801       34.060       51.796       27.365     1160.102     2682.839      748.840        0.674        0.230       46.947       25.829        0.303      339.002       12.038      858.982
11/10/2014  08:53:00       55.501      -78.153       31.823       61.197       87.424       45.008     3745.078     7642.940     2025.759        1.180        0.671       95.855       44.968        0.220      338.899       11.861      858.978
11/10/2014  08:54:00       20.314      -22.477       47.505       53.244       75.024       50.328     2834.876     5628.660     2532.934        0.708        0.550       30.297       23.518        0.603      338.948       11.946      858.977
11/10/2014  08:55:00      101.550      -17.234       54.342       90.654       85.284       64.033     8218.197     7273.395     4100.255        1.657        0.980      103.002       65.634        0.406      338.748       11.610      858.986
11/10/2014  08:56:00      107.331      -17.518       65.646       88.035       96.113       63.774     7750.151     9237.759     4067.163        1.859        1.053      108.752       59.714        0.301      338.676       11.488      858.973
11/10/2014  08:57:00       44.330      -16.566       36.832       69.965       70.489       47.666     4895.097     4968.721     2272.037        0.786        0.607       47.324       52.103        1.212      338.933       11.922      858.966
11/10/2014  08:58:00       59.915        8.095       51.493       76.187       89.101       46.658     5804.431     7938.903     2176.963        1.111        0.796       60.460       39.507        0.427      338.966       11.977      858.964
11/10/2014  08:59:00       51.760       88.218       95.541       53.661       70.487       53.288     2879.495     4968.416     2839.604        1.514        0.534      102.282       42.398        0.172      339.001       12.035      858.984
11/10/2014  09:00:00      106.493       57.065       79.373       98.056       63.840       56.410     9615.031     4075.501     3182.091        1.888        0.844      120.819       53.589        0.197      338.826       11.741      858.981
11/10/2014  09:01:00      141.472      105.434      129.597      117.608       88.979       67.517    13831.565     7917.194     4558.511        3.711        1.315      176.439       72.218        0.168      338.752       11.614      858.997
11/10/2014  09:02:00      104.080       98.185       75.782       79.703       66.397       69.875     6352.574     4408.544     4882.564        2.093        0.782      143.083       56.304        0.155      338.833       11.751      859.033
11/10/2014  09:03:00      143.621       34.695       46.881       75.566       72.109       56.882     5710.219     5199.645     3235.544        1.908        0.707      147.752       49.304        0.111      338.859       11.795      859.052
11/10/2014  09:04:00       59.299       36.571       80.656       97.425       89.702       65.192     9491.624     8046.469     4250.053        1.657        1.089       69.669       64.004        0.844      339.050       12.117      859.069
11/10/2014  09:05:00      103.245      106.658       84.629       80.558       85.052       74.885     6489.669     7233.782     5607.717        2.426        0.967      148.444       59.438        0.160      339.099       12.200      859.077
11/10/2014  09:06:00      211.309       87.913       54.048       96.794       84.387       66.857     9369.134     7121.104     4469.875        3.813        1.048      228.867       56.187        0.060      338.833       11.750      859.090
11/10/2014  09:07:00       84.005       80.746       95.750       90.428       78.317       61.654     8177.240     6133.490     3801.277        2.042        0.906      116.519       63.025        0.293      339.104       12.208      859.103
11/10/2014  09:08:00      124.920      105.712       40.614       63.877       45.034       47.001     4080.213     2028.075     2209.081        1.837        0.416      163.646       26.906        0.027      339.109       12.217      859.111
11/10/2014  09:09:00       44.481       53.464       83.961       71.089       85.671       63.546     5053.635     7339.558     4038.046        1.416        0.822       69.548       65.412        0.885      339.252       12.458      859.120
11/10/2014  09:10:00       77.555      105.140       99.035       97.054       88.578       75.554     9419.455     7846.075     5708.410        2.492        1.149      130.649       70.614        0.292      339.091       12.184      859.120
11/10/2014  09:11:00      217.854      119.973       52.098       67.803       57.442       56.681     4597.231     3299.578     3212.744        3.784        0.555      248.705       29.477        0.014      338.965       11.972      859.135
11/10/2014  09:12:00      195.073      107.402       33.843       56.088       60.917       48.523     3145.810     3710.917     2354.528        2.997        0.461      222.685       28.218        0.016      339.068       12.144      859.133
11/10/2014  09:13:00      158.703      100.070       14.824       61.002       62.460       48.562     3721.279     3901.276     2358.283        2.270        0.499      187.618       25.352        0.018      339.125       12.242      859.133
11/10/2014  09:14:00      191.416      126.669        7.270       97.353       62.811       51.805     9477.526     3945.253     2683.749        3.442        0.805      229.533       36.246        0.025      339.110       12.217      859.130
11/10/2014  09:15:00      218.145      150.168       30.577       84.671       58.863       57.314     7169.223     3464.860     3284.933        4.249        0.696      264.836       29.902        0.013      339.269       12.483      859.120
11/10/2014  09:16:00      248.308      131.950       20.936       64.657       63.338       53.555     4180.557     4011.650     2868.160        4.528        0.553      281.190       32.135        0.013      339.194       12.355      859.142
11/10/2014  09:17:00      111.532      113.620       16.284       98.395       74.402       58.085     9681.598     5535.707     3373.910        2.210        0.930      159.213       42.365        0.071      339.451       12.793      859.159
11/10/2014  09:18:00       34.355       98.468       -0.286       80.059       60.489       50.983     6409.366     3658.973     2599.272        1.177        0.633      104.289       40.039        0.147      339.430       12.758      859.179
11/10/2014  09:19:00      133.163      112.088       13.380      107.427       53.393       40.913    11540.471     2850.835     1673.907        2.327        0.803      174.057       25.176        0.021      339.284       12.510      859.172
11/10/2014  09:20:00      204.975      112.483       34.391       70.570       44.737       54.168     4980.138     2001.402     2934.120        3.288        0.496      233.810       41.221        0.031      339.294       12.527      859.158
11/10/2014  09:21:00       84.856       58.598       29.080       83.785       48.804       63.109     7019.928     2381.850     3982.766        1.243        0.669      103.123       37.911        0.135      339.510       12.893      859.158
11/10/2014  09:22:00       61.276       31.385       32.600       81.065       96.362       49.463     6571.598     9285.631     2446.593        1.205        0.915       68.846       41.030        0.355      339.636       13.105      859.129
11/10/2014  09:23:00      176.849       76.656       40.383       86.431       62.790       63.885     7470.296     3942.569     4081.233        2.714        0.775      192.748       32.322        0.028      339.426       12.748      859.144
11/10/2014  09:24:00       44.976      -69.106       24.010       50.420       89.196       52.744     2542.153     7955.914     2781.942        1.032        0.664       82.453       47.693        0.335      339.723       13.251      859.126
11/10/2014  09:25:00       25.325       38.304       80.175       53.684       85.084       48.352     2881.959     7239.336     2337.929        1.050        0.623       45.920       46.055        1.006      339.814       13.405      859.111
11/10/2014  09:26:00       48.538       55.410       84.352       78.777       82.530       61.080     6205.838     6811.197     3730.803        1.464        0.837       73.663       63.868        0.752      339.746       13.290      859.114
11/10/2014  09:27:00       39.017       32.365       68.450       63.262       82.544       51.178     4002.041     6813.516     2619.230        1.034        0.672       50.693       39.925        0.620      339.742       13.282      859.139
11/10/2014  09:28:00       57.150        0.783       88.711       94.791      108.552       73.126     8985.396    11783.452     5347.408        1.862        1.306       57.155       71.184        1.551      339.871       13.502      859.158
11/10/2014  09:29:00      106.226       41.443      100.718      114.911      180.734       94.661    13204.614    32664.728     8960.697        3.898        2.742      114.024      125.215        1.206      339.364       12.642      859.174
11/10/2014  09:30:00       67.140      -45.837       69.725       74.405      107.619       71.780     5536.104    11581.818     5152.398        1.687        1.114       81.294       72.601        0.798      339.683       13.184      859.172
11/10/2014  09:31:00       58.012       22.626       86.115       68.644      101.885       67.456     4711.971    10380.647     4550.266        1.546        0.982       62.268       49.205        0.624      339.820       13.414      859.187
11/10/2014  09:32:00       32.271        6.659       49.420       74.609       52.823       50.113     5566.556     2790.290     2511.359        0.720        0.543       32.951       28.002        0.722      339.782       13.350      859.186
11/10/2014  09:33:00       75.438       21.628       41.279       76.706       60.612       38.192     5883.838     3673.864     1458.643        0.944        0.551       78.477       32.078        0.167      339.709       13.228      859.197
11/10/2014  09:34:00       60.191       50.083       31.579       72.205       51.844       45.440     5213.626     2687.829     2064.775        0.855        0.498       78.302       41.290        0.278      339.853       13.473      859.192
11/10/2014  09:35:00       78.848      -69.550       12.990       63.256      120.102       49.528     4001.335    14424.482     2453.008        1.605        1.044      105.139       61.812        0.346      339.619       13.076      859.203
11/10/2014  09:36:00       43.377       17.721       35.550       34.751       71.276       33.382     1207.639     5080.325     1114.357        0.543        0.370       46.857       34.716        0.549      339.758       13.313      859.207
11/10/2014  09:37:00       49.632       41.345       55.280       41.659       49.666       34.176     1735.482     2466.670     1168.012        0.630        0.269       64.597       28.156        0.190      340.127       13.933      859.213
11/10/2014  09:38:00       25.896       32.019       12.381       39.695       27.715       17.637     1575.683      768.106      311.055        0.225        0.133       41.180       21.562        0.274      339.751       13.300      859.223
11/10/2014  09:39:00       79.207       59.920       38.665       60.668       23.463       29.739     3680.635      550.520      884.405        0.824        0.256       99.319       23.728        0.057      339.780       13.348      859.219
11/10/2014  09:40:00      105.542       51.730       32.277       42.216       32.485       31.669     1782.210     1055.292     1002.955        0.935        0.192      117.538       17.504        0.022      339.641       13.112      859.219
11/10/2014  09:41:00      128.567       95.495       18.632       60.059       49.563       42.020     3607.083     2456.463     1765.641        1.691        0.391      160.152       28.854        0.032      339.888       13.529      859.243
11/10/2014  09:42:00      112.072       95.202       58.697      133.024       68.895       55.021    17695.342     4746.576     3027.325        2.526        1.273      147.050       38.360        0.068      340.033       13.773      859.256
11/10/2014  09:43:00      129.546      109.239       44.701       53.126       54.638       53.884     2822.333     2985.359     2903.526        1.971        0.436      169.456       28.639        0.029      339.953       13.639      859.272
11/10/2014  09:44:00       68.181       75.672       57.754       54.160       50.120       46.840     2933.298     2512.037     2193.958        1.067        0.382      101.858       35.926        0.124      339.922       13.588      859.293
11/10/2014  09:45:00       88.855       72.294       27.718       83.826       62.118       53.793     7026.763     3858.674     2893.636        1.383        0.689      114.550       24.349        0.045      339.903       13.554      859.289
11/10/2014  09:46:00       35.553        1.100       21.839       59.930       62.501       49.032     3591.570     3906.385     2404.165        0.582        0.495       35.570       26.270        0.545      339.976       13.678      859.283
11/10/2014  09:47:00      104.277       87.561       20.340       75.157       62.359       57.508     5648.602     3888.673     3307.124        1.590        0.642      136.164       42.376        0.097      339.961       13.653      859.281
11/10/2014  09:48:00      173.554       86.882       22.922       94.366       73.139       83.907     8904.855     5349.316     7040.341        2.974        1.065      194.086       62.623        0.104      339.917       13.577      859.276
11/10/2014  09:49:00      189.010      140.303       68.541      115.824       89.848       71.250    13415.201     8072.682     5076.579        4.333        1.328      235.392       55.057        0.055      339.710       13.226      859.257
11/10/2014  09:50:00      150.907      102.739       53.068       96.357       67.183       69.402     9284.707     4513.542     4816.668        2.738        0.931      182.561       49.264        0.073      339.845       13.456      859.257
11/10/2014  09:51:00      212.540      124.772       39.714      104.390       81.978       58.176    10897.331     6720.470     3384.449        4.166        1.050      246.457       35.334        0.021      339.561       12.977      859.253
11/10/2014  09:52:00      113.661      121.616       47.015       79.406       59.449       74.545     6305.320     3534.154     5556.972        2.266        0.770      166.461       41.909        0.063      339.836       13.439      859.263
11/10/2014  09:53:00      157.240      171.607      141.982      134.911      114.513      104.378    18200.957    13113.262    10894.712        5.826        2.110      232.752       96.804        0.173      339.667       13.154      859.271
11/10/2014  09:54:00      152.059       99.108       85.452      126.089      104.432       93.417    15898.479    10906.137     8726.749        3.788        1.777      181.506       81.181        0.200      339.773       13.335      859.280
11/10/2014  09:55:00      252.721      198.557       25.701      131.092       95.491       77.607    17185.020     9118.483     6022.871        6.813        1.616      321.391       55.381        0.030      339.717       13.238      859.351
11/10/2014  09:56:00      250.044      176.825       40.195      112.703       82.943       81.012    12701.890     6879.503     6562.898        6.077        1.307      306.251       38.861        0.016      339.717       13.238      859.373
11/10/2014  09:57:00      328.644      166.299       46.317      147.972       83.234       79.404    21895.754     6927.944     6305.008        8.646        1.756      368.323       37.886        0.011      339.534       12.929      859.389
11/10/2014  09:58:00      288.284      174.047       54.085      132.460       82.184       71.606    17545.673     6754.283     5127.450        7.287        1.471      336.750       67.907        0.041      339.616       13.068      859.412
11/10/2014  09:59:00      162.822      105.864       18.585       88.936       62.816       53.089     7909.660     3945.835     2818.431        2.637        0.734      194.212       25.383        0.017      339.782       13.348      859.437
11/10/2014  10:00:00      148.030       97.072       17.345       84.312       52.445       46.177     7108.567     2750.438     2132.346        2.181        0.600      177.019       33.395        0.036      339.923       13.587      859.447
11/10/2014  10:01:00      103.979      116.867        9.050       84.653       87.561       67.271     7166.065     7666.927     4525.393        2.195        0.968      156.427       54.125        0.120      339.822       13.418      859.448
11/10/2014  10:02:00      105.746      128.939       -1.841       97.221       93.153       51.946     9451.862     8677.464     2698.359        2.432        1.041      166.756       39.588        0.056      339.905       13.557      859.434
11/10/2014  10:03:00      233.978      147.627       19.753      122.078      110.352       80.564    14902.920    12177.674     6490.614        5.524        1.679      276.657       60.649        0.048      339.901       13.550      859.423
11/10/2014  10:04:00      236.347      117.813       43.923      141.284      101.339       73.751    19961.160    10269.630     5439.149        5.366        1.783      264.083       59.292        0.050      339.817       13.408      859.413
11/10/2014  10:05:00       95.301      130.541        4.642       86.552       77.220       59.099     7491.164     5962.973     3492.720        2.154        0.847      161.626       45.620        0.080      339.913       13.570      859.414
11/10/2014  10:06:00       94.449      126.833       -3.162       65.857       81.178       45.140     4337.142     6589.927     2037.646        1.899        0.648      158.137       40.666        0.066      340.178       14.018      859.398
11/10/2014  10:07:00       79.037      137.920       -9.643       82.589       89.439       61.540     6820.883     7999.252     3787.136        2.198        0.930      158.962       54.431        0.117      339.851       13.467      859.405
11/10/2014  10:08:00       57.138      121.783       -6.424       47.718       98.420       56.735     2277.012     9686.485     3218.915        1.666        0.759      134.521       61.801        0.211      339.798       13.377      859.400
11/10/2014  10:09:00      108.786      117.292       69.558       95.552       69.591       85.568     9130.261     4842.926     7321.933        2.586        1.065      159.974       73.336        0.210      340.073       13.841      859.385
11/10/2014  10:10:00      291.113      201.030       30.939       97.539       89.375       75.037     9513.872     7987.882     5630.492        7.462        1.157      353.779       43.837        0.015      339.686       13.184      859.397
11/10/2014  10:11:00      185.674      106.512       41.062       79.065       59.556       52.795     6251.315     3546.881     2787.341        3.004        0.629      214.056       26.712        0.016      339.881       13.517      859.427
11/10/2014  10:12:00       80.826      198.747      -29.879       77.145      122.974       49.211     5951.407    15122.579     2421.718        3.521        1.175      214.554       55.472        0.067      339.816       13.406      859.426
11/10/2014  10:13:00      141.465       87.171       30.801      149.425       70.626       67.860    22327.798     4988.041     4605.039        3.023        1.596      166.166       51.854        0.097      339.820       13.412      859.408
11/10/2014  10:14:00       65.877      120.030        2.288       64.364       77.710       52.220     4142.689     6038.912     2726.913        1.583        0.645      136.919       41.960        0.094      339.791       13.365      859.413
11/10/2014  10:15:00      146.374      106.478       33.632       85.835       81.988       54.022     7367.583     6722.007     2918.363        2.545        0.850      181.005       33.375        0.034      339.801       13.381      859.385
11/10/2014  10:16:00      142.281      115.005       79.545      107.650      101.660       85.823    11588.472    10334.677     7365.623        3.454        1.464      182.948       69.009        0.142      339.968       13.663      859.374
11/10/2014  10:17:00       70.485       96.321       59.535       95.039       64.056       78.226     9032.423     4103.191     6119.238        1.852        0.963      119.356       59.579        0.249      339.931       13.602      859.380
11/10/2014  10:18:00      153.156      100.178       30.682       66.884       41.056       39.041     4473.477     1685.593     1524.208        2.106        0.384      183.009       25.297        0.019      339.800       13.380      859.379
11/10/2014  10:19:00       87.829       66.767       18.394       53.001       34.391       42.063     2809.094     1182.730     1769.274        0.913        0.288      110.326       18.955        0.030      340.097       13.884      859.389
11/10/2014  10:20:00      143.622       78.189       37.798       60.838       55.606       43.651     3701.216     3091.974     1905.403        1.843        0.435      163.526       14.839        0.008      340.057       13.814      859.399
11/10/2014  10:21:00      239.997      124.481       44.670       69.272       56.226       54.480     4798.662     3161.366     2968.070        4.301        0.546      270.359       34.880        0.017      339.776       13.340      859.388
11/10/2014  10:22:00      184.416      115.948       55.563      138.809       91.024       88.930    19268.075     8285.334     7908.580        4.299        1.773      217.837       77.831        0.128      339.887       13.526      859.378
11/10/2014  10:23:00      234.115      141.792       23.384      125.880       78.820       68.919    15845.778     6212.568     4749.891        5.113        1.340      273.705       48.250        0.031      340.055       13.808      859.381
11/10/2014  10:24:00      242.356       71.469       35.465      172.265      180.380       84.344    29675.259    32537.051     7113.888        6.720        3.466      252.674       63.998        0.064      339.709       13.227      859.381
11/10/2014  10:25:00      144.911      116.561       18.733       77.119       74.765       64.132     5947.372     5589.801     4112.884        2.529        0.783      185.972       34.086        0.034      339.872       13.500      859.407
11/10/2014  10:26:00      139.554       79.928        9.948       71.392       42.287       46.989     5096.789     1788.190     2207.958        1.753        0.455      160.822       27.739        0.030      339.770       13.329      859.432
11/10/2014  10:27:00       98.417       83.546        0.840       79.563       56.838       44.524     6330.300     3230.512     1982.375        1.410        0.577      129.096       23.871        0.034      339.636       13.104      859.426
11/10/2014  10:28:00       80.575      102.984       -1.305       56.384       62.439       45.141     3179.107     3898.671     2037.748        1.311        0.456      130.759       33.147        0.064      340.102       13.892      859.431
11/10/2014  10:29:00      102.908      115.402       13.760       67.032       73.749       60.143     4493.246     5438.956     3617.171        1.882        0.677      154.621       43.433        0.079      340.110       13.903      859.448
11/10/2014  10:30:00       92.655      142.207       -9.741       59.150       61.556       46.427     3498.710     3789.082     2155.487        1.917        0.472      169.729       40.206        0.056      339.826       13.424      859.444
11/10/2014  10:31:00       38.130      167.394      -26.210       32.323       65.879       25.840     1044.766     4340.093      667.688        1.811        0.303      171.682       31.747        0.034      339.726       13.255      859.433
11/10/2014  10:32:00       64.433       90.384       20.116       79.667       76.418       47.897     6346.850     5839.733     2294.142        1.360        0.724      110.999       45.724        0.170      340.199       14.054      859.414
11/10/2014  10:33:00      127.551      110.327       11.994       60.156       58.917       51.538     3618.748     3471.195     2656.127        1.916        0.487      168.645       28.211        0.028      340.084       13.859      859.388
11/10/2014  10:34:00       67.231       61.809       19.929       67.730       55.683       41.769     4587.343     3100.589     1744.641        0.908        0.472       91.326       30.068        0.108      340.303       14.231      859.358
11/10/2014  10:35:00       99.915       67.675       24.443       93.372       52.540       46.072     8718.414     2760.406     2122.600        1.438        0.680      120.677       50.400        0.174      340.107       13.900      859.339
11/10/2014  10:36:00      162.004      113.814       33.294       97.973       67.864       45.213     9598.754     4605.516     2044.245        2.827        0.812      197.987       42.458        0.046      339.890       13.531      859.328
11/10/2014  10:37:00      106.607      107.376       17.225       78.007       84.521       64.093     6085.128     7143.739     4107.907        2.026        0.867      151.310       54.151        0.128      340.062       13.822      859.304
11/10/2014  10:38:00      261.306      182.936       22.400       96.058       78.793       62.126     9227.141     6208.354     3859.693        6.077        0.965      318.977       20.753        0.004      339.955       13.640      859.309
11/10/2014  10:39:00      242.911      125.430        7.564       84.922       65.963       58.183     7211.741     4351.067     3385.228        4.487        0.747      273.384       17.423        0.004      339.895       13.538      859.328
11/10/2014  10:40:00       55.011       33.065       13.061       55.362       38.993       36.276     3064.921     1520.456     1315.913        0.509        0.295       64.183       19.154        0.089      339.999       13.718      859.313
11/10/2014  10:41:00       78.101       68.709       39.186       60.420       52.054       53.524     3650.629     2709.635     2864.832        1.079        0.461      104.022       40.714        0.153      340.267       14.168      859.294
11/10/2014  10:42:00      117.509      147.394       16.492       84.761       74.877       62.078     7184.463     5606.605     3853.724        2.622        0.832      188.503       41.015        0.047      340.175       14.012      859.303
11/10/2014  10:43:00      187.910      160.733       35.408      101.486       64.181       77.394    10299.326     4119.232     5989.895        4.140        1.020      247.275       41.580        0.028      340.310       14.238      859.281
11/10/2014  10:44:00       96.160       92.512       66.252      111.426       55.888       72.833    12415.792     3123.476     5304.650        2.152        1.042      133.436       65.048        0.238      340.418       14.423      859.278
11/10/2014  10:45:00       21.691      208.946      -32.746       67.082      106.875       46.695     4500.028    11422.245     2180.444        3.165        0.905      210.069       53.921        0.066      339.910       13.565      859.305
11/10/2014  10:46:00      -14.790      154.458      -32.768       49.937       40.582       24.516     2493.687     1646.933      601.010        1.494        0.237      155.164       18.463        0.014      339.832       13.436      859.306
11/10/2014  10:47:00       22.729      121.197      -20.407       25.514       25.988       21.520      650.939      675.360      463.095        0.871        0.089      123.310       13.068        0.011      339.994       13.709      859.293
11/10/2014  10:48:00       36.270      138.368      -19.168       56.700       57.781       33.170     3214.936     3338.634     1100.273        1.424        0.383      143.043       30.851        0.047      340.224       14.097      859.315
11/10/2014  10:49:00       51.091      220.377      -35.122       50.074       50.144       35.090     2507.452     2514.405     1231.281        2.933        0.313      226.222       30.004        0.018      339.929       13.596      859.335
11/10/2014  10:50:00       37.631      124.053       -5.004       51.189       99.717       48.726     2620.331     9943.430     2374.184        1.588        0.747      129.636       64.160        0.245      339.973       13.672      859.316
11/10/2014  10:51:00       78.264      164.640       -5.427       60.615       71.664       53.412     3674.176     5135.664     2852.867        2.246        0.583      182.295       48.342        0.070      340.253       14.144      859.311
11/10/2014  10:52:00        9.232      126.006      -21.126       70.950       57.587       31.286     5033.915     3316.231      978.799        1.287        0.466      126.344       32.793        0.067      340.220       14.089      859.318
11/10/2014  10:53:00      -58.183       52.093       -5.050       37.280       28.336       26.697     1389.788      802.930      712.704        0.451        0.145       78.096        9.408        0.015      340.392       14.380      859.300
11/10/2014  10:54:00      -28.948       89.402        2.397       37.335       49.345       37.603     1393.922     2434.958     1414.008        0.704        0.262       93.972       33.477        0.127      340.356       14.319      859.295
11/10/2014  10:55:00       89.526       76.992       19.948       70.738       47.927       41.522     5003.934     2296.991     1724.105        1.168        0.451      118.080       25.119        0.045      340.373       14.349      859.274
11/10/2014  10:56:00      124.791       83.372       11.784       64.009       47.251       46.564     4097.211     2232.645     2168.245        1.558        0.425      150.079       13.312        0.008      340.403       14.399      859.265
11/10/2014  10:57:00       50.967       47.784       26.282       55.194       59.216       48.269     3046.431     3506.539     2329.905        0.723        0.444       69.864       36.710        0.276      340.759       15.001      859.263
11/10/2014  10:58:00      110.447       93.996       39.687       93.667       74.911       67.471     8773.542     5611.641     4552.400        2.077        0.947      145.031       41.260        0.081      340.530       14.611      859.274
11/10/2014  10:59:00       33.838       78.042       85.092       55.395       60.218       55.085     3068.629     3626.171     3034.393        1.210        0.486       85.062       44.807        0.277      340.486       14.539      859.249
11/10/2014  11:00:00       89.548       73.581       27.262       59.793       35.816       41.240     3575.234     1282.766     1700.734        1.037        0.328      115.901       11.942        0.011      340.367       14.339      859.247
11/10/2014  11:01:00       75.190       90.404       34.305       73.374       38.124       43.334     5383.804     1453.427     1877.842        1.186        0.436      117.586       27.833        0.056      340.484       14.537      859.243
11/10/2014  11:02:00      201.064      125.660       34.475      114.724       85.207       69.171    13161.634     7260.269     4784.560        4.130        1.260      237.102       31.934        0.018      340.316       14.249      859.246
11/10/2014  11:03:00      280.283      173.077       10.522       79.933       67.706       62.877     6389.344     4584.045     3953.502        6.177        0.746      329.415       35.152        0.011      340.070       13.832      859.252
11/10/2014  11:04:00      196.271      108.287       26.061      133.621       81.350       67.336    17854.696     6617.857     4534.087        3.996        1.450      224.161       60.550        0.073      340.350       14.308      859.248
11/10/2014  11:05:00       91.673       79.842        7.279       80.088       70.990       46.014     6414.070     5039.594     2117.327        1.420        0.679      121.568       35.188        0.084      340.571       14.683      859.240
11/10/2014  11:06:00      102.994       74.907       26.208      100.433       65.105       51.336    10086.805     4238.695     2635.433        1.693        0.848      127.353       26.021        0.042      340.536       14.623      859.247
11/10/2014  11:07:00      227.437      133.774       18.951      108.091       76.407       50.629    11683.663     5838.002     2563.297        4.503        1.004      263.862       26.930        0.010      340.032       13.769      859.258
11/10/2014  11:08:00       26.993       67.728       75.767       98.898       77.276       50.329     9780.745     5971.648     2533.037        1.467        0.914       72.909       54.112        0.551      340.477       14.524      859.242
11/10/2014  11:09:00       35.262       97.513       96.417       59.612       59.448       58.732     3553.645     3534.088     3449.462        1.529        0.527      103.693       47.090        0.206      340.313       14.247      859.258
11/10/2014  11:10:00       27.828       73.674      100.734       68.741       61.991       50.182     4725.284     3842.925     2518.280        1.372        0.554       78.754       46.664        0.351      340.448       14.475      859.267
11/10/2014  11:11:00      101.640      105.461       98.684       93.176       98.558       59.218     8681.775     9713.714     3506.826        2.654        1.095      146.468       57.999        0.157      340.470       14.509      859.265
11/10/2014  11:12:00      130.771      102.213       53.119      118.383       80.723       61.710    14014.548     6516.227     3808.093        2.735        1.217      165.978       47.004        0.080      340.592       14.717      859.271
11/10/2014  11:13:00      180.018      104.220       41.616       88.719       66.300       58.835     7871.116     4395.642     3461.599        3.036        0.786      208.010       45.801        0.048      340.375       14.348      859.289
11/10/2014  11:14:00      107.864       81.069       25.871       76.361       46.492       44.276     5831.065     2161.522     1960.328        1.441        0.498      134.933       24.694        0.033      340.450       14.477      859.279
11/10/2014  11:15:00       30.028       46.953       45.655       55.360       57.216       47.096     3064.707     3273.708     2218.048        0.687        0.428       55.735       35.480        0.405      340.895       15.232      859.257
11/10/2014  11:16:00       87.517       69.054       16.392       54.490       34.902       33.266     2969.212     1218.175     1106.651        0.899        0.265      111.480       19.594        0.031      340.480       14.528      859.239
11/10/2014  11:17:00      124.596       76.457       56.314       97.438       70.927       56.808     9494.105     5030.650     3227.160        2.114        0.888      146.185       43.062        0.087      340.628       14.778      859.217
11/10/2014  11:18:00      205.063      151.410       15.937      136.049      105.190       69.100    18509.358    11064.870     4774.746        4.978        1.717      254.904       50.915        0.040      340.615       14.755      859.199
11/10/2014  11:19:00       65.085      156.873       -5.932       67.270      125.424       63.587     4525.257    15731.107     4043.338        2.659        1.215      169.839       75.434        0.197      340.385       14.368      859.197
11/10/2014  11:20:00       86.955      167.425      -20.919       61.136       92.746       50.982     3737.558     8601.807     2599.195        2.548        0.747      188.659       50.725        0.072      340.231       14.107      859.198
11/10/2014  11:21:00       88.135      144.021        1.644      112.303       72.137       55.245    12611.951     5203.755     3052.063        2.469        1.043      168.849       62.567        0.137      340.158       13.983      859.177
11/10/2014  11:22:00      100.222      110.773      -10.275       83.062       55.886       48.440     6899.272     3123.296     2346.398        1.739        0.618      149.382       29.694        0.040      340.399       14.392      859.151
11/10/2014  11:23:00       70.195       75.196       -0.236       65.328       65.571       43.266     4267.695     4299.520     1871.945        1.051        0.522      102.868       41.397        0.162      340.416       14.421      859.144
11/10/2014  11:24:00       67.264       75.839       17.825       61.959       33.691       25.481     3838.875     1135.057      649.256        0.811        0.281      101.371       18.082        0.032      340.207       14.068      859.132
11/10/2014  11:25:00      100.571       90.097        5.328       40.096       35.619       44.452     1607.687     1268.723     1975.989        1.156        0.243      135.026       13.599        0.010      340.503       14.568      859.103
11/10/2014  11:26:00      204.311      134.449       29.626      127.989       80.148       66.814    16381.076     6423.731     4464.115        4.398        1.363      244.580       49.389        0.041      340.338       14.288      859.102
11/10/2014  11:27:00      173.708      109.443       43.024       99.308       76.750       79.893     9862.082     5890.501     6382.937        3.306        1.107      205.310       59.847        0.085      340.372       14.344      859.097
11/10/2014  11:28:00      184.330      137.129       70.372      114.933       64.073       65.658    13209.695     4105.394     4310.964        3.968        1.081      229.743       47.542        0.043      340.469       14.507      859.093
11/10/2014  11:29:00      247.071      155.773       50.391       90.488       90.753       66.655     8188.152     8236.065     4442.856        5.435        1.043      292.077       24.368        0.007      340.148       13.965      859.106
11/10/2014  11:30:00      186.213      126.339       83.806      132.744       96.314       79.919    17621.087     9276.372     6387.000        4.547        1.664      225.026       60.032        0.071      340.326       14.267      859.084
11/10/2014  11:31:00       81.639      170.330      145.784      138.360      130.602      124.421    19143.378    17056.811    15480.608        5.430        2.584      188.884      102.782        0.296      340.484       14.533      859.028
11/10/2014  11:32:00      204.693      176.781       26.061      133.959      120.954       75.255    17945.003    14629.953     5663.245        5.603        1.912      270.464       51.387        0.036      340.404       14.398      859.056
11/10/2014  11:33:00      181.892      122.847       36.448      105.380       80.209       58.345    11104.941     6433.507     3404.132        3.522        1.047      219.491       45.778        0.043      340.451       14.479      859.051
11/10/2014  11:34:00       45.961      272.202      -44.736       66.691       93.929       43.230     4447.713     8822.626     1868.810        4.667        0.757      276.055       37.529        0.018      340.211       14.070      859.054
11/10/2014  11:35:00      106.914      189.710        3.167      131.695      104.537       74.118    17343.580    10927.904     5493.412        4.059        1.688      217.762       63.198        0.084      340.508       14.575      859.036
11/10/2014  11:36:00      122.797      212.627        0.793      105.684      143.395       86.529    11169.152    20562.210     7487.203        4.975        1.961      245.539       90.799        0.137      340.471       14.512      859.029
11/10/2014  11:37:00       96.816      250.055      -18.855       80.625      135.182       72.425     6500.316    18274.066     5245.312        5.113        1.501      268.143       75.878        0.080      340.311       14.241      859.017
11/10/2014  11:38:00       85.433      214.925      -16.523       87.448      123.232       65.415     7647.124    15186.143     4279.144        4.043        1.356      231.282       62.798        0.074      340.492       14.547      859.018
11/10/2014  11:39:00       73.868      211.007      -38.059       64.576       93.457       49.305     4170.095     8734.265     2430.945        3.338        0.767      223.563       48.827        0.048      340.407       14.403      859.000
11/10/2014  11:40:00        4.960      235.927      -44.882       30.875       76.246       30.101      953.293     5813.422      906.048        3.269        0.384      235.979       37.005        0.025      340.014       13.739      858.999
11/10/2014  11:41:00       72.200      124.332       -2.394      110.223       50.988       47.544    12149.176     2599.806     2260.448        1.884        0.850      143.775       35.909        0.062      340.462       14.498      858.996
11/10/2014  11:42:00      151.562      109.972       47.875      105.002       65.219       60.702    11025.508     4253.525     3684.792        2.816        0.948      187.256       58.917        0.099      340.409       14.406      858.981
11/10/2014  11:43:00      103.412       78.279       39.048       65.844       64.801       51.133     4335.476     4199.228     2614.596        1.475        0.557      129.698       31.900        0.060      340.523       14.601      858.972
11/10/2014  11:44:00      178.068      114.435       71.145       86.224       85.055       83.362     7434.522     7234.292     6949.255        3.574        1.081      211.669       60.044        0.080      340.378       14.355      858.955
11/10/2014  11:45:00      110.040       58.162       56.083       92.246       98.453       61.010     8509.297     9692.979     3722.166        2.028        1.096      124.465       40.193        0.104      340.590       14.713      858.935
11/10/2014  11:46:00       67.930      121.992      114.121       96.567       58.889       61.333     9325.184     3467.968     3761.721        2.453        0.828      139.630       48.597        0.121      340.438       14.457      858.914
11/10/2014  11:47:00      152.282       72.110       84.342      155.786      102.585       66.267    24269.400    10523.638     4391.347        3.734        1.959      168.492       65.908        0.153      340.567       14.673      858.882
11/10/2014  11:48:00      154.829      172.453        1.206      113.645       98.824       68.960    12915.251     9766.186     4755.509        4.057        1.372      231.759       53.975        0.054      340.537       14.624      858.894
11/10/2014  11:49:00      245.601      135.867       29.684       79.285       63.462       49.832     6286.185     4027.452     2483.262        4.623        0.640      280.677       39.781        0.020      340.367       14.335      858.902
11/10/2014  11:50:00      223.112      127.808       21.807       70.420       63.053       52.292     4959.035     3975.666     2734.474        3.913        0.583      257.126        8.481        0.001      340.151       13.972      858.898
11/10/2014  11:51:00      197.031       94.502       19.558      135.411       87.745       65.258    18336.230     7699.270     4258.559        3.921        1.515      218.522       20.226        0.009      340.404       14.398      858.876
11/10/2014  11:52:00       92.756      150.862      -15.252       54.167       80.875       54.657     2934.102     6540.843     2987.348        2.203        0.623      177.096       53.904        0.093      340.538       14.626      858.902
11/10/2014  11:53:00      154.699      121.733       24.550       91.169       57.927       58.081     8311.865     3355.511     3373.378        2.719        0.752      196.853       40.135        0.042      340.482       14.530      858.911
11/10/2014  11:54:00       98.107       84.511        0.470       77.969       58.122       34.179     6079.171     3378.219     1168.177        1.369        0.531      129.488       22.904        0.031      340.611       14.751      858.902
11/10/2014  11:55:00      115.589       95.692       18.060       62.982       51.218       39.130     3966.774     2623.251     1531.159        1.548        0.406      150.059       25.228        0.028      340.638       14.797      858.880
11/10/2014  11:56:00       59.069       60.566       65.436       58.809       44.419       50.410     3458.516     1973.005     2541.189        0.970        0.399       84.601       25.560        0.091      340.736       14.962      858.874
11/10/2014  11:57:00      143.390      119.545       10.188       91.963       59.904       64.643     8457.243     3588.503     4178.670        2.559        0.811      186.686       44.458        0.057      340.597       14.724      858.855
11/10/2014  11:58:00       80.648      199.218      -22.478       81.850      114.389       47.165     6699.458    13084.947     2224.545        3.435        1.100      214.923       48.144        0.050      340.519       14.594      858.865
11/10/2014  11:59:00      110.148      181.179       -6.941       91.001      116.079       63.000     8281.217    13474.250     3969.035        3.536        1.286      212.034       62.463        0.087      340.402       14.396      858.868
11/10/2014  12:00:00       55.782      223.873      -23.932       76.413      121.123       64.941     5838.916    14670.682     4217.337        3.926        1.236      230.718       72.900        0.100      340.410       14.408      858.869
11/10/2014  12:01:00       73.337      159.205      -15.025       91.083      116.075       56.479     8296.140    13473.366     3189.884        2.795        1.248      175.284       50.098        0.082      340.242       14.126      858.870
11/10/2014  12:02:00       -5.409       46.107        5.308       53.098       48.132       27.695     2819.450     2316.687      767.003        0.404        0.295       46.423       11.359        0.060      340.600       14.732      858.870
11/10/2014  12:03:00       83.588       38.476        6.812       54.806       32.782       33.673     3003.691     1074.635     1133.883        0.686        0.261       92.019        8.876        0.009      340.504       14.570      858.853
11/10/2014  12:04:00       84.088       69.885       42.038       36.387       43.031       32.761     1324.049     1851.686     1073.262        0.898        0.212      109.338       14.213        0.017      340.487       14.542      858.814
11/10/2014  12:05:00      146.586       50.335       15.998       82.202       65.953       49.041     6757.231     4349.785     2405.007        1.889        0.676      154.987       34.154        0.049      340.621       14.767      858.791
11/10/2014  12:06:00      187.014      138.355       65.239      133.410       89.842       63.780    17798.350     8071.547     4067.894        4.415        1.497      232.629       34.508        0.022      340.519       14.591      858.770
11/10/2014  12:07:00      196.677      124.544       44.547      106.875       87.027       49.601    11422.370     7573.662     2460.226        3.881        1.073      232.794       36.742        0.025      340.393       14.379      858.774
11/10/2014  12:08:00      126.255       82.843       29.214       52.102       44.526       56.941     2714.662     1982.535     3242.324        1.580        0.397      151.008       31.626        0.044      340.491       14.549      858.764
11/10/2014  12:09:00       65.806       83.904        5.521       66.274       48.599       41.045     4392.186     2361.859     1684.652        0.992        0.422      106.632       31.503        0.087      340.852       15.158      858.763
11/10/2014  12:10:00       42.773      291.646      -60.418       59.900       83.576       35.874     3587.961     6984.927     1286.969        5.120        0.593      294.765       40.265        0.019      340.415       14.415      858.750
11/10/2014  12:11:00       37.905      201.283      -22.867       56.538       88.000       50.282     3196.602     7743.980     2528.289        2.797        0.673      204.821       56.184        0.075      340.407       14.403      858.745
11/10/2014  12:12:00       45.254      120.908       -7.161       53.408       76.140       44.573     2852.399     5797.316     1986.771        1.368        0.532      129.099       48.921        0.144      340.477       14.523      858.742
11/10/2014  12:13:00       94.722       49.103       28.986       77.345       47.232       33.602     5982.176     2230.852     1129.106        1.078        0.467      106.692       33.648        0.099      340.556       14.659      858.715
11/10/2014  12:14:00      127.754       92.097       19.591       86.705       48.474       43.787     7517.795     2349.748     1917.263        1.848        0.589      157.489       24.798        0.025      340.649       14.816      858.671
11/10/2014  12:15:00      111.104      110.892        2.883       98.160       49.128       37.692     9635.292     2413.525     1420.678        1.906        0.673      156.975       34.341        0.048      340.712       14.919      858.662
11/10/2014  12:16:00      127.448       70.808        5.806       63.760       59.210       59.814     4065.316     3505.875     3577.683        1.622        0.557      145.797       28.273        0.038      340.598       14.729      858.657
11/10/2014  12:17:00      142.162      121.454        9.290       80.699       70.872       54.838     6512.330     5022.863     3007.204        2.479        0.727      186.979       44.578        0.057      340.445       14.467      858.648
11/10/2014  12:18:00      121.418      100.724       13.244       60.916       49.478       39.499     3710.804     2448.052     1560.160        1.639        0.386      157.758       24.728        0.025      340.373       14.347      858.631
11/10/2014  12:19:00      117.725      155.339      -15.550       85.321       55.418       46.167     7279.661     3071.188     2131.377        2.535        0.624      194.908       35.369        0.033      340.225       14.096      858.624
11/10/2014  12:20:00        9.822       96.720       -9.418       79.204       45.494       34.522     6273.277     2069.684     1191.802        0.954        0.477       97.218       21.529        0.049      340.205       14.065      858.609
11/10/2014  12:21:00      -31.450      -35.282      -10.054       44.516       46.861       29.542     1981.671     2195.969      872.754        0.369        0.253       47.264       29.932        0.401      340.492       14.551      858.601
11/10/2014  12:22:00       17.326       -8.570       25.758       48.200       31.073       33.683     2323.193      965.509     1134.552        0.273        0.221       19.330       20.111        1.082      340.854       15.163      858.591
11/10/2014  12:23:00       16.561       95.126        5.268       35.440       71.053       44.729     1255.969     5048.586     2000.709        0.883        0.415       96.557       51.628        0.286      340.860       15.172      858.598
11/10/2014  12:24:00       56.626      100.222      -10.346       59.589       71.290       38.828     3550.894     5082.222     1507.631        1.175        0.507      115.113       43.849        0.145      340.671       14.853      858.606
11/10/2014  12:25:00       39.621      175.351      -21.280       62.554       65.406       44.882     3912.981     4277.899     2014.438        2.149        0.510      179.772       38.487        0.046      340.581       14.699      858.590
11/10/2014  12:26:00      131.931      135.461        8.337       71.366       75.591       57.318     5093.051     5714.007     3285.363        2.496        0.705      189.091       53.683        0.081      340.619       14.761      858.591
11/10/2014  12:27:00       96.350      164.436       -9.618      100.695       70.855       49.077    10139.413     5020.406     2408.598        2.699        0.878      190.585       46.408        0.059      340.652       14.819      858.585
11/10/2014  12:28:00       70.885      117.953      -14.089       68.057       61.503       37.975     4631.706     3782.594     1442.086        1.449        0.493      137.614       19.913        0.021      340.735       14.959      858.572
11/10/2014  12:29:00       89.124       89.072        3.567       81.597       64.802       46.129     6658.044     4199.321     2127.892        1.443        0.649      126.003       37.373        0.088      340.686       14.878      858.545
11/10/2014  12:30:00       20.668      100.140       -2.945       63.687       57.152       42.424     4055.974     3266.369     1799.781        0.979        0.456      102.250       34.272        0.112      340.633       14.789      858.525
11/10/2014  12:31:00      -31.899      252.345      -40.230       99.623      112.802       45.500     9924.650    12724.248     2070.222        4.551        1.236      254.353       46.239        0.033      340.497       14.555      858.514
11/10/2014  12:32:00      -77.850      217.854      -27.832       56.089      138.804       51.214     3145.920    19266.587     2622.832        3.966        1.252      231.346       67.327        0.085      340.659       14.830      858.514
11/10/2014  12:33:00       -5.364      144.561       -5.639       80.287       78.259       51.692     6446.042     6124.440     2672.022        1.810        0.762      144.661       52.785        0.133      340.635       14.790      858.504
11/10/2014  12:34:00      112.400       93.491        4.287       57.288       47.313       44.890     3281.867     2238.483     2015.097        1.446        0.377      146.200       26.365        0.033      340.435       14.454      858.500
11/10/2014  12:35:00       -1.510       53.436        1.635       35.887       31.765       20.469     1287.887     1009.046      418.970        0.279        0.136       53.457        6.620        0.015      340.564       14.672      858.490
11/10/2014  12:36:00        7.181      122.787       -1.640       56.629       68.022       34.876     3206.830     4626.990     1216.368        1.209        0.453      122.997       30.261        0.061      340.757       14.997      858.499
11/10/2014  12:37:00      149.369      119.555        9.505      104.336       63.672       40.878    10886.031     4054.104     1670.988        2.665        0.831      191.323       16.053        0.007      340.885       15.213      858.483
11/10/2014  12:38:00      155.376      130.611       64.289      108.210       59.810       76.137    11709.415     3577.179     5796.828        3.320        1.054      202.981       60.000        0.087      340.937       15.299      858.480
11/10/2014  12:39:00      159.558       58.867       19.915      112.102       71.402       52.124    12566.966     5098.258     2716.931        2.485        1.019      170.071       43.340        0.065      340.726       14.945      858.507
11/10/2014  12:40:00       10.947       93.707      -17.210       74.691       63.014       34.850     5578.810     3970.774     1214.529        0.998        0.538       94.344       29.319        0.097      340.502       14.566      858.489
11/10/2014  12:41:00       68.429      -30.818       22.804       61.081       59.801       32.255     3730.833     3576.157     1040.367        0.725        0.417       75.049       11.818        0.025      340.718       14.932      858.445
11/10/2014  12:42:00      117.341      118.948       79.094       73.061       79.675      106.317     5337.867     6348.138    11303.252        2.858        1.149      167.085       74.894        0.201      340.574       14.687      858.441
11/10/2014  12:43:00      118.930      133.921       61.484       94.373       85.430       88.899     8906.202     7298.245     7903.113        2.998        1.205      179.106       71.953        0.161      340.656       14.824      858.420
11/10/2014  12:44:00       25.487       70.164       79.297       69.360       84.493       61.811     4810.751     7139.140     3820.581        1.381        0.789       74.650       56.024        0.563      340.873       15.193      858.390
11/10/2014  12:45:00       68.424      208.412       -4.452       80.745      116.543       77.452     6519.718    13582.348     5998.761        3.711        1.305      219.357       80.346        0.134      341.068       15.521      858.413
11/10/2014  12:46:00       28.044      287.885      -50.147       90.703      100.227       47.945     8227.072    10045.549     2298.679        5.337        1.029      289.248       50.532        0.031      340.386       14.366      858.444
11/10/2014  12:47:00      192.765      128.491       32.935      130.424       61.706       56.395    17010.376     3807.658     3180.362        3.937        1.200      231.664       36.800        0.025      340.450       14.476      858.427
11/10/2014  12:48:00      248.524      142.225       14.568      136.119       95.445       73.269    18528.369     9109.677     5368.294        5.760        1.650      286.342       41.448        0.021      340.447       14.470      858.395
11/10/2014  12:49:00      121.754      163.600        0.205       96.068       92.723       69.852     9229.144     8597.464     4879.355        3.214        1.135      203.933       56.531        0.077      340.446       14.469      858.412
11/10/2014  12:50:00      124.561      141.270        1.969       86.339       94.556       54.413     7454.504     8940.757     2960.728        2.741        0.968      188.342       52.119        0.077      340.570       14.679      858.402
11/10/2014  12:51:00       19.566      342.092      -61.896       54.660       86.185       35.789     2987.716     7427.846     1280.864        6.647        0.585      342.651       44.973        0.017      340.269       14.169      858.418
11/10/2014  12:52:00       16.730      144.569      -10.482       46.284      114.266       41.322     2142.207    13056.682     1707.522        1.909        0.845      145.534       53.046        0.133      340.504       14.568      858.410
11/10/2014  12:53:00       23.891      241.698      -29.907       54.317      114.609       54.755     2950.376    13135.224     2998.086        3.948        0.954      242.876       65.050        0.072      340.439       14.458      858.398
11/10/2014  12:54:00       36.169      208.150      -30.714       92.228       75.178       47.659     8505.923     5651.659     2271.355        3.100        0.821      211.270       50.150        0.056      340.328       14.268      858.382
11/10/2014  12:55:00       85.801      201.199       -8.291       88.532      115.327       72.166     7837.967    13300.347     5207.971        3.712        1.317      218.730       69.729        0.102      340.560       14.663      858.380
11/10/2014  12:56:00      178.602      204.672        4.158       95.415       98.524       75.441     9103.930     9707.003     5691.271        4.915        1.225      271.642       59.137        0.047      340.428       14.437      858.392
11/10/2014  12:57:00      104.887       62.563       12.673       85.154       57.619       40.035     7251.133     3319.935     1602.761        1.362        0.609      122.128       30.230        0.061      340.684       14.873      858.390
11/10/2014  12:58:00       87.823      174.366      -18.110       58.879       99.309       51.441     3466.773     9862.364     2646.172        2.721        0.799      195.234       50.569        0.067      340.415       14.416      858.383
11/10/2014  12:59:00       86.186      131.743       -4.675       67.885       96.793       59.732     4608.353     9368.933     3567.927        2.117        0.877      157.430       59.498        0.143      340.373       14.345      858.373
11/10/2014  13:00:00      220.227      169.858       19.436       83.239       75.001       54.915     6928.677     5625.087     3015.651        4.665        0.778      278.121       40.475        0.021      340.517       14.589      858.348
11/10/2014  13:01:00      128.649      130.667        8.665       96.361       79.025       57.687     9285.390     6244.917     3327.837        2.628        0.943      183.370       45.361        0.061      340.385       14.366      858.359
11/10/2014  13:02:00       42.284      129.162      -12.704       57.354       55.584       50.220     3289.493     3089.571     2522.042        1.376        0.445      135.908       41.536        0.093      340.212       14.076      858.365
11/10/2014  13:03:00       62.679       40.799        0.697       35.117       19.779       22.201     1233.198      391.207      492.897        0.386        0.106       74.788       13.735        0.034      340.248       14.138      858.337
11/10/2014  13:04:00       64.939       46.153       13.345       44.623       47.011       37.508     1991.169     2210.056     1406.817        0.607        0.280       79.670       32.662        0.168      340.392       14.380      858.318
11/10/2014  13:05:00       63.870       67.124        2.924       76.164       57.383       36.363     5800.993     3292.791     1322.251        0.950        0.521       92.655       26.445        0.081      340.684       14.874      858.315
11/10/2014  13:06:00      143.305      114.865        8.337       73.941       44.369       45.656     5467.302     1968.640     2084.429        2.166        0.476      183.658       27.217        0.022      340.318       14.255      858.328
11/10/2014  13:07:00       37.433       53.462       -6.194       48.435       51.025       27.124     2345.927     2603.597      735.714        0.499        0.284       65.264       28.704        0.193      340.362       14.330      858.295
11/10/2014  13:08:00      141.486      115.487       16.046      109.819       81.114       55.146    12060.157     6579.477     3041.076        2.764        1.084      182.635       45.135        0.061      340.697       14.894      858.282
11/10/2014  13:09:00      108.195      118.342       12.928       81.984       67.091       48.653     6721.442     4501.246     2367.157        1.973        0.679      160.347       35.465        0.049      340.905       15.246      858.275
11/10/2014  13:10:00      242.914      138.787       26.361       83.334       75.700       61.993     6944.546     5730.519     3843.139        4.774        0.826      279.766       35.860        0.016      340.802       15.070      858.265
11/10/2014  13:11:00      202.184      115.711        6.753       66.352       59.807       51.576     4402.565     3576.924     2660.064        3.247        0.532      232.954       31.600        0.018      340.410       14.407      858.274
11/10/2014  13:12:00      123.195       81.818       17.102       65.368       54.098       33.687     4273.038     2926.565     1134.843        1.525        0.417      147.889       17.184        0.014      340.645       14.808      858.259
11/10/2014  13:13:00       64.782       61.183       -5.163       42.154       42.349       35.764     1776.996     1793.406     1279.068        0.641        0.242       89.107       21.750        0.060      340.689       14.882      858.244
11/10/2014  13:14:00       32.128       65.777       -4.511       43.165       39.448       31.632     1863.259     1556.172     1000.599        0.490        0.221       73.204       21.799        0.089      340.760       15.003      858.246
11/10/2014  13:15:00       75.872       68.378       -0.877       55.652       68.920       36.408     3097.200     4749.909     1325.512        0.980        0.459      102.137       25.915        0.064      340.767       15.014      858.238
11/10/2014  13:16:00        8.208      198.179      -17.822       73.391       89.483       55.066     5386.269     8007.172     3032.235        2.804        0.821      198.349       56.014        0.080      340.815       15.093      858.235
11/10/2014  13:17:00      108.557      137.457       17.051      114.875       73.318       40.696    13196.360     5375.568     1656.152        2.559        1.011      175.155       37.752        0.046      340.956       15.333      858.226
11/10/2014  13:18:00      162.092      128.291       10.660      101.248       80.495       64.219    10251.202     6479.503     4124.116        3.185        1.043      206.718       41.914        0.041      340.794       15.058      858.227
11/10/2014  13:19:00      115.552      111.241        9.817      108.824       70.790       60.228    11842.652     5011.270     3627.440        2.315        1.024      160.396       35.531        0.049      340.734       14.955      858.219
11/10/2014  13:20:00       25.599      266.553      -48.781       56.198       60.884       29.701     3158.205     3706.882      882.162        4.091        0.387      267.780       23.018        0.007      340.459       14.489      858.225
11/10/2014  13:21:00       31.628      142.477       -8.309       84.171       67.609       41.652     7084.780     4571.017     1734.903        1.738        0.670      145.945       41.471        0.081      340.756       14.995      858.217
11/10/2014  13:22:00       87.496      113.905        2.414       60.636       70.817       54.423     3676.684     5015.043     2961.898        1.614        0.583      143.631       48.566        0.114      340.625       14.773      858.208
11/10/2014  13:23:00      130.131      100.797       17.216       52.022       49.788       46.535     2706.238     2478.822     2165.546        1.737        0.368      164.603       22.103        0.018      340.425       14.436      858.200
11/10/2014  13:24:00       40.404       47.979       20.681       71.753       45.826       34.723     5148.471     2100.025     1205.659        0.641        0.423       62.726       28.243        0.203      340.848       15.152      858.174
11/10/2014  13:25:00       -7.153       -7.618       18.243       33.082       43.295       24.059     1094.410     1874.477      578.851        0.199        0.177       10.450       11.907        1.298      341.106       15.587      858.164
11/10/2014  13:26:00       20.617       20.950       35.695       51.261       49.420       46.128     2627.740     2442.357     2127.746        0.467        0.360       29.393       39.576        1.813      340.993       15.397      858.145
11/10/2014  13:27:00      163.550       97.268       26.203       90.797       60.036       54.904     8244.125     3604.339     3014.462        2.588        0.743      190.289       21.613        0.013      340.694       14.890      858.140
11/10/2014  13:28:00      163.044      124.558       94.601      164.705       88.768       66.929    27127.682     7879.816     4479.554        4.526        1.974      205.178       73.484        0.128      340.742       14.970      858.133
11/10/2014  13:29:00      285.947      128.519       52.872      145.135       93.857       83.986    21064.308     8809.147     7053.579        6.900        1.846      313.501       61.385        0.038      340.535       14.620      858.122
11/10/2014  13:30:00      268.769      173.902       40.650       98.693       72.945       69.707     9740.375     5320.971     4859.116        6.202        0.996      320.123       32.093        0.010      340.463       14.498      858.136
11/10/2014  13:31:00      228.786      131.347       26.897       80.221       70.177       55.288     6435.360     4924.871     3056.712        4.236        0.721      263.808       32.597        0.015      340.317       14.251      858.141
11/10/2014  13:32:00      152.576       75.522       26.380       79.803       67.640       51.730     6368.474     4575.198     2675.966        2.165        0.681      170.244       31.190        0.034      340.430       14.443      858.127
11/10/2014  13:33:00      177.606       78.115       19.248      102.830       53.237       41.722    10573.991     2834.166     1740.686        2.658        0.757      194.025       37.190        0.037      340.468       14.507      858.107
11/10/2014  13:34:00       -0.385       87.634      -18.170       29.285       49.832       19.261      857.611     2483.250      371.002        0.586        0.186       87.634       23.283        0.071      340.387       14.374      858.099
11/10/2014  13:35:00       59.109      101.271        1.720       68.536       77.019       50.187     4697.176     5931.976     2518.785        1.345        0.657      117.259       48.868        0.174      340.588       14.711      858.095
11/10/2014  13:36:00      150.148      116.893       82.979      107.494       89.317       97.561    11554.995     7977.500     9518.097        3.607        1.453      190.285       64.581        0.115      340.633       14.786      858.083
11/10/2014  13:37:00      111.579       64.601      109.392      119.164       81.181       68.399    14200.098     6590.349     4678.465        2.702        1.273      128.931       56.965        0.195      340.673       14.853      858.060
11/10/2014  13:38:00       71.318      159.063      161.094      113.084      124.138       93.492    12787.974    15410.340     8740.686        4.663        1.847      174.320       83.886        0.232      340.820       15.100      858.057
11/10/2014  13:39:00      102.397       82.948       48.514       97.401       66.937       81.459     9487.004     4480.579     6635.573        2.016        1.030      131.779       55.599        0.178      340.824       15.109      858.069
11/10/2014  13:40:00      252.232      142.588       30.180       97.417       76.361       64.996     9489.983     5831.045     4224.416        5.220        0.977      289.745       26.502        0.008      340.614       14.754      858.085
11/10/2014  13:41:00      214.645      148.889       44.060       76.439       54.431       60.935     5842.906     2962.707     3713.043        4.135        0.626      261.229       28.571        0.012      340.372       14.344      858.083
11/10/2014  13:42:00      121.652       71.279       15.610       72.494       56.186       42.952     5255.404     3156.911     1844.894        1.519        0.513      140.996       29.286        0.043      340.601       14.734      858.056
11/10/2014  13:43:00      143.083       58.599       25.778       75.667       51.489       48.702     5725.421     2651.121     2371.917        1.766        0.537      154.617       32.820        0.045      340.736       14.962      858.048
11/10/2014  13:44:00      111.579       84.473       39.640       88.058       68.242       61.980     7754.213     4656.971     3841.489        1.870        0.813      139.948       25.807        0.034      340.720       14.932      858.044
11/10/2014  13:45:00       62.012       62.653       76.459       66.361       63.106       58.061     4403.829     3982.381     3371.046        1.268        0.588       88.153       51.449        0.341      340.696       14.894      858.032
11/10/2014  13:46:00      163.372       76.056       46.692       76.010       54.181       52.530     5777.462     2935.564     2759.445        2.306        0.574      180.209       51.002        0.080      340.794       15.058      858.024
11/10/2014  13:47:00       56.460      108.371      116.069       75.304       69.953       50.822     5670.649     4893.468     2582.839        2.077        0.657      122.197       46.343        0.144      340.697       14.895      857.999
11/10/2014  13:48:00      106.470       -8.359       40.812       87.034      165.549       80.425     7574.899    27406.434     6468.107        2.725        2.072      106.798       97.655        0.836      340.723       14.939      857.978
11/10/2014  13:49:00       56.777      -14.283       62.097       65.762       97.437       47.463     4324.658     9494.007     2252.754        1.167        0.804       58.546       41.933        0.513      340.939       15.306      857.965
11/10/2014  13:50:00      130.349       99.167       32.103       76.408       52.588       45.931     5838.231     2765.458     2109.639        1.928        0.536      163.783       38.646        0.056      340.980       15.374      857.969
11/10/2014  13:51:00      177.509       91.832       30.659       95.338       76.728       58.008     9089.332     5887.211     3364.934        2.961        0.917      199.856       40.006        0.040      340.760       15.000      857.964
11/10/2014  13:52:00      126.467       76.625        7.158      106.996       75.868       49.065    11448.218     5755.939     2407.395        2.076        0.981      147.869       38.212        0.067      340.797       15.064      857.957
11/10/2014  13:53:00      122.045       75.977       11.932       60.332       52.175       44.235     3639.936     2722.274     1956.705        1.456        0.416      143.762       23.360        0.026      340.780       15.036      857.941
11/10/2014  13:54:00      103.828       96.448       29.607       64.869       40.603       43.112     4207.963     1648.623     1858.602        1.434        0.386      141.712       22.314        0.025      340.830       15.120      857.941
11/10/2014  13:55:00      132.806       86.095       22.768       47.381       50.897       43.199     2244.947     2590.500     1866.154        1.613        0.335      158.271       25.572        0.026      340.684       14.873      857.953
11/10/2014  13:56:00       69.041      102.633        0.078       71.213       81.844       49.794     5071.291     6698.412     2479.483        1.477        0.712      123.694       44.795        0.131      340.800       15.069      857.957
11/10/2014  13:57:00       85.895      111.277       37.059      108.088       53.199       63.298    11683.076     2830.137     4006.606        1.982        0.926      140.572       47.944        0.116      340.848       15.150      857.967
11/10/2014  13:58:00      185.729       98.985       73.712      108.753       66.674       67.424    11827.293     4445.464     4545.955        3.527        1.041      210.459       61.935        0.087      340.832       15.122      857.978
11/10/2014  13:59:00       51.099       88.038       56.994       85.347       51.942       68.881     7284.175     2697.975     4744.531        1.417        0.736      101.792       53.895        0.280      340.834       15.127      857.990
11/10/2014  14:00:00      196.762      117.710       49.914       98.222       83.169       49.597     9647.465     6917.107     2459.864        3.704        0.951      229.283       48.438        0.045      340.629       14.780      857.997
11/10/2014  14:01:00       36.002       75.075       71.558       69.657       63.649       43.549     4852.088     4051.214     1896.491        1.142        0.540       83.261       40.628        0.238      340.812       15.090      857.996
11/10/2014  14:02:00       33.088       20.638       32.850       37.733       43.016       36.308     1423.786     1850.354     1318.307        0.360        0.230       38.996       30.603        0.616      340.500       14.563      857.990
11/10/2014  14:03:00       44.072       58.735      -17.037       49.840       52.946       38.285     2483.984     2803.242     1465.734        0.622        0.338       73.432       31.037        0.179      340.432       14.448      857.985
11/10/2014  14:04:00       21.454       28.125       30.439       32.196       31.383       37.423     1036.583      984.878     1400.500        0.280        0.171       35.374       28.190        0.635      340.630       14.785      857.955
11/10/2014  14:05:00      153.417       71.852       23.827       71.446       54.050       55.108     5104.590     2921.427     3036.909        2.016        0.553      169.409       32.032        0.036      340.828       15.117      857.945
11/10/2014  14:06:00      124.146       89.242       14.485       56.719       44.846       44.016     3217.064     2011.120     1937.367        1.537        0.358      152.893       20.829        0.019      340.861       15.173      857.938
11/10/2014  14:07:00       55.365       60.474       49.133       71.282       59.620       34.006     5081.152     3554.594     1156.413        0.946        0.490       81.990       15.435        0.035      341.119       15.609      857.942
11/10/2014  14:08:00       97.002       96.142       87.053       70.404       60.986       44.441     4956.764     3719.281     1974.974        1.844        0.533      136.575       37.512        0.075      340.742       14.973      857.946
11/10/2014  14:09:00        5.300      -30.193        8.974       43.083       58.112       36.315     1856.157     3376.989     1318.763        0.378        0.328       30.655       29.129        0.903      340.962       15.344      857.935
11/10/2014  14:10:00       25.102        0.069       14.450       52.526       66.518       36.380     2758.929     4424.589     1323.501        0.467        0.425       25.102       21.979        0.767      341.010       15.425      857.941
11/10/2014  14:11:00       48.193       24.310        8.551       51.030       35.583       38.811     2604.061     1266.165     1506.260        0.418        0.269       53.977       23.341        0.187      340.923       15.279      857.948
11/10/2014  14:12:00      113.224       76.089        9.890       77.695       78.256       42.615     6036.499     6124.009     1816.051        1.634        0.699      136.416       28.818        0.045      340.738       14.964      857.960
11/10/2014  14:13:00      144.430       77.370       21.654       72.398       57.655       49.037     5241.499     3324.144     2404.651        1.914        0.549      163.848       23.172        0.020      340.892       15.224      857.971
11/10/2014  14:14:00      186.580       96.616       27.777       47.044       45.291       41.259     2213.098     2051.250     1702.284        2.544        0.298      210.111       26.526        0.016      340.664       14.838      857.989
11/10/2014  14:15:00       86.612       95.457       80.108       82.042       60.039       60.237     6730.830     3604.734     3628.448        1.849        0.698      128.895       55.869        0.188      340.729       14.951      857.979
11/10/2014  14:16:00       88.132      133.450      128.765       90.547       92.404       83.028     8198.673     8538.567     6893.675        3.289        1.182      159.925       79.823        0.249      340.505       14.569      857.978
11/10/2014  14:17:00       18.654       46.648       74.659       46.829       50.990       44.575     2192.980     2599.953     1986.933        0.744        0.339       50.240       39.177        0.608      340.706       14.910      857.990
11/10/2014  14:18:00       62.173      -23.701       11.329       53.161       39.285       38.269     2826.107     1543.343     1464.518        0.519        0.292       66.538       29.720        0.200      340.537       14.628      857.988
11/10/2014  14:19:00       54.428       28.130       31.705       68.546       44.974       36.381     4698.501     2022.697     1323.597        0.640        0.402       61.268       37.526        0.375      340.667       14.846      857.963
11/10/2014  14:20:00      137.209      110.940       31.147       83.723       55.066       51.814     7009.584     3032.228     2684.718        2.241        0.636      176.448       41.936        0.056      340.804       15.075      857.949
11/10/2014  14:21:00       54.545       37.754       -1.717       54.216       54.445       31.723     2939.326     2964.222     1006.339        0.566        0.345       66.336       11.872        0.032      341.053       15.499      857.944
11/10/2014  14:22:00       21.029      104.587      -15.433       53.016       68.384       27.699     2810.670     4676.311      767.249        0.993        0.413      106.680       34.699        0.106      340.704       14.908      857.929
11/10/2014  14:23:00       64.313       66.832       39.966       69.615       45.557       52.425     4846.191     2075.406     2748.427        0.993        0.484       92.750       44.029        0.225      340.939       15.306      857.911
11/10/2014  14:24:00      187.785      125.007       63.885      149.918       81.665       70.635    22475.268     6669.093     4989.328        4.455        1.707      225.588       72.786        0.104      340.641       14.800      857.902
11/10/2014  14:25:00      137.574      123.916       37.287       60.557       52.229       61.315     3667.136     2727.884     3759.507        2.291        0.508      185.154       40.894        0.049      340.675       14.857      857.928
11/10/2014  14:26:00       34.424      -40.554        0.608       29.447       51.804       28.316      867.135     2683.667      801.814        0.359        0.218       53.194       28.466        0.286      340.444       14.469      857.941
11/10/2014  14:27:00      141.059       93.002       27.701       60.331       52.237       50.850     3639.857     2728.715     2585.680        1.913        0.448      168.959       28.717        0.029      340.672       14.854      857.940
11/10/2014  14:28:00      177.785      102.316       36.016       85.016       60.074       60.448     7227.780     3608.898     3653.904        2.893        0.725      205.125       39.732        0.038      340.622       14.768      857.930
11/10/2014  14:29:00       34.665       63.605       77.185       64.325       56.951       44.473     4137.641     3243.406     1977.867        1.028        0.468       72.439       45.815        0.400      340.796       15.064      857.927
11/10/2014  14:30:00       73.739       76.899       71.238       73.664       74.932       67.924     5426.425     5614.793     4613.721        1.604        0.783      106.541       60.791        0.326      340.608       14.745      857.896
11/10/2014  14:31:00      121.416       85.590       18.905       37.837       31.206       27.455     1431.635      973.790      753.754        1.279        0.158      148.551       14.651        0.010      340.653       14.821      857.898
11/10/2014  14:32:00        8.259       49.223        0.201       55.680       52.902       33.823     3100.245     2798.600     1143.981        0.477        0.352       49.911       26.720        0.287      340.894       15.231      857.913
11/10/2014  14:33:00       51.650      132.561      -10.909       41.521       57.247       38.198     1723.989     3277.165     1459.053        1.341        0.323      142.268       27.449        0.037      340.598       14.730      857.914
11/10/2014  14:34:00        7.810       74.329        7.132       42.106       46.232       39.798     1772.886     2137.417     1583.910        0.556        0.275       74.738       34.502        0.213      340.599       14.732      857.907
11/10/2014  14:35:00      -34.184        6.370       -3.424       25.000       29.239       22.753      625.010      854.915      517.680        0.161        0.100       34.772       17.724        0.260      340.798       15.069      857.898
11/10/2014  14:36:00        0.612        8.365        5.991       30.622       23.655       15.637      937.701      559.541      244.506        0.092        0.087        8.388       10.434        1.547      340.942       15.310      857.889
11/10/2014  14:37:00       98.194       80.511       26.481       36.880       34.522       29.938     1360.152     1191.734      896.282        1.014        0.172      126.981       16.596        0.017      340.758       15.001      857.888
11/10/2014  14:38:00       90.672       76.048       39.261       57.555       46.223       43.844     3312.522     2136.534     1922.318        1.146        0.369      118.342       33.379        0.080      340.913       15.261      857.878
11/10/2014  14:39:00       63.861       72.046       31.992       57.583       61.219       44.918     3315.812     3747.753     2017.616        0.968        0.454       96.275       35.838        0.139      340.887       15.216      857.866
11/10/2014  14:40:00       79.859       80.655       56.726       57.754       54.707       60.123     3335.566     2992.841     3614.757        1.302        0.497      113.502       35.992        0.101      340.830       15.122      857.862
11/10/2014  14:41:00       76.316       64.960       24.499       51.414       43.358       45.324     2643.385     1879.887     2054.229        0.861        0.329      100.220       20.840        0.043      340.925       15.281      857.869
11/10/2014  14:42:00       30.640       88.992      -18.157       54.811       78.545       38.830     3004.266     6169.380     1507.752        0.993        0.534       94.119       41.215        0.192      340.893       15.227      857.858
11/10/2014  14:43:00       28.652      223.316      -36.549       59.995       91.634       35.903     3599.389     8396.736     1288.998        3.265        0.664      225.147       40.310        0.032      340.710       14.917      857.856
11/10/2014  14:44:00       58.020      199.219      -23.874       63.459       85.182       54.616     4027.043     7255.999     2982.942        2.894        0.713      207.496       54.534        0.069      340.552       14.650      857.854
11/10/2014  14:45:00      163.264      103.382       43.760       84.440       65.182       46.156     7130.142     4248.694     2130.385        2.638        0.675      193.243       35.597        0.034      340.699       14.897      857.841
11/10/2014  14:46:00       99.786      144.283       -5.194       59.740       80.484       49.113     3568.907     6477.682     2412.076        2.163        0.623      175.427       41.440        0.056      340.794       15.060      857.850
11/10/2014  14:47:00       94.363       64.020       11.972       62.025       43.990       37.292     3847.087     1935.154     1390.686        1.016        0.359      114.031       25.256        0.049      340.741       14.971      857.855
11/10/2014  14:48:00       60.523       82.693       -2.300       61.787       70.808       37.702     3817.684     5013.829     1421.431        1.038        0.513      102.475       39.770        0.151      340.716       14.928      857.860
11/10/2014  14:49:00       62.676      111.324       -7.806       61.910       62.864       38.289     3832.796     3951.892     1466.035        1.281        0.463      127.755       42.617        0.111      340.597       14.727      857.849
11/10/2014  14:50:00       11.488      111.878       -0.162       76.451       50.264       28.133     5844.754     2526.506      791.487        1.090        0.458      112.466       33.711        0.090      340.737       14.965      857.830
11/10/2014  14:51:00       51.823      114.748       -6.342       72.904       62.382       40.599     5314.980     3891.496     1648.276        1.337        0.543      125.908       34.612        0.076      340.787       15.048      857.806
11/10/2014  14:52:00      128.989       93.998       43.968       69.693       63.158       51.514     4857.055     3988.872     2653.704        1.945        0.575      159.605       29.823        0.035      340.868       15.184      857.791
11/10/2014  14:53:00      114.145       99.013       46.620       67.002       51.039       48.344     4489.243     2605.018     2337.148        1.722        0.472      151.105       15.095        0.010      340.647       14.810      857.802
11/10/2014  14:54:00      129.437      112.434       82.026       98.987       53.215       58.374     9798.412     2831.831     3407.572        2.608        0.802      171.451       52.860        0.095      340.609       14.745      857.793
11/10/2014  14:55:00      136.970       67.179       66.040       84.285       75.292       64.154     7104.041     5668.831     4115.758        2.226        0.844      152.558       44.179        0.084      340.598       14.727      857.793
11/10/2014  14:56:00       76.297      114.929      117.646       92.327       81.471       69.693     8524.210     6637.605     4857.065        2.644        1.001      137.949       64.620        0.219      340.603       14.735      857.780
11/10/2014  14:57:00       45.328      102.631      128.286       87.232       92.669       77.477     7609.374     8587.592     6002.629        2.562        1.110      112.195       71.598        0.407      340.611       14.749      857.798
11/10/2014  14:58:00       82.024       57.242       96.088       88.448      117.534       69.118     7823.031    13814.143     4777.366        2.282        1.321      100.023       67.291        0.453      340.600       14.731      857.818
11/10/2014  14:59:00       89.235       69.965       44.066       67.220       39.743       43.415     4518.480     1579.519     1884.830        1.139        0.399      113.393       26.131        0.053      340.682       14.870      857.811
11/10/2014  15:00:00       35.913       43.255       50.386       35.956       38.118       35.169     1292.805     1452.984     1236.827        0.484        0.199       56.221       17.053        0.092      340.828       15.118      857.827
11/10/2014  15:01:00       75.404      104.487      116.352       63.929       76.345       66.016     4086.896     5828.528     4358.108        2.220        0.714      128.854       58.341        0.205      340.557       14.659      857.821
11/10/2014  15:02:00      107.496       80.695       88.644       95.706       83.051       58.829     9159.673     6897.463     3460.800        2.272        0.976      134.414       57.711        0.184      340.528       14.610      857.826
11/10/2014  15:03:00      129.687       66.718       48.683       78.371       61.177       50.309     6141.937     3742.603     2530.996        1.803        0.621      145.843       32.983        0.051      340.608       14.746      857.847
11/10/2014  15:04:00       78.613       69.741       40.084       78.617       72.342       64.608     6180.603     5233.303     4174.226        1.412        0.779      105.090       44.430        0.179      340.738       14.967      857.844
11/10/2014  15:05:00       51.472       97.722      121.328      109.824       87.674       71.972    12061.307     7686.646     5179.947        2.592        1.246      110.449       70.269        0.405      340.663       14.836      857.830
11/10/2014  15:06:00      175.794       75.050       63.613       83.651       70.717       59.026     6997.432     5000.949     3484.102        2.803        0.774      191.144       42.562        0.050      340.653       14.821      857.843
11/10/2014  15:07:00      167.488       99.631       48.571      107.514       62.362       68.926    11559.226     3888.976     4750.808        3.026        1.010      194.881       62.502        0.103      340.598       14.727      857.830
11/10/2014  15:08:00       67.006       82.040       79.151       63.893       49.315       46.901     4082.255     2431.995     2199.688        1.310        0.436      105.927       36.127        0.116      340.620       14.766      857.813
11/10/2014  15:09:00      142.655       82.072       65.529       94.162       84.339       71.371     8866.407     7112.991     5093.765        2.622        1.054      164.579       60.969        0.137      340.495       14.552      857.805
11/10/2014  15:10:00      139.758       83.314       54.298       71.371       57.734       53.377     5093.765     3333.234     2849.058        2.035        0.564      162.706       36.073        0.049      340.642       14.802      857.808
11/10/2014  15:11:00      104.368       57.854       18.255       39.437       34.084       27.731     1555.311     1161.710      769.005        0.903        0.174      119.330       19.761        0.027      340.746       14.980      857.819
11/10/2014  15:12:00       65.794       35.037       25.163       63.622       41.503       34.742     4047.750     1722.503     1207.012        0.658        0.349       74.542       22.126        0.088      340.739       14.967      857.810
11/10/2014  15:13:00       81.270       52.933        5.396       52.523       37.938       28.879     2758.682     1439.288      833.984        0.723        0.252       96.988        9.966        0.011      340.549       14.646      857.814
11/10/2014  15:14:00       61.705       24.692       25.630       62.037       40.425       44.264     3848.592     1634.142     1959.342        0.626        0.372       66.462       32.183        0.234      340.581       14.699      857.818
11/10/2014  15:15:00       25.625      109.479      134.291       76.152       88.868       58.314     5799.133     7897.439     3400.470        2.388        0.855      112.438       63.202        0.316      340.622       14.767      857.816
11/10/2014  15:16:00       70.922       76.627      120.150       74.520       57.244       46.349     5553.198     3276.932     2148.206        1.816        0.549      104.411       40.208        0.148      340.558       14.661      857.823
11/10/2014  15:17:00      118.780      109.155       30.244       84.301       65.316       56.223     7106.676     4266.128     3161.063        2.073        0.727      161.319       49.927        0.096      340.581       14.697      857.847
11/10/2014  15:18:00       97.322       45.202       43.524       76.825       56.232       50.312     5902.061     3162.079     2531.259        1.250        0.580      107.307       32.484        0.092      340.696       14.894      857.864
11/10/2014  15:19:00       33.840       48.940       52.369       72.815       54.661       37.887     5302.058     2987.852     1435.457        0.800        0.486       59.500       30.694        0.266      340.752       14.990      857.859
11/10/2014  15:20:00       17.607       65.370       80.720       75.241       45.458       39.189     5661.159     2066.445     1535.740        1.018        0.463       67.700       35.090        0.269      340.737       14.963      857.854
11/10/2014  15:21:00      206.420       93.463       80.047      126.913       96.729       84.594    16106.850     9356.575     7156.134        4.518        1.631      226.593       67.127        0.088      340.530       14.611      857.836
11/10/2014  15:22:00       80.965       52.794       44.400       78.227       57.725       48.260     6119.461     3332.190     2329.034        1.154        0.589       96.656       40.928        0.179      340.587       14.711      857.839
11/10/2014  15:23:00      118.585      153.656      103.385      104.066       67.576       83.228    10829.653     4566.464     6926.874        3.534        1.116      194.094       72.732        0.140      340.518       14.589      857.835
11/10/2014  15:24:00      188.726      125.739       43.682      104.432       78.946       68.040    10906.055     6232.522     4629.474        3.755        1.088      226.777       42.338        0.035      340.501       14.562      857.849
11/10/2014  15:25:00      183.104      108.968       53.935       78.417       72.475       55.952     6149.215     5252.606     3130.597        3.142        0.727      213.076       41.025        0.037      340.477       14.520      857.849
11/10/2014  15:26:00      137.349      118.227       11.119       77.226       67.582       61.539     5963.818     4567.297     3787.055        2.364        0.716      181.224       40.085        0.049      340.402       14.396      857.857
11/10/2014  15:27:00       60.175       73.795       16.035       47.658       45.595       44.875     2271.257     2078.943     2013.741        0.784        0.318       95.220       32.739        0.118      340.491       14.548      857.851
11/10/2014  15:28:00       18.403       43.775       57.960       42.983       43.301       37.031     1847.523     1875.017     1371.263        0.535        0.255       47.485       17.986        0.143      340.491       14.547      857.832
11/10/2014  15:29:00       53.496       22.856       47.537       58.977       41.780       31.906     3478.335     1745.579     1017.969        0.594        0.312       58.174       34.024        0.342      340.470       14.514      857.810
11/10/2014  15:30:00       76.938       27.258       36.409       58.768       70.805       44.969     3453.677     5013.364     2022.194        0.924        0.524       81.624       36.060        0.195      340.437       14.457      857.799
11/10/2014  15:31:00       25.047       33.602       59.227       52.340       62.478       51.411     2739.502     3903.445     2643.077        0.727        0.464       41.910       45.825        1.196      340.482       14.532      857.794
11/10/2014  15:32:00       17.058        8.224       13.357       32.621       52.655       36.266     1064.098     2772.590     1315.231        0.284        0.258       18.937       21.590        1.300      340.564       14.671      857.807
11/10/2014  15:33:00       21.809       49.338       45.287       39.676       32.668       34.072     1574.161     1067.197     1160.921        0.438        0.190       53.943       28.013        0.270      340.554       14.654      857.820
11/10/2014  15:34:00      179.475      104.270       20.543       62.524       51.920       40.004     3909.243     2695.662     1600.295        2.585        0.410      207.566       19.387        0.009      340.535       14.618      857.830
11/10/2014  15:35:00      112.327       70.516       11.144       51.873       40.663       35.698     2690.855     1653.478     1274.361        1.167        0.281      132.627       11.104        0.007      340.628       14.780      857.825
11/10/2014  15:36:00       35.761       37.349       29.932       63.525       47.654       39.336     4035.404     2270.898     1547.323        0.571        0.393       51.709       28.045        0.294      340.613       14.756      857.810
11/10/2014  15:37:00       73.842      100.652       -4.342       53.021       49.290       43.209     2811.226     2429.460     1867.029        1.135        0.355      124.834       32.159        0.066      340.525       14.605      857.804
11/10/2014  15:38:00      116.697       73.738        2.452       47.178       44.894       35.495     2225.805     2015.476     1259.901        1.228        0.275      138.041       24.919        0.033      340.425       14.437      857.794
11/10/2014  15:39:00      103.541       86.685        6.849       54.585       42.034       32.574     2979.471     1766.877     1061.095        1.204        0.290      135.037       27.430        0.041      340.378       14.359      857.792
11/10/2014  15:40:00       66.147       77.155       12.128       50.744       51.128       30.711     2574.994     2614.057      943.140        0.830        0.307      101.628       23.417        0.053      340.486       14.540      857.801
11/10/2014  15:41:00       69.017       96.041      -10.666       52.697       77.000       39.859     2777.002     5929.000     1588.703        1.220        0.515      118.268       41.325        0.122      340.465       14.504      857.818
11/10/2014  15:42:00       75.005      104.207        1.128       77.153       70.199       37.569     5952.548     4927.838     1411.412        1.439        0.615      128.393       29.767        0.054      340.483       14.533      857.819
11/10/2014  15:43:00       84.418       83.571       -5.147       71.171       55.858       43.157     5065.350     3120.164     1862.498        1.209        0.502      118.788       37.739        0.101      340.507       14.573      857.818
11/10/2014  15:44:00      124.490      144.623        8.158      114.760       70.423       54.968    13169.850     4959.461     3021.453        2.881        1.058      190.823       36.638        0.037      340.465       14.501      857.800
11/10/2014  15:45:00      133.025       99.703       54.611       71.782       60.196       56.718     5152.688     3623.610     3216.960        2.130        0.600      166.242       35.423        0.045      340.476       14.520      857.797
11/10/2014  15:46:00      116.901      108.334       76.031       77.360       45.007       48.236     5984.510     2025.666     2326.690        2.076        0.517      159.381       29.327        0.034      340.431       14.444      857.790
11/10/2014  15:47:00       76.951       77.086       62.305       55.629       53.895       45.666     3094.636     2904.664     2085.341        1.191        0.404      108.920       33.443        0.094      340.383       14.366      857.796
11/10/2014  15:48:00        7.156       19.493       51.233       53.567       71.789       47.442     2869.409     5153.603     2250.749        0.666        0.514       20.765       39.142        3.553      340.461       14.497      857.802
11/10/2014  15:49:00      141.087       89.791       24.902       77.984       56.693       40.222     6081.440     3214.052     1617.777        1.975        0.546      167.236       28.225        0.028      340.401       14.393      857.812
11/10/2014  15:50:00      107.043       64.627       11.823       46.073       41.506       33.527     2122.762     1722.783     1124.068        1.037        0.248      125.040       20.089        0.026      340.423       14.434      857.807
11/10/2014  15:51:00      129.657       69.741       30.195       69.505       46.283       36.515     4830.974     2142.152     1333.374        1.544        0.415      147.224       25.204        0.029      340.438       14.459      857.792
11/10/2014  15:52:00      151.081      101.564       31.665       92.407       63.022       57.228     8539.089     3971.743     3275.098        2.496        0.789      182.046        4.093        0.001      340.382       14.363      857.783
11/10/2014  15:53:00      163.057       77.530       29.978       55.940       70.311       34.728     3129.327     4943.634     1206.037        2.139        0.464      180.550       17.839        0.010      340.359       14.323      857.778
11/10/2014  15:54:00      177.362      112.480       48.117       94.783       63.982       54.894     8983.847     4093.703     3013.358        3.125        0.805      210.022       47.371        0.051      340.389       14.373      857.772
11/10/2014  15:55:00      176.762       65.691       63.951      101.691       77.367       62.673    10341.054     5985.585     3927.842        2.995        1.013      188.574       46.851        0.062      340.331       14.275      857.766
11/10/2014  15:56:00      174.927      115.788       31.103       75.645       57.591       62.221     5722.174     3316.684     3871.447        2.894        0.646      209.777       31.102        0.022      340.306       14.233      857.762
11/10/2014  15:57:00      136.357       70.654        4.289       79.225       56.859       39.251     6276.582     3232.984     1540.637        1.732        0.553      153.575       26.369        0.029      340.318       14.254      857.756
11/10/2014  15:58:00       80.307       65.091       19.159       40.517       32.912       36.847     1641.603     1083.227     1357.727        0.757        0.204      103.373       23.982        0.054      340.338       14.289      857.763
11/10/2014  15:59:00       35.822       41.654       43.584       35.326       30.339       26.421     1247.942      920.432      698.080        0.389        0.143       54.939       14.895        0.074      340.383       14.366      857.769
11/10/2014  16:00:00       72.898       51.083       14.473       42.116       50.023       28.785     1773.728     2502.314      828.575        0.662        0.255       89.015       25.009        0.079      340.374       14.350      857.761
11/10/2014  16:01:00       53.427       41.713       11.428       53.650       41.085       27.725     2878.329     1687.954      768.674        0.503        0.267       67.782       27.268        0.162      340.403       14.400      857.749
11/10/2014  16:02:00       64.778       42.134        7.351       48.984       31.064       16.867     2399.399      964.949      284.479        0.484        0.182       77.275        9.007        0.014      340.373       14.349      857.744
11/10/2014  16:03:00       71.854       55.263        6.216       52.042       58.340       34.835     2708.361     3403.530     1213.462        0.779        0.366       90.647       26.804        0.087      340.332       14.281      857.739
11/10/2014  16:04:00      149.521       93.234       13.060       57.451       46.031       41.087     3300.663     2118.882     1688.145        1.916        0.355      176.208       24.581        0.019      340.279       14.188      857.717
11/10/2014  16:05:00      170.760      109.176       29.745       40.719       43.488       35.031     1658.034     1891.244     1227.155        2.337        0.239      202.678       21.401        0.011      340.292       14.209      857.687
11/10/2014  16:06:00      133.353       80.938       14.649       55.793       47.835       36.400     3112.819     2288.159     1324.942        1.564        0.336      155.993       15.241        0.010      340.297       14.221      857.654
11/10/2014  16:07:00       39.757       38.414        9.386       38.352       27.435       21.898     1470.847      752.688      479.507        0.292        0.135       55.283       13.383        0.059      340.280       14.189      857.618
11/10/2014  16:08:00      118.226       67.961       22.572       46.535       40.369       32.966     2165.487     1629.681     1086.769        1.199        0.244      136.368       17.028        0.016      340.276       14.182      857.586
11/10/2014  16:09:00      125.509       90.430       24.464       57.246       53.016       34.479     3277.119     2810.748     1188.805        1.590        0.364      154.694       12.689        0.007      340.286       14.199      857.564
11/10/2014  16:10:00      139.693       72.706       12.946       48.469       33.124       39.204     2349.235     1097.178     1536.987        1.497        0.249      157.481       23.853        0.023      340.266       14.167      857.568
11/10/2014  16:11:00      107.507       78.252       19.836       56.649       36.124       36.398     3209.117     1304.913     1324.788        1.196        0.292      132.970       14.292        0.012      340.195       14.048      857.583
11/10/2014  16:12:00       97.532       75.901       17.037       58.346       36.447       32.364     3404.279     1328.405     1047.406        1.067        0.289      123.586       27.270        0.049      340.207       14.070      857.605
11/10/2014  16:13:00      102.322       69.116       19.038       45.242       35.325       35.366     2046.830     1247.853     1250.785        1.008        0.227      123.478       22.040        0.032      340.199       14.054      857.608
11/10/2014  16:14:00      124.793       64.198       27.850       45.823       40.652       33.866     2099.742     1652.617     1146.878        1.268        0.245      140.338       18.356        0.017      340.182       14.025      857.587
11/10/2014  16:15:00      147.107       74.970       16.284       61.915       55.851       46.659     3833.432     3119.382     2177.088        1.833        0.456      165.109       36.453        0.049      340.174       14.011      857.551
11/10/2014  16:16:00       97.838       57.289       15.087       40.494       41.169       29.503     1639.741     1694.859      870.437        0.864        0.210      113.377       16.677        0.022      340.152       13.976      857.523
11/10/2014  16:17:00      136.290       49.094       18.821       79.762       45.305       43.922     6361.920     2052.498     1929.123        1.584        0.517      144.863       34.603        0.057      340.140       13.954      857.510
11/10/2014  16:18:00       64.457       39.707       29.090       49.160       61.030       40.655     2416.750     3724.704     1652.858        0.718        0.390       75.706       28.385        0.141      340.110       13.904      857.502
11/10/2014  16:19:00       63.130       70.481       51.636       65.768       43.529       37.805     4325.411     1894.777     1429.207        0.963        0.382       94.620       32.610        0.119      340.082       13.858      857.494
11/10/2014  16:20:00      102.753       57.862       40.912       45.896       38.751       31.944     2106.466     1501.640     1020.443        1.010        0.231      117.924       29.667        0.063      340.076       13.847      857.476
11/10/2014  16:21:00      126.149       78.349       22.257       57.102       42.384       39.374     3260.645     1796.371     1550.311        1.458        0.330      148.499       25.004        0.028      340.066       13.829      857.450
11/10/2014  16:22:00       87.844       82.853        2.811       73.223       52.123       43.249     5361.624     2716.763     1870.474        1.227        0.497      120.752       27.636        0.052      340.072       13.840      857.423
11/10/2014  16:23:00       67.715       69.447       20.276       76.978       47.075       34.315     5925.542     2216.061     1177.500        0.957        0.466       96.996       23.724        0.060      340.039       13.785      857.407
11/10/2014  16:24:00      100.535       58.606       11.813       42.024       29.860       34.378     1765.979      891.628     1181.815        0.876        0.192      116.370       19.198        0.027      340.038       13.783      857.419
11/10/2014  16:25:00      101.667       67.518       29.339       44.944       27.012       33.565     2019.973      729.633     1126.578        0.982        0.194      122.044       20.813        0.029      340.005       13.726      857.420
11/10/2014  16:26:00      112.436       67.002       42.618       40.444       30.080       30.456     1635.748      904.826      927.563        1.121        0.173      130.886       19.983        0.023      339.969       13.666      857.402
11/10/2014  16:27:00      110.243       56.763       20.724       41.159       37.416       28.941     1694.075     1399.932      837.590        0.987        0.197      123.998       20.524        0.027      339.938       13.615      857.403
11/10/2014  16:28:00      129.072       60.839       12.436       64.687       45.210       42.578     4184.413     2043.941     1812.895        1.428        0.402      142.692       28.543        0.040      340.003       13.725      857.414
11/10/2014  16:29:00      109.191       32.157        9.348       69.268       41.136       38.290     4798.023     1692.210     1466.115        1.050        0.398      113.828       16.556        0.021      339.948       13.631      857.409
11/10/2014  16:30:00      178.456      115.556       26.124       55.397       50.408       44.995     3068.850     2540.957     2024.505        2.676        0.382      212.602       32.344        0.023      339.956       13.642      857.394
11/10/2014  16:31:00      121.589       83.410       25.141       63.957       47.459       27.998     4090.449     2252.321      783.870        1.475        0.356      147.449       13.370        0.008      339.919       13.581      857.390
11/10/2014  16:32:00      120.712       73.764       40.773       56.282       43.351       36.191     3167.712     1879.285     1309.774        1.401        0.318      141.465       18.892        0.018      339.913       13.571      857.396
11/10/2014  16:33:00      113.101       80.710       26.933       37.486       29.374       34.601     1405.191      862.832     1197.237        1.175        0.173      138.946       19.782        0.020      339.841       13.451      857.387
11/10/2014  16:34:00      124.107       71.745       16.779       55.353       32.719       27.800     3063.911     1070.561      772.849        1.287        0.245      143.353       16.587        0.013      339.845       13.457      857.370
11/10/2014  16:35:00      134.542       86.461       19.678       44.311       40.469       33.023     1963.469     1637.729     1090.546        1.533        0.235      159.928       17.016        0.011      339.819       13.413      857.354
11/10/2014  16:36:00      121.481       71.893       27.851       47.480       39.929       36.224     2254.388     1594.305     1312.207        1.293        0.258      141.161       19.465        0.019      339.771       13.333      857.358
11/10/2014  16:37:00       98.113       74.232       18.145       71.394       54.670       39.048     5097.160     2988.774     1524.762        1.254        0.481      123.030       24.049        0.038      339.745       13.290      857.344
11/10/2014  16:38:00      104.045       68.105       31.165       59.213       49.920       31.271     3506.171     2492.036      977.877        1.170        0.349      124.353       21.119        0.029      339.692       13.199      857.358
11/10/2014  16:39:00      112.778       55.988       18.046       64.646       40.349       30.572     4179.146     1628.004      934.649        1.146        0.337      125.911       24.348        0.037      339.717       13.242      857.349
11/10/2014  16:40:00       96.852       41.757       26.175       54.692       45.938       36.609     2991.263     2110.338     1340.243        0.912        0.322      105.470       20.483        0.038      339.670       13.163      857.352
11/10/2014  16:41:00      110.707       73.172       19.148       49.621       44.751       31.648     2462.215     2002.613     1001.602        1.172        0.273      132.703       19.100        0.021      339.702       13.217      857.339
11/10/2014  16:42:00      123.303       86.755       15.669       55.761       30.860       41.775     3109.307      952.346     1745.187        1.439        0.290      150.765       27.883        0.034      339.713       13.237      857.335
11/10/2014  16:43:00      102.321       67.596       25.248       46.266       32.872       24.552     2140.557     1080.591      602.820        0.975        0.191      122.633       15.792        0.017      339.671       13.163      857.327
11/10/2014  16:44:00       66.507       43.956       19.186       37.579       24.099       18.126     1412.198      580.767      328.555        0.452        0.116       79.720        8.381        0.011      339.586       13.021      857.331
11/10/2014  16:45:00       83.045       54.791       20.515       42.102       29.152       21.370     1772.584      849.859      456.680        0.670        0.154       99.491       11.760        0.014      339.610       13.060      857.335
11/10/2014  16:46:00      119.545       69.640        7.809       50.723       38.534       32.868     2572.816     1484.836     1080.336        1.217        0.257      138.350       26.086        0.036      339.637       13.105      857.335
11/10/2014  16:47:00       94.555       54.975       14.663       30.817       24.614       27.236      949.705      605.842      741.779        0.724        0.115      109.375        8.335        0.006      339.548       12.957      857.345
11/10/2014  16:48:00      120.936       85.429       23.886       84.098       41.839       42.966     7072.429     1750.500     1846.077        1.658        0.533      148.066       32.179        0.047      339.513       12.896      857.342
11/10/2014  16:49:00      124.089       90.106        7.440       68.370       55.222       38.269     4674.438     3049.436     1464.493        1.638        0.459      153.353       20.501        0.018      339.528       12.921      857.329
11/10/2014  16:50:00      111.986       86.440       15.414       56.996       48.651       33.766     3248.537     2366.885     1140.114        1.350        0.338      141.466       19.151        0.018      339.494       12.864      857.325
11/10/2014  16:51:00       80.334       51.761        1.300       43.545       38.229       26.688     1896.163     1461.420      712.240        0.660        0.203       95.565       23.756        0.062      339.436       12.768      857.316
11/10/2014  16:52:00       52.397       52.153        2.278       54.827       65.259       32.390     3005.955     4258.770     1049.089        0.689        0.416       73.928       26.445        0.128      339.401       12.709      857.303
11/10/2014  16:53:00       79.793       90.435       -3.364       56.118       39.477       40.935     3149.263     1558.408     1675.654        1.047        0.319      120.605       31.876        0.070      339.426       12.752      857.299
11/10/2014  16:54:00       48.188       53.615       -1.689       40.624       44.444       25.544     1650.341     1975.226      652.477        0.474        0.214       72.088       25.970        0.130      339.384       12.680      857.295
11/10/2014  16:55:00       48.367       56.842       -0.778       34.895       47.410       26.764     1217.630     2247.754      716.336        0.488        0.209       74.635       24.337        0.106      339.347       12.617      857.295
11/10/2014  16:56:00       68.305       67.922       13.592       59.974       38.638       36.030     3596.821     1492.932     1298.178        0.792        0.319       96.327       32.043        0.111      339.380       12.674      857.296
11/10/2014  16:57:00       20.228       86.319       -2.494       30.659       44.917       22.586      939.974     2017.556      510.115        0.567        0.173       88.658       16.487        0.035      339.354       12.630      857.313
11/10/2014  16:58:00       63.182       50.918        8.915       35.309       33.397       31.894     1246.752     1115.374     1017.202        0.502        0.169       81.146       26.934        0.110      339.289       12.520      857.322
11/10/2014  16:59:00       89.453       70.109       19.632       48.333       37.119       27.633     2336.107     1377.788      763.596        0.889        0.224      113.654       21.627        0.036      339.299       12.537      857.322
11/10/2014  17:00:00       38.830       32.191       11.306       37.131       29.163       16.062     1378.709      850.459      257.999        0.258        0.124       50.438       17.598        0.122      339.277       12.499      857.318
11/10/2014  17:01:00       39.043       70.634       -6.210       36.186       41.593       24.898     1309.462     1730.015      619.890        0.511        0.183       80.707       20.859        0.067      339.252       12.458      857.326
11/10/2014  17:02:00       35.172       57.856        1.132       49.652       38.777       32.604     2465.289     1503.631     1063.052        0.481        0.252       67.708       23.941        0.125      339.241       12.440      857.334
11/10/2014  17:03:00       27.739       83.770       -6.990       41.237       38.807       20.630     1700.518     1506.003      425.594        0.573        0.182       88.244       18.534        0.044      339.177       12.332      857.343
11/10/2014  17:04:00       65.633      116.754      -19.304       47.588       69.239       40.091     2264.631     4793.975     1607.296        1.349        0.433      133.937       42.616        0.101      339.163       12.307      857.358
11/10/2014  17:05:00       68.210      158.573      -14.956       48.027       95.633       47.605     2306.609     9145.614     2266.246        2.187        0.686      172.621       58.833        0.116      339.137       12.260      857.361
11/10/2014  17:06:00       57.091      128.816       -4.064       65.345       81.866       44.166     4269.918     6701.977     1950.632        1.639        0.646      140.901       42.305        0.090      339.083       12.172      857.370
11/10/2014  17:07:00       72.756      142.361       -7.215       57.511       80.497       42.698     3307.554     6479.821     1823.146        1.861        0.581      159.876       43.230        0.073      339.094       12.192      857.378
11/10/2014  17:08:00       30.481      138.972      -14.040       44.514       65.931       33.161     1981.535     4346.869     1099.680        1.393        0.371      142.275       38.815        0.074      339.068       12.147      857.379
11/10/2014  17:09:00       43.749      133.065      -19.335       33.182       51.138       27.569     1101.022     2615.052      760.054        1.223        0.224      140.072       27.085        0.037      339.054       12.125      857.370
11/10/2014  17:10:00       46.330      117.995      -12.261       46.365       55.627       35.316     2149.701     3094.357     1247.195        1.135        0.325      126.765       31.499        0.062      339.044       12.109      857.370
11/10/2014  17:11:00       47.005       75.166       14.850       62.188       49.455       44.564     3867.390     2445.749     1985.932        0.819        0.415       88.653       31.149        0.123      338.998       12.032      857.371
11/10/2014  17:12:00       62.685       60.656        3.280       58.730       59.468       37.937     3449.236     3536.418     1439.185        0.802        0.421       87.227       33.075        0.144      338.960       11.967      857.366
11/10/2014  17:13:00       86.051      136.375      -14.612       49.185       78.960       47.104     2419.144     6234.636     2218.754        1.854        0.544      161.254       46.003        0.081      338.994       12.022      857.367
11/10/2014  17:14:00       35.745      152.362      -21.163       49.233       55.825       32.410     2423.888     3116.401     1050.423        1.576        0.330      156.499       21.960        0.020      339.029       12.082      857.367
11/10/2014  17:15:00       22.760       52.129        3.454       35.354       58.659       26.695     1249.925     3440.832      712.650        0.432        0.270       56.881       31.351        0.304      338.962       11.970      857.359
11/10/2014  17:16:00       17.881      100.175      -17.610       34.098       68.460       25.360     1162.704     4686.805      643.146        0.858        0.325      101.758       31.754        0.097      339.006       12.044      857.352
11/10/2014  17:17:00      -24.041      120.929      -11.481       58.110       81.626       37.006     3376.773     6662.867     1369.425        1.337        0.570      123.296       46.774        0.144      339.052       12.120      857.352
11/10/2014  17:18:00       37.824       41.546       -0.475       27.963       37.983       14.273      781.906     1442.733      203.711        0.279        0.121       56.185       10.455        0.035      338.912       11.884      857.361
11/10/2014  17:19:00       22.705       24.029       -5.798       34.013       32.627       23.942     1156.878     1064.531      573.209        0.196        0.140       33.060       13.685        0.171      338.869       11.814      857.376
11/10/2014  17:20:00        4.168      114.524      -18.963       33.211       44.721       19.779     1102.964     1999.998      391.221        0.849        0.175      114.600       25.452        0.049      339.009       12.050      857.379
11/10/2014  17:21:00       42.431      136.490      -36.997       40.868       42.529       22.591     1670.226     1808.681      510.356        1.289        0.199      142.933       19.080        0.018      338.989       12.016      857.379
11/10/2014  17:22:00       28.705       68.723       -6.984       20.214       56.355       19.700      408.597     3175.860      388.101        0.478        0.199       74.477       30.010        0.162      338.947       11.946      857.387
11/10/2014  17:23:00       30.500       50.239       -0.882       23.709       29.089       20.218      562.103      846.180      408.773        0.264        0.091       58.772       15.015        0.065      338.909       11.881      857.404
11/10/2014  17:24:00       60.868       58.283        6.681       33.068       32.143       25.634     1093.524     1033.159      657.091        0.496        0.139       84.273       16.293        0.037      338.931       11.918      857.404
11/10/2014  17:25:00       29.920       43.345        8.953       43.441       34.264       28.143     1887.087     1174.003      792.052        0.335        0.193       52.669       16.026        0.093      338.854       11.787      857.399
11/10/2014  17:26:00       41.303       84.138       -8.420       27.890       50.518       29.343      777.863     2552.092      860.985        0.652        0.210       93.729       28.671        0.094      338.875       11.824      857.389
11/10/2014  17:27:00       64.809       52.855       -2.417       39.754       44.761       30.815     1580.381     2003.576      949.557        0.577        0.227       83.629       30.706        0.135      338.834       11.755      857.390
11/10/2014  17:28:00       51.457       73.785       -4.968       44.846       39.953       39.048     2011.150     1596.221     1524.710        0.662        0.257       89.956       27.954        0.097      338.839       11.762      857.400
11/10/2014  17:29:00       28.534       97.305       -8.085       31.898       40.976       26.175     1017.512     1679.060      685.112        0.686        0.169      101.403       26.777        0.070      338.834       11.755      857.415
11/10/2014  17:30:00       24.514      124.992      -14.905       37.736       63.466       31.284     1423.978     4027.988      978.691        1.144        0.322      127.373       36.677        0.083      338.861       11.801      857.433
11/10/2014  17:31:00       26.521      145.673       -5.989       44.935       71.140       45.132     2019.148     5060.885     2036.863        1.554        0.456      148.068       45.692        0.095      338.845       11.774      857.455
11/10/2014  17:32:00       55.277      143.463      -15.798       38.020       64.585       37.088     1445.498     4171.257     1375.485        1.544        0.350      153.744       41.360        0.072      338.841       11.767      857.462
11/10/2014  17:33:00       19.979      144.227      -11.926       38.073       52.368       31.695     1449.527     2742.458     1004.545        1.327        0.260      145.604       31.145        0.046      338.851       11.782      857.475
11/10/2014  17:34:00       29.564      113.896       -9.633       31.840       52.697       30.671     1013.810     2776.993      940.688        0.933        0.237      117.670       30.215        0.066      338.844       11.772      857.480
11/10/2014  17:35:00       32.894      105.923      -19.156       32.621       34.872       20.645     1064.099     1216.091      426.216        0.769        0.135      110.913       20.201        0.033      338.858       11.794      857.479
11/10/2014  17:36:00       11.830      111.263      -21.461       23.599       34.208       15.216      556.915     1170.191      231.517        0.747        0.098      111.890       17.555        0.025      338.861       11.801      857.474
11/10/2014  17:37:00       41.565       63.818      -10.344       34.786       40.371       27.180     1210.055     1629.853      738.730        0.474        0.179       76.160       25.067        0.108      338.761       11.633      857.455
11/10/2014  17:38:00       32.024       81.779       -0.007       32.246       42.914       31.848     1039.836     1841.624     1014.264        0.580        0.195       87.825       26.058        0.088      338.765       11.639      857.441
11/10/2014  17:39:00       14.079       31.876        2.188       23.359       29.466       20.218      545.666      868.238      408.748        0.152        0.091       34.846       19.035        0.298      338.737       11.590      857.435
11/10/2014  17:40:00       14.204      111.074      -20.634       25.062       46.497       17.071      628.114     2162.006      291.410        0.802        0.154      111.979       22.937        0.042      338.779       11.662      857.434
11/10/2014  17:41:00       22.071      108.951      -22.660       23.623       51.432       16.407      558.038     2645.219      269.184        0.817        0.174      111.164       20.096        0.033      338.705       11.539      857.423
11/10/2014  17:42:00       13.076       78.551       -7.383       35.979       40.172       21.375     1294.520     1613.829      456.909        0.488        0.168       79.632       19.763        0.062      338.714       11.553      857.428
11/10/2014  17:43:00      -18.649       90.468      -18.954       28.990       28.578       16.093      840.448      816.726      258.973        0.540        0.096       92.370       15.088        0.027      338.840       11.763      857.420
11/10/2014  17:44:00        4.836       75.237      -11.053       22.105       29.883       16.187      488.633      893.012      262.035        0.372        0.082       75.392       14.684        0.038      338.751       11.615      857.412
11/10/2014  17:45:00       -9.909       83.842      -15.484       19.921       25.591       12.784      396.858      654.920      163.436        0.429        0.061       84.425       10.347        0.015      338.823       11.736      857.407
11/10/2014  17:46:00      -20.122      116.955      -15.814       20.644       28.698       20.881      426.173      823.588      436.029        0.801        0.084      118.673       14.694        0.015      338.833       11.752      857.408
11/10/2014  17:47:00      -14.325      115.420      -20.579       23.790       29.536       16.079      565.958      872.372      258.528        0.782        0.085      116.306       13.128        0.013      338.837       11.759      857.416
11/10/2014  17:48:00       -6.340      109.051      -16.150       26.112       21.936       12.374      681.848      481.205      153.110        0.675        0.066      109.235        6.396        0.003      338.893       11.853      857.414
11/10/2014  17:49:00        4.161      123.880      -25.862       27.589       25.169       13.662      761.172      633.464      186.640        0.881        0.079      123.950       10.334        0.007      338.800       11.699      857.414
11/10/2014  17:50:00      -15.907       77.707      -13.012       31.758       25.669       16.600     1008.571      658.900      275.574        0.420        0.097       79.318       16.556        0.044      338.809       11.712      857.405
11/10/2014  17:51:00      -38.172       70.885      -17.245       27.306       19.187       15.183      745.640      368.124      230.519        0.406        0.067       80.510       13.501        0.028      338.809       11.713      857.406
11/10/2014  17:52:00      -70.617       89.653      -18.480       34.256       20.574       18.916     1173.500      423.299      357.815        0.766        0.098      114.125       12.691        0.012      338.849       11.778      857.415
11/10/2014  17:53:00      -59.668       76.609      -13.880       46.880       31.125       22.496     2197.706      968.788      506.083        0.665        0.184       97.105       25.907        0.071      338.801       11.699      857.412
11/10/2014  17:54:00      -66.530       97.562      -22.706       24.259       23.644       15.208      588.521      559.051      231.297        0.792        0.069      118.087       13.973        0.014      338.785       11.672      857.427
11/10/2014  17:55:00      -59.122       92.006      -23.520       26.842       25.555       19.942      720.492      653.033      397.702        0.714        0.089      109.364       14.050        0.017      338.767       11.642      857.433
11/10/2014  17:56:00      -76.649       80.208      -26.139       22.760       18.592       15.461      518.006      345.646      239.054        0.705        0.055      110.943       12.861        0.013      338.720       11.563      857.446
11/10/2014  17:57:00      -86.269      109.419      -26.796       27.030       42.946       20.684      730.607     1844.321      427.813        1.157        0.150      139.337       18.730        0.018      338.720       11.564      857.445
11/10/2014  17:58:00      -60.466       81.836      -16.129       37.425       31.387       30.055     1400.667      985.142      903.333        0.695        0.164      101.751       31.447        0.096      338.616       11.390      857.444
11/10/2014  17:59:00      -79.700      100.741      -30.329       33.387       33.627       20.289     1114.714     1130.805      411.649        1.004        0.133      128.456       19.639        0.023      338.600       11.362      857.442
11/10/2014  18:00:00      -37.580      113.191      -12.907       23.273       22.100       23.824      541.617      488.410      567.590        0.799        0.080      119.266       13.676        0.013      338.623       11.401      857.457
11/10/2014  18:01:00      -81.231      103.505      -21.913       22.837       21.053       19.748      521.546      443.236      389.987        0.957        0.068      131.574       12.271        0.009      338.662       11.466      857.469
11/10/2014  18:02:00     -109.756       91.569      -34.968       27.923       24.277       16.458      779.690      589.391      270.871        1.165        0.082      142.938       12.920        0.008      338.694       11.520      857.482
11/10/2014  18:03:00      -67.847       91.788      -21.694       26.479       25.452       19.260      701.160      647.787      370.945        0.761        0.086      114.142       15.668        0.019      338.532       11.248      857.490
11/10/2014  18:04:00      -59.458      101.939      -21.108       39.505       38.655       22.106     1560.666     1494.197      488.692        0.896        0.177      118.012       22.455        0.036      338.510       11.210      857.503
11/10/2014  18:05:00      -19.283       99.111      -23.202       36.982       28.264       20.150     1367.702      798.858      406.021        0.665        0.129      100.970       15.124        0.022      338.652       11.449      857.508
11/10/2014  18:06:00      -76.131       89.675      -22.339       63.537       34.470       25.341     4036.925     1188.164      642.148        1.010        0.293      117.633       30.123        0.066      338.617       11.391      857.526
11/10/2014  18:07:00      -88.706       80.274      -19.035       29.672       24.396       17.964      880.404      595.143      322.707        0.824        0.090      119.635       12.413        0.011      338.515       11.219      857.526
11/10/2014  18:08:00      -89.683       50.213      -21.431       21.416       40.074       18.577      458.649     1605.931      345.112        0.672        0.120      102.783       17.611        0.029      338.907       11.878      857.539
11/10/2014  18:09:00      -75.771       79.399      -24.539       32.390       25.738       17.265     1049.082      662.443      298.065        0.733        0.100      109.752       13.788        0.016      338.552       11.281      857.536
11/10/2014  18:10:00      -68.813       83.894      -20.906       25.223       26.422       22.614      636.221      698.133      511.384        0.703        0.092      108.505       16.633        0.023      338.584       11.334      857.526
11/10/2014  18:11:00      -44.635       61.220      -12.964       27.466       30.682       18.302      754.379      941.416      334.969        0.397        0.102       75.764       13.863        0.033      338.523       11.232      857.533
11/10/2014  18:12:00      -63.756       84.802      -19.547       33.455       37.696       19.746     1119.238     1420.962      389.886        0.728        0.147      106.095       22.441        0.045      338.474       11.150      857.537
11/10/2014  18:13:00      -50.060       81.496      -17.123       27.277       26.379       15.944      744.028      695.830      254.217        0.557        0.085       95.643       10.345        0.012      338.554       11.283      857.549
11/10/2014  18:14:00      -77.806       83.577      -22.491       24.201       26.668       14.685      585.689      711.156      215.660        0.753        0.076      114.188       10.518        0.008      338.505       11.202      857.557
11/10/2014  18:15:00      -46.973       95.788      -17.432       30.313       26.282       17.404      918.849      690.763      302.882        0.680        0.096      106.686       13.955        0.017      338.521       11.229      857.557
11/10/2014  18:16:00       -9.709       73.042       -8.489       35.727       35.101       24.141     1276.386     1232.114      582.779        0.430        0.155       73.684       17.802        0.058      338.553       11.281      857.563
11/10/2014  18:17:00      -19.384       64.839       -5.934       20.992       35.024       18.870      440.684     1226.665      356.079        0.332        0.101       67.675       22.060        0.106      338.404       11.032      857.570
11/10/2014  18:18:00        6.314      115.372      -18.031       26.629       29.976       22.472      709.115      898.585      504.973        0.789        0.106      115.545       18.620        0.026      338.393       11.014      857.575
11/10/2014  18:19:00      -33.449      104.938      -14.736       38.990       41.729       23.757     1520.256     1741.344      564.373        0.809        0.191      110.140       20.500        0.035      338.406       11.036      857.564
11/10/2014  18:20:00      -38.627      108.680      -20.832       43.407       34.641       21.046     1884.158     1200.025      442.914        0.863        0.176      115.341       17.855        0.024      338.363       10.963      857.566
11/10/2014  18:21:00      -62.540       93.047      -22.967       34.075       31.250       18.992     1161.091      976.552      360.690        0.780        0.125      112.111       13.372        0.014      338.372       10.978      857.566
11/10/2014  18:22:00      -27.483       64.348       -9.575       23.085       24.251       16.584      532.914      588.100      275.014        0.319        0.070       69.971       10.128        0.021      338.278       10.822      857.563
11/10/2014  18:23:00      -28.663       88.576      -15.873       34.120       41.262       21.217     1164.185     1702.538      450.179        0.612        0.166       93.099       22.179        0.057      338.381       10.995      857.571
11/10/2014  18:24:00       -3.506       81.672      -16.915       31.440       33.827       15.756      988.476     1144.254      248.254        0.467        0.119       81.747       10.420        0.016      338.312       10.879      857.563
11/10/2014  18:25:00      -23.310      104.562       -8.921       36.456       42.102       27.992     1329.019     1772.554      783.540        0.772        0.194      107.129       29.350        0.075      338.413       11.049      857.561
11/10/2014  18:26:00      -26.759       95.330      -14.965       37.937       43.876       25.993     1439.199     1925.113      675.620        0.703        0.202       99.014       25.338        0.065      338.413       11.047      857.546
11/10/2014  18:27:00       -2.560       62.852      -18.785       27.480       17.498       10.835      755.134      306.195      117.403        0.274        0.059       62.904        8.881        0.020      338.255       10.783      857.520
11/10/2014  18:28:00        8.613       70.090      -15.111       30.339       29.518       11.532      920.476      871.306      132.995        0.357        0.096       70.617       11.074        0.025      338.250       10.774      857.510
11/10/2014  18:29:00       -5.431       91.786      -15.531       30.511       33.739       16.676      930.938     1138.329      278.079        0.552        0.117       91.947       14.351        0.024      338.389       11.007      857.489
11/10/2014  18:30:00       -4.337      106.893      -19.485       25.152       35.698       14.519      632.621     1274.364      210.810        0.697        0.106      106.981       15.208        0.020      338.301       10.858      857.463
11/10/2014  18:31:00        2.745       57.142       -8.885       20.206       15.549        9.606      408.277      241.769       92.277        0.205        0.037       57.208        9.089        0.025      338.227       10.735      857.456
11/10/2014  18:32:00       12.480       74.600      -16.415       23.018       24.124       14.062      529.807      581.976      197.734        0.365        0.065       75.637       15.717        0.043      338.261       10.793      857.447
11/10/2014  18:33:00      -32.140       72.493      -15.783       31.421       24.325       14.310      987.249      591.691      204.783        0.416        0.089       79.298       15.155        0.037      338.380       10.992      857.440
11/10/2014  18:34:00       -9.832       93.122      -18.366       23.119       25.564       13.479      534.469      653.505      181.696        0.524        0.068       93.640       15.642        0.028      338.344       10.933      857.454
11/10/2014  18:35:00      -15.146       74.465       -2.790       36.556       31.843       19.217     1336.372     1013.987      369.307        0.425        0.136       75.990       10.791        0.020      338.354       10.949      857.451
11/10/2014  18:36:00      -16.594       59.518       -8.582       26.376       28.597       18.585      695.684      817.786      345.408        0.287        0.093       61.788       16.463        0.071      338.326       10.901      857.455
11/10/2014  18:37:00      -21.987       49.857      -10.063       29.378       17.714       12.371      863.056      313.777      153.037        0.220        0.066       54.490        9.622        0.031      338.377       10.986      857.445
11/10/2014  18:38:00      -61.637       54.072      -18.332       27.455       17.644       18.529      753.791      311.300      343.338        0.423        0.070       81.994        7.657        0.009      338.388       11.007      857.438
11/10/2014  18:39:00      -97.787       21.424      -22.041       24.440       45.877       21.520      597.337     2104.706      463.114        0.684        0.158      100.106       19.676        0.039      338.578       11.325      857.434
11/10/2014  18:40:00      -68.724      -27.115       -8.882       33.685       21.248       19.317     1134.689      451.479      373.152        0.375        0.098       73.880       15.879        0.046      338.362       10.961      857.429
11/10/2014  18:41:00      -64.247      -39.342       -7.853       34.217       31.676       15.107     1170.835     1003.390      228.222        0.407        0.120       75.336        7.120        0.009      338.116       10.549      857.415
11/10/2014  18:42:00      -62.368      -33.862       -3.674       31.312       28.460       18.079      980.464      809.944      326.858        0.358        0.106       70.967       15.096        0.045      338.068       10.469      857.409
11/10/2014  18:43:00      -52.516      -17.992       -0.958       27.311       41.891       15.626      745.878     1754.850      244.178        0.291        0.137       55.512       11.733        0.045      338.158       10.619      857.406
11/10/2014  18:44:00      -53.622      -35.838       -0.980       46.821       36.534       17.380     2192.246     1334.767      302.052        0.399        0.191       64.496       16.381        0.065      337.975       10.312      857.406
11/10/2014  18:45:00      -42.775       14.971       -2.148       38.132       51.169       21.170     1454.050     2618.288      448.153        0.329        0.226       45.319       19.743        0.190      338.259       10.789      857.408
11/10/2014  18:46:00      -85.218       61.635      -17.354       31.552       23.500       25.141      995.505      552.253      632.049        0.677        0.109      105.171       23.055        0.048      338.331       10.910      857.409
11/10/2014  18:47:00      -68.072       39.956      -15.800       37.230       49.912       21.947     1386.059     2491.257      481.682        0.542        0.218       78.932       21.578        0.075      338.337       10.921      857.412
11/10/2014  18:48:00      -41.162      -22.259        7.885       33.334       43.783       24.387     1111.179     1916.949      594.731        0.294        0.181       46.795       16.620        0.126      338.118       10.551      857.415
11/10/2014  18:49:00      -20.326       15.696       -3.525       32.785       29.545       28.822     1074.834      872.905      830.679        0.172        0.139       25.681       17.492        0.464      338.094       10.513      857.419
11/10/2014  18:50:00      -87.508       33.027      -20.510       31.267       44.071       22.181      977.630     1942.237      492.018        0.629        0.171       93.534       17.450        0.035      338.370       10.975      857.431
11/10/2014  18:51:00      -93.316       50.200      -29.076       22.617       32.066       16.920      511.539     1028.223      286.273        0.695        0.091      105.962       14.076        0.018      338.259       10.789      857.429
11/10/2014  18:52:00     -107.845       52.387      -17.757       42.914       43.177       22.217     1841.572     1864.272      493.591        0.944        0.210      119.896       26.224        0.048      338.324       10.899      857.419
11/10/2014  18:53:00      -84.130       38.948      -21.667       24.975       29.211       17.556      623.775      853.267      308.210        0.542        0.089       92.708       12.414        0.018      338.474       11.151      857.413
11/10/2014  18:54:00      -89.068       55.101      -25.335       33.510       33.788       20.109     1122.909     1141.642      404.368        0.714        0.133      104.734       12.900        0.015      338.291       10.841      857.405
11/10/2014  18:55:00     -102.458       45.294      -26.107       30.973       42.427       20.739      959.309     1800.031      430.092        0.821        0.159      112.024       18.707        0.028      338.235       10.749      857.386
11/10/2014  18:56:00      -92.025       61.390      -25.018       35.485       39.527       21.424     1259.166     1562.371      459.009        0.807        0.164      110.622       15.471        0.020      338.287       10.835      857.375
11/10/2014  18:57:00     -106.869       49.234      -22.019       25.589       32.787       20.999      654.820     1074.992      440.957        0.825        0.109      117.665       13.371        0.013      338.233       10.746      857.379
11/10/2014  18:58:00      -90.681       44.948      -11.028       25.268       44.782       25.456      638.486     2005.451      648.015        0.683        0.165      101.210       20.603        0.041      338.244       10.764      857.384
11/10/2014  18:59:00      -88.527       51.893      -22.108       31.305       31.531       22.972      980.016      994.191      527.716        0.676        0.125      102.615       10.939        0.011      338.201       10.691      857.362
11/10/2014  19:00:00      -96.505       46.984      -28.118       25.932       36.790       20.419      672.468     1353.524      416.934        0.738        0.122      107.335       15.539        0.021      338.155       10.614      857.334
11/10/2014  19:01:00     -100.709       53.061      -18.335       21.967       27.807       24.160      482.571      773.234      583.704        0.757        0.092      113.832       15.452        0.018      338.140       10.590      857.317
11/10/2014  19:02:00      -75.481       31.774      -13.144       41.484       38.864       21.514     1720.907     1510.445      462.851        0.529        0.185       81.896       23.295        0.081      338.169       10.639      857.309
11/10/2014  19:03:00      -58.988       39.092      -21.414       28.753       35.663       20.573      826.731     1271.835      423.231        0.399        0.126       70.765       13.954        0.039      338.116       10.550      857.300
11/10/2014  19:04:00      -29.367       27.543       -1.089       37.812       39.906       21.577     1429.766     1592.486      465.553        0.255        0.174       40.262       27.682        0.473      338.014       10.378      857.299
11/10/2014  19:05:00      -58.006       50.969      -12.345       29.861       29.079       23.447      891.656      845.616      549.784        0.420        0.114       77.218       13.658        0.031      338.090       10.504      857.299
11/10/2014  19:06:00      -28.458      -16.206        5.263       27.908       30.994       17.905      778.830      960.613      320.576        0.158        0.103       32.749       13.491        0.170      337.873       10.141      857.300
11/10/2014  19:07:00      -32.308       26.229       -9.446       26.703       33.210       10.713      713.060     1102.899      114.765        0.188        0.097       41.614        8.614        0.043      337.933       10.243      857.302
11/10/2014  19:08:00      -46.006        4.747       -5.577       23.698       36.628       16.206      561.610     1341.630      262.627        0.217        0.108       46.250       15.930        0.119      337.895       10.178      857.304
11/10/2014  19:09:00      -55.479        6.343      -12.205       35.346       47.384       15.370     1249.330     2245.235      236.226        0.350        0.187       55.841       17.545        0.099      337.859       10.118      857.302
11/10/2014  19:10:00      -44.853       34.696      -20.504       29.230       32.042       20.060      854.416     1026.715      402.423        0.296        0.114       56.706       16.301        0.083      338.006       10.365      857.291
11/10/2014  19:11:00      -83.878       58.350      -23.533       28.177       28.562       17.173      793.916      815.813      294.921        0.645        0.095      102.178       10.975        0.012      338.124       10.561      857.283
11/10/2014  19:12:00      -87.993       79.098      -32.311       14.419       14.865       12.327      207.917      220.963      151.948        0.781        0.029      118.318        7.208        0.004      337.753        9.938      857.280
11/10/2014  19:13:00      -89.490       52.664      -23.590       26.451       27.618       20.019      699.679      762.736      400.775        0.660        0.093      103.836        9.377        0.008      338.188       10.671      857.279
11/10/2014  19:14:00      -60.772       63.232      -23.780       25.243       22.831       20.615      637.222      521.242      424.974        0.492        0.079       87.701       12.974        0.022      337.725        9.894      857.272
11/10/2014  19:15:00      -75.430       65.561      -27.776       26.924       23.248       12.101      724.876      540.448      146.422        0.609        0.071       99.940        6.919        0.005      337.780        9.985      857.256
11/10/2014  19:16:00      -50.277       81.359      -20.942       22.580       20.221       15.529      509.839      408.895      241.151        0.537        0.058       95.641       11.837        0.015      337.747        9.930      857.243
11/10/2014  19:17:00      -48.645       65.916      -19.851       27.241       19.917       14.081      742.076      396.678      198.277        0.422        0.067       81.922       14.267        0.030      337.817       10.047      857.213
11/10/2014  19:18:00      -58.625       48.695      -19.779       21.611       17.652       20.180      467.039      311.593      407.222        0.369        0.059       76.211        9.245        0.015      337.859       10.116      857.195
11/10/2014  19:19:00      -21.595       58.334      -13.580       30.716       18.955       14.680      943.487      359.307      215.506        0.279        0.076       62.203        9.762        0.025      337.762        9.955      857.190
11/10/2014  19:20:00      -24.544       39.483        1.217       22.850       39.566       19.346      522.127     1565.450      374.256        0.231        0.123       46.490       21.481        0.213      337.759        9.949      857.191
11/10/2014  19:21:00      -48.948       60.410      -11.743       30.379       28.976       23.425      922.872      839.634      548.717        0.425        0.116       77.752       21.333        0.075      337.705        9.860      857.180
11/10/2014  19:22:00      -46.191       71.199      -24.472       28.308       18.688       11.291      801.344      349.239      127.485        0.454        0.064       84.870        9.525        0.013      337.703        9.855      857.176
11/10/2014  19:23:00      -52.220       70.928      -16.853       24.756       20.933       15.649      612.860      438.200      244.896        0.467        0.065       88.078       11.137        0.016      337.658        9.781      857.181
11/10/2014  19:24:00        8.436       62.933        2.644       24.955       36.331       23.788      622.777     1319.922      565.875        0.327        0.125       63.496       18.660        0.086      337.673        9.806      857.176
11/10/2014  19:25:00      -25.208       10.811       -6.976       31.642       30.635       20.399     1001.193      938.508      416.105        0.158        0.118       27.428       16.627        0.367      337.701        9.852      857.161
11/10/2014  19:26:00      -30.536       -4.510        2.660       27.759       24.788       16.399      770.557      614.434      268.911        0.131        0.083       30.867       14.903        0.233      337.507        9.528      857.143
11/10/2014  19:27:00      -80.551      -50.930       -4.688       23.037       21.154       15.486      530.689      447.489      239.816        0.516        0.061       95.301       14.012        0.022      337.249        9.096      857.124
11/10/2014  19:28:00      -34.708      -28.293       -3.028       40.899       23.991       15.704     1672.738      575.557      246.602        0.225        0.125       44.779       10.650        0.057      337.316        9.207      857.108
11/10/2014  19:29:00      -29.649      -33.922       -2.403       28.367       22.083       12.509      804.661      487.663      156.467        0.174        0.072       45.053        4.490        0.010      337.266        9.125      857.098
11/10/2014  19:30:00      -29.607      -19.126        3.830       38.065       33.978       16.513     1448.974     1154.481      272.667        0.207        0.144       35.247       12.683        0.129      337.368        9.295      857.086
11/10/2014  19:31:00      -41.060      -15.091        1.308       39.775       27.864       22.412     1582.035      776.387      502.307        0.239        0.143       43.746       19.628        0.201      337.352        9.269      857.085
11/10/2014  19:32:00        0.851       -0.535        4.108       18.928       27.842       17.461      358.276      775.202      304.880        0.073        0.072        1.005       10.979      119.271      337.473        9.469      857.072
11/10/2014  19:33:00      -27.434        1.190       -9.878       24.980       42.665       22.157      623.993     1820.277      490.913        0.189        0.147       27.460       18.774        0.467      337.597        9.679      857.066
11/10/2014  19:34:00      -12.929       -4.562        7.659       28.318       37.452       26.416      801.905     1402.676      697.792        0.157        0.145       13.710       12.311        0.806      337.359        9.280      857.063
11/10/2014  19:35:00      -10.458       -7.041        1.397       25.089       49.292       28.345      629.436     2429.703      803.426        0.201        0.193       12.607        9.678        0.589      337.394        9.338      857.067
11/10/2014  19:36:00        6.794        8.800        3.378       25.962       27.640       24.423      674.035      763.971      596.498        0.108        0.102       11.118        7.198        0.419      337.459        9.447      857.068
11/10/2014  19:37:00      -11.961       -0.231        3.101       24.035       22.587       21.206      577.692      510.173      449.680        0.084        0.077       11.963       15.050        1.583      337.433        9.403      857.066
11/10/2014  19:38:00      -58.624      -29.453       -5.301       37.380       32.761       22.525     1397.270     1073.287      507.371        0.365        0.149       65.607       14.746        0.051      337.291        9.165      857.065
11/10/2014  19:39:00      -39.924      -24.503        1.699       27.772       27.360       20.745      771.261      748.548      430.337        0.207        0.098       46.843        6.375        0.019      337.162        8.950      857.067
11/10/2014  19:40:00      -19.530       -3.406       10.187       28.665       47.995       21.329      821.697     2303.525      454.935        0.204        0.179       19.825       11.584        0.341      337.129        8.893      857.050
11/10/2014  19:41:00       -9.009      -25.493        2.482       19.355       23.581       18.517      374.633      556.059      342.862        0.101        0.064       27.038       10.863        0.161      337.087        8.824      857.023
11/10/2014  19:42:00        5.148      -14.775        3.102       18.423       26.194       14.271      339.389      686.147      203.674        0.074        0.061       15.646        7.541        0.232      337.237        9.074      857.017
11/10/2014  19:43:00      -24.882        8.072       -7.669       36.572       35.801       17.218     1337.507     1281.739      296.474        0.183        0.146       26.158       12.775        0.239      337.243        9.086      856.998
11/10/2014  19:44:00      -18.007      -17.805       -0.552       22.066       25.994       16.212      486.907      675.672      262.842        0.103        0.071       25.324        8.409        0.110      337.092        8.834      856.987
11/10/2014  19:45:00       -6.724        1.777        0.137       14.936       21.294       15.027      223.084      453.443      225.813        0.048        0.045        6.954       11.672        2.817      337.087        8.824      856.993
11/10/2014  19:46:00      -64.792       -8.799      -11.454       30.986       22.485       11.996      960.116      505.564      143.897        0.301        0.080       65.386        9.936        0.023      337.074        8.803      856.985
11/10/2014  19:47:00      -18.312      -10.020        5.866       21.071       19.383       16.743      443.977      375.715      280.330        0.078        0.055       20.874        6.937        0.110      337.207        9.026      856.982
11/10/2014  19:48:00        6.896       -9.199        2.514       14.690       13.773       14.460      215.809      189.695      209.094        0.038        0.031       11.497        5.316        0.214      337.188        8.993      856.999
11/10/2014  19:49:00        7.725        4.453       -1.543       24.336       17.513       21.255      592.245      306.707      451.761        0.072        0.068        8.916       16.921        3.601      337.172        8.969      857.000
11/10/2014  19:50:00       -0.130      -14.040      -10.451       13.384       17.970       15.995      179.125      322.932      255.827        0.053        0.038       14.040       12.729        0.822      337.194        9.004      856.989
11/10/2014  19:51:00      -13.716       -2.176      -12.893       20.535       24.824       11.167      421.671      616.229      124.696        0.076        0.058       13.887        8.103        0.340      337.392        9.336      856.979
11/10/2014  19:52:00      -24.359      -25.868       -6.014       26.650       21.438       14.877      710.221      459.570      221.323        0.134        0.070       35.532       10.493        0.087      337.178        8.976      856.969
11/10/2014  19:53:00       10.901       -9.081        6.442       21.133       14.396       12.484      446.619      207.247      155.850        0.053        0.040       14.188        5.140        0.131      337.138        8.910      856.956
11/10/2014  19:54:00        6.655       -7.631        4.765       14.059       14.239        9.059      197.662      202.750       82.072        0.030        0.024       10.125        8.640        0.728      337.166        8.957      856.960
11/10/2014  19:55:00       -3.435       -3.197       -5.707       15.182       20.823        9.882      230.482      433.612       97.645        0.041        0.038        4.693        9.768        4.333      337.238        9.077      856.953
11/10/2014  19:56:00      -22.961       10.495       -5.855       20.505       28.544       16.689      420.439      814.788      278.510        0.109        0.076       25.246        6.043        0.057      337.262        9.117      856.953
11/10/2014  19:57:00      -32.574      -29.732      -12.800       29.222       19.399       11.816      853.901      376.306      139.609        0.174        0.068       44.103        7.834        0.032      336.907        8.524      856.947
11/10/2014  19:58:00      -34.523      -19.483       -3.814       29.870       18.926       14.921      892.246      358.187      222.630        0.153        0.074       39.641       12.212        0.095      336.877        8.473      856.927
11/10/2014  19:59:00      -46.246      -21.692       -6.918       42.646       19.895       19.277     1818.655      395.817      371.609        0.262        0.129       51.081       12.637        0.061      336.973        8.633      856.929
11/10/2014  20:00:00      -29.982        1.544        6.423       45.605       20.848       22.087     2079.803      434.622      487.837        0.197        0.150       30.022       23.830        0.630      336.899        8.511      856.919
11/10/2014  20:01:00      -11.653        4.463        1.617       18.964       29.865       16.201      359.629      891.944      262.464        0.084        0.076       12.479       16.509        1.750      337.175        8.972      856.883
11/10/2014  20:02:00        0.828       19.302        4.897       15.209       19.063       10.920      231.303      363.412      119.244        0.056        0.036       19.319       10.325        0.286      337.196        9.007      856.866
11/10/2014  20:03:00      -34.380        3.028       -6.302       12.375       29.596       13.370      153.146      875.936      178.760        0.122        0.060       34.513       10.496        0.092      337.067        8.790      856.856
11/10/2014  20:04:00      -51.076      -31.168      -12.878       14.864       12.104       13.213      220.935      146.502      174.586        0.214        0.027       59.835        9.532        0.025      336.801        8.348      856.872
11/10/2014  20:05:00      -23.924      -14.820      -16.537       30.299       19.033        9.085      918.003      362.256       82.531        0.121        0.068       28.142        9.102        0.105      336.935        8.571      856.870
11/10/2014  20:06:00        5.883       11.411        7.614       13.916       19.124       13.476      193.664      365.742      181.605        0.048        0.037       12.839        9.726        0.574      337.100        8.846      856.852
11/10/2014  20:07:00       25.771       62.342       -2.858       18.365       14.343       10.846      337.273      205.713      117.626        0.261        0.033       67.459        7.742        0.013      337.397        9.343      856.845
11/10/2014  20:08:00        9.471       58.335        0.466       21.037       18.020       15.630      442.562      324.734      244.282        0.225        0.051       59.099       13.789        0.054      337.497        9.511      856.837
11/10/2014  20:09:00       25.921       36.455        2.307       16.831       14.314       13.982      283.267      204.883      195.494        0.134        0.034       44.731        9.551        0.046      337.395        9.341      856.846
11/10/2014  20:10:00       29.609       40.713       15.092       20.814       16.571       13.399      433.207      274.586      179.526        0.182        0.044       50.342       12.334        0.060      337.357        9.277      856.848
11/10/2014  20:11:00       24.445       69.623       -8.933       26.464       31.796       14.086      700.327     1010.956      198.406        0.372        0.095       73.790       16.582        0.051      337.338        9.244      856.850
11/10/2014  20:12:00       32.586       72.478        1.195       30.263       32.586       27.976      915.848     1061.850      782.684        0.454        0.138       79.466       25.776        0.105      337.294        9.171      856.850
11/10/2014  20:13:00       14.565       97.033      -14.902       14.720       18.924        8.535      216.682      358.111       72.851        0.525        0.032       98.120        8.501        0.008      337.356        9.273      856.838
11/10/2014  20:14:00       13.310      104.900      -14.007       14.090       16.080        9.254      198.521      258.570       85.641        0.596        0.027      105.741        7.971        0.006      337.321        9.215      856.840
11/10/2014  20:15:00       -3.880       94.620      -12.922       20.777       12.557        8.439      431.703      157.676       71.215        0.490        0.033       94.700        5.018        0.003      337.355        9.273      856.852
11/10/2014  20:16:00        1.619       82.835      -14.281       13.881       13.478        9.396      192.695      181.644       88.284        0.377        0.023       82.851        7.595        0.008      337.292        9.168      856.850
11/10/2014  20:17:00        6.731       53.257       -3.241       31.274       28.549       13.471      978.047      815.031      181.460        0.243        0.099       53.681       10.759        0.040      337.131        8.898      856.846
11/10/2014  20:18:00       -5.383       67.682       -7.585       19.217       19.223        9.965      369.312      369.506       99.303        0.275        0.042       67.896       10.552        0.024      337.258        9.112      856.852
11/10/2014  20:19:00      -43.216       -0.864       -6.528       19.342       22.701       11.872      374.121      515.334      140.944        0.147        0.052       43.224        9.296        0.046      336.703        8.184      856.846
11/10/2014  20:20:00      -64.404      -10.662       -0.738       14.657       17.482       15.054      214.825      305.610      226.615        0.250        0.037       65.281        6.836        0.011      336.632        8.064      856.852
11/10/2014  20:21:00      -57.455      -16.910      -11.777       12.419       14.367       10.401      154.221      206.413      108.179        0.210        0.023       59.892        7.092        0.014      336.498        7.841      856.863
11/10/2014  20:22:00      -40.797      -25.840      -11.416       21.225       16.238        9.501      450.494      263.678       90.268        0.163        0.040       48.292        4.277        0.008      336.543        7.916      856.871
11/10/2014  20:23:00      -36.622      -12.446      -10.487       17.910       14.977       10.767      320.769      224.305      115.928        0.113        0.033       38.680        8.276        0.046      336.618        8.041      856.873
11/10/2014  20:24:00      -37.789      -24.161       -5.872       20.346       15.523       12.310      413.952      240.974      151.535        0.143        0.040       44.852        9.321        0.043      336.526        7.888      856.882
11/10/2014  20:25:00      -63.761      -16.851      -10.354       17.367       14.507       13.875      301.627      210.464      192.517        0.258        0.035       65.950        9.168        0.019      336.400        7.676      856.889
11/10/2014  20:26:00      -79.695      -22.722       -9.975       17.681       21.325       14.770      312.624      454.756      218.151        0.398        0.049       82.871        7.587        0.008      336.364        7.616      856.910
11/10/2014  20:27:00      -85.824       -6.003       -7.961       28.299       23.677       14.906      800.820      560.609      222.195        0.452        0.079       86.033       14.225        0.027      336.272        7.461      856.932
11/10/2014  20:28:00     -114.648      -26.484      -19.457       20.269       17.976       16.920      410.824      323.133      286.283        0.762        0.051      117.667       11.716        0.010      336.241        7.410      856.941
11/10/2014  20:29:00      -91.610      -19.318       -8.292       19.829       30.690       14.693      393.202      941.870      215.893        0.519        0.078       93.624       10.061        0.012      336.274        7.466      856.939
11/10/2014  20:30:00     -106.276      -36.454      -12.392       16.668       27.696       11.280      277.814      767.091      127.232        0.697        0.059      112.354        7.242        0.004      336.187        7.319      856.958
11/10/2014  20:31:00      -96.801      -24.037       -4.092       30.450       24.421       15.094      927.177      596.397      227.840        0.586        0.088       99.740       14.659        0.022      336.126        7.217      856.972
11/10/2014  20:32:00      -28.987      -13.116        4.814       21.896       11.943       10.501      479.437      142.627      110.277        0.088        0.037       31.816        8.975        0.080      336.178        7.305      856.966
11/10/2014  20:33:00      -31.965      -31.227       -5.236       18.644       22.838       16.793      347.596      521.566      282.002        0.159        0.058       44.686        9.860        0.049      336.260        7.443      856.973
11/10/2014  20:34:00      -41.452      -35.987       -8.401       18.217       17.109       17.240      331.847      292.733      297.228        0.200        0.046       54.894        9.281        0.029      336.215        7.368      856.970
11/10/2014  20:35:00      -78.494      -31.830      -18.464       11.364       19.914       10.686      129.132      396.569      114.181        0.408        0.032       84.702        9.311        0.012      336.241        7.411      856.969
11/10/2014  20:36:00      -83.022      -35.273      -13.088       20.354       17.323       10.951      414.282      300.073      119.922        0.457        0.042       90.204        9.199        0.010      336.247        7.421      856.964
11/10/2014  20:37:00      -71.831      -23.362       -7.531       13.507       13.185       13.896      182.448      173.841      193.096        0.316        0.027       75.535        8.994        0.014      336.334        7.565      856.967
11/10/2014  20:38:00      -81.821      -20.214      -13.870       15.722       11.908       14.704      247.172      141.807      216.196        0.395        0.030       84.281        7.954        0.009      336.261        7.444      856.962
11/10/2014  20:39:00      -67.752      -19.863       -6.903       17.941       12.551       14.485      321.883      157.523      209.823        0.286        0.034       70.604       10.084        0.020      336.205        7.350      856.962
11/10/2014  20:40:00      -85.046      -16.970       -9.076       27.704       15.523       11.776      767.521      240.959      138.683        0.437        0.057       86.723       12.292        0.020      336.150        7.258      856.956
11/10/2014  20:41:00     -109.662      -10.355      -14.628       31.979       21.833       16.328     1022.655      476.684      266.614        0.706        0.088      110.150       12.708        0.013      336.185        7.317      856.961
11/10/2014  20:42:00     -117.758      -30.976      -14.659       26.128       15.787       14.518      682.697      249.241      210.777        0.809        0.057      121.764       12.358        0.010      336.091        7.159      856.974
11/10/2014  20:43:00     -104.858       -8.866       -8.247       32.581       29.827       14.788     1061.531      889.653      218.686        0.666        0.108      105.232       12.796        0.015      336.026        7.050      856.967
11/10/2014  20:44:00      -71.315      -14.023       -4.262       24.753       20.626       16.492      612.722      425.450      271.978        0.331        0.066       72.680        9.929        0.019      336.063        7.112      856.958
11/10/2014  20:45:00      -76.113      -21.937       -5.354       31.861       34.960       17.720     1015.093     1222.196      313.989        0.443        0.128       79.212       15.553        0.039      336.071        7.125      856.962
11/10/2014  20:46:00      -93.469      -22.663      -13.032       30.942       18.477       15.612      957.418      341.406      243.732        0.548        0.077       96.177        7.270        0.006      336.075        7.133      856.965
11/10/2014  20:47:00      -67.113      -30.305       -6.962       22.676       21.663       13.770      514.213      469.280      189.614        0.332        0.059       73.638       11.890        0.026      336.015        7.033      856.970
11/10/2014  20:48:00      -67.628      -37.612       -9.831       32.748       27.524       18.776     1072.445      757.560      352.527        0.413        0.109       77.384       10.517        0.018      336.064        7.115      856.974
11/10/2014  20:49:00      -64.758      -24.073       -0.831       32.463       27.468       16.393     1053.819      754.475      268.719        0.342        0.104       69.087       15.762        0.052      335.970        6.958      856.980
11/10/2014  20:50:00      -81.588      -28.788       -9.178       27.787       36.889       13.960      772.128     1360.798      194.892        0.495        0.116       86.518       13.693        0.025      336.000        7.007      856.988
11/10/2014  20:51:00      -57.565      -17.427       -2.761       21.893       17.451       17.111      479.294      304.527      292.781        0.235        0.054       60.145       14.463        0.058      336.014        7.029      856.996
11/10/2014  20:52:00      -26.499       -2.579       -0.543       27.915       21.101       13.206      779.240      445.267      174.390        0.105        0.070       26.625       12.991        0.238      336.122        7.212      857.001
11/10/2014  20:53:00      -73.213      -25.138       -7.722       29.481       16.480        9.252      869.127      271.604       85.603        0.364        0.061       77.408       11.094        0.021      336.126        7.217      857.008
11/10/2014  20:54:00      -26.149      -27.424       -0.391       17.698       17.639       16.138      313.228      311.147      260.429        0.116        0.044       37.892       11.289        0.089      336.111        7.193      857.022
11/10/2014  20:55:00       -6.967       -5.507        0.797       28.531       25.083       16.148      814.001      629.157      260.742        0.089        0.085        8.880       17.785        4.011      336.237        7.402      857.005
11/10/2014  20:56:00      -32.437       28.890       -3.366       30.856       28.873       16.691      952.067      833.644      278.583        0.198        0.103       43.438       10.095        0.054      336.333        7.564      857.012
11/10/2014  20:57:00      -36.256        9.681      -15.057       17.827       30.626       13.451      317.791      937.953      180.919        0.154        0.072       37.527       12.272        0.107      336.422        7.714      857.020
11/10/2014  20:58:00      -27.312       -5.032       -1.367       34.300       32.314       20.905     1176.513     1044.205      437.036        0.171        0.133       27.772       15.651        0.318      336.338        7.573      857.028
11/10/2014  20:59:00      -45.059       26.161       -7.892       27.541       19.654       21.023      758.492      386.271      441.953        0.218        0.079       52.103       17.750        0.116      336.378        7.639      857.033
11/10/2014  21:00:00      -71.929       74.288      -19.977       20.548       32.298       13.697      422.238     1043.132      187.595        0.637        0.083      103.405        8.030        0.006      336.457        7.771      857.033
11/10/2014  21:01:00      -57.004       74.030      -15.567       21.484       17.150       15.229      461.574      294.133      231.932        0.498        0.049       93.434        9.696        0.011      336.504        7.850      857.009
11/10/2014  21:02:00      -38.961       77.457       -7.440       31.922       24.787       19.497     1018.991      614.413      380.116        0.479        0.101       86.704       17.555        0.041      336.515        7.869      857.002
11/10/2014  21:03:00      -20.840       86.198      -12.280       29.823       23.248       14.338      889.418      540.477      205.585        0.482        0.082       88.681        7.834        0.008      336.597        8.006      856.994
11/10/2014  21:04:00      -34.872       49.250       -5.722       26.785       30.750       18.502      717.449      945.585      342.331        0.284        0.100       60.346       16.239        0.072      336.535        7.903      856.979
11/10/2014  21:05:00      -63.059       62.380      -18.593       18.109       30.502       14.367      327.950      930.374      206.417        0.484        0.073       88.700       14.905        0.028      336.478        7.807      856.974
11/10/2014  21:06:00      -42.310       39.474       -9.326       18.646       27.005        9.942      347.666      729.290       98.852        0.231        0.059       57.864       12.655        0.048      336.550        7.928      856.979
11/10/2014  21:07:00      -36.593       42.483       -9.379       23.451       20.888       13.366      549.941      436.298      178.656        0.220        0.058       56.070       14.042        0.063      336.571        7.963      856.976
11/10/2014  21:08:00      -51.358       67.943      -21.142       15.624       26.155       10.321      244.122      684.088      106.531        0.437        0.052       85.170        8.389        0.010      336.571        7.963      856.977
11/10/2014  21:09:00       -0.284       68.665      -12.150       25.982       20.100       10.733      675.046      404.003      115.190        0.303        0.060       68.666       10.016        0.021      336.706        8.189      856.984
11/10/2014  21:10:00       -4.357       81.659       -9.677       21.425       25.095       13.781      459.010      629.751      189.915        0.403        0.064       81.775       13.570        0.028      336.635        8.071      857.000
11/10/2014  21:11:00      -12.589       49.602       -7.278       16.588       30.954       14.175      275.150      958.141      200.932        0.205        0.072       51.174       14.475        0.080      336.544        7.918      857.037
11/10/2014  21:12:00      -28.424       25.620       -2.058       16.643       13.256       11.622      276.975      175.719      135.064        0.103        0.029       38.266        9.899        0.067      336.501        7.845      857.054
11/10/2014  21:13:00      -55.752       25.387       -9.516       15.740       25.536       11.761      247.758      652.079      138.325        0.244        0.052       61.260       12.947        0.045      336.543        7.916      857.051
11/10/2014  21:14:00      -48.698       41.234       -8.071       19.566       25.658       13.175      382.836      658.309      173.581        0.268        0.061       63.810       11.921        0.035      336.533        7.901      857.043
11/10/2014  21:15:00      -58.465       12.470       -9.368       12.898       20.392       13.324      166.363      415.834      177.521        0.221        0.038       59.780        6.124        0.010      336.628        8.057      857.053
11/10/2014  21:16:00      -52.299        1.435       -7.674       21.323       20.003       12.862      454.665      400.120      165.422        0.191        0.051       52.318       12.843        0.060      336.546        7.920      857.069
11/10/2014  21:17:00      -49.443       -8.342      -15.035       16.274       22.972       10.487      264.832      527.709      109.985        0.182        0.045       50.142        9.282        0.034      336.464        7.782      857.077
11/10/2014  21:18:00      -36.547        9.261       -1.764       19.323       32.531       17.212      373.373     1058.282      296.236        0.158        0.086       37.702       14.176        0.141      336.391        7.662      857.074
11/10/2014  21:19:00      -76.643       35.703      -18.222       22.603       18.034       12.056      510.887      325.241      145.338        0.423        0.049       84.551        8.869        0.011      336.442        7.747      857.074
11/10/2014  21:20:00      -69.960       29.194       -3.990       20.250       20.485       18.793      410.079      419.649      353.179        0.347        0.059       75.807       12.582        0.028      336.375        7.635      857.072
11/10/2014  21:21:00      -92.283       46.026      -15.647       26.926       22.908       19.603      725.004      524.770      384.284        0.626        0.082      103.124       17.256        0.028      336.393        7.664      857.081
11/10/2014  21:22:00      -66.225       28.151       -6.988       29.526       15.441       16.466      871.771      238.415      271.143        0.330        0.069       71.960        7.766        0.012      336.316        7.535      857.084
11/10/2014  21:23:00      -64.141       11.242      -10.784       14.613       15.794       11.721      213.536      249.447      137.384        0.248        0.030       65.119        9.485        0.021      336.408        7.689      857.087
11/10/2014  21:24:00      -55.324       22.011      -12.362       14.976       27.747       11.606      224.276      769.884      134.694        0.241        0.056       59.542       11.786        0.039      336.455        7.768      857.085
11/10/2014  21:25:00      -57.329       54.237      -13.944       22.356       22.736       16.260      499.791      516.903      264.395        0.385        0.064       78.919       13.479        0.029      336.352        7.597      857.089
11/10/2014  21:26:00      -59.538       75.336      -19.655       23.974       22.060       12.796      574.760      486.658      163.749        0.542        0.061       96.022       11.512        0.014      336.454        7.766      857.094
11/10/2014  21:27:00      -42.074       37.589      -10.358       19.611       21.024       12.921      384.599      442.016      166.951        0.214        0.050       56.420       11.398        0.041      336.451        7.762      857.112
11/10/2014  21:28:00      -58.240        6.680       -6.154       16.180       26.669       10.374      261.781      711.247      107.621        0.228        0.054       58.622       11.493        0.038      336.461        7.778      857.134
11/10/2014  21:29:00      -45.225       -1.282       -9.019       11.877       19.463       11.113      141.053      378.799      123.504        0.139        0.032       45.243        9.056        0.040      336.366        7.620      857.167
11/10/2014  21:30:00      -47.322       12.081       -8.507        9.213       12.544       12.104       84.879      157.341      146.515        0.142        0.019       48.840        6.541        0.018      336.412        7.696      857.192
11/10/2014  21:31:00      -90.181       52.259      -21.659       22.400       28.061       12.929      501.780      787.392      167.153        0.639        0.073      104.228       15.524        0.022      336.421        7.711      857.194
11/10/2014  21:32:00      -78.999       35.152      -10.865       19.105       18.994       14.253      365.020      360.788      203.161        0.426        0.046       86.467        8.775        0.010      336.405        7.682      857.189
11/10/2014  21:33:00      -63.203       47.355      -11.046       19.913       32.969       15.395      396.514     1086.948      237.021        0.404        0.086       78.975       18.775        0.057      336.415        7.701      857.197
11/10/2014  21:34:00      -65.860       22.361       -5.471       19.570       16.039       14.877      382.992      257.238      221.323        0.286        0.043       69.553       12.096        0.030      336.431        7.729      857.193
11/10/2014  21:35:00      -51.413        1.456       -5.910       18.840       21.670       13.556      354.931      469.599      183.755        0.184        0.050       51.434       12.636        0.060      336.430        7.727      857.175
11/10/2014  21:36:00      -46.074      -13.433       -9.852       14.590       17.209       10.291      212.867      296.150      105.902        0.151        0.031       47.993        5.265        0.012      336.441        7.745      857.154
11/10/2014  21:37:00      -73.100      -12.685      -15.860       15.859       15.230       14.564      251.515      231.956      212.106        0.323        0.035       74.193        8.464        0.013      336.449        7.759      857.142
11/10/2014  21:38:00      -85.974      -18.267      -13.026       24.820       22.540       13.977      616.031      508.064      195.347        0.461        0.066       87.893        9.973        0.013      336.295        7.500      857.137
11/10/2014  21:39:00      -99.367      -46.098       -7.977       18.234       22.760       15.822      332.496      518.008      250.337        0.658        0.055      109.539       10.244        0.009      336.250        7.425      857.134
11/10/2014  21:40:00      -54.686      -16.938       -3.606       26.872       35.550       16.676      722.105     1263.777      278.094        0.278        0.113       57.249       16.080        0.079      336.222        7.379      857.142
11/10/2014  21:41:00      -43.676      -13.282       -9.062       17.350       23.841       10.168      301.020      568.393      103.396        0.157        0.049       45.651       10.470        0.053      336.225        7.382      857.144
11/10/2014  21:42:00      -61.247       33.494       -9.746       26.338       30.455       21.108      693.686      927.505      445.534        0.352        0.103       69.807       16.868        0.058      336.408        7.688      857.155
11/10/2014  21:43:00      -63.985       30.387      -13.535       30.092       38.174       23.058      905.556     1457.245      531.661        0.405        0.145       70.834       23.246        0.108      336.519        7.875      857.162
11/10/2014  21:44:00      -62.153       24.575      -12.437       26.960       25.971       18.592      726.855      674.510      345.645        0.318        0.087       66.835        9.318        0.019      336.530        7.894      857.164
11/10/2014  21:45:00      -42.553       15.063      -12.467       21.241       23.948       11.260      451.164      573.483      126.792        0.167        0.058       45.140        8.621        0.036      336.456        7.769      857.168
11/10/2014  21:46:00      -56.490       -8.371       -7.790       26.719       46.270       16.281      713.915     2140.928      265.059        0.322        0.156       57.107       16.858        0.087      336.346        7.585      857.158
11/10/2014  21:47:00      -49.911      -19.849        0.179       22.419       21.227       11.770      502.594      450.564      138.524        0.199        0.055       53.713       12.603        0.055      336.162        7.278      857.139
11/10/2014  21:48:00       -8.373      -17.870       -0.449       20.327       15.134        9.509      413.181      229.040       90.421        0.056        0.037       19.734        6.306        0.102      336.129        7.222      857.121
11/10/2014  21:49:00      -28.047      -15.728       -0.805       14.234       13.670       12.922      202.601      186.871      166.980        0.080        0.028       32.156        6.751        0.044      336.053        7.096      857.102
11/10/2014  21:50:00      -64.224      -18.765       -8.014       24.275       19.223       14.933      589.254      369.507      223.009        0.286        0.059       66.909        9.935        0.022      336.025        7.050      857.088
11/10/2014  21:51:00      -62.779      -34.807      -13.889       26.111       18.322       14.640      681.783      335.694      214.321        0.329        0.062       71.782        7.611        0.011      336.052        7.094      857.072
11/10/2014  21:52:00      -23.195      -11.015       -3.314       30.727       16.306       13.862      944.148      265.880      192.151        0.104        0.070       25.678       13.518        0.277      336.034        7.063      857.061
11/10/2014  21:53:00      -46.957       -8.671      -14.063       26.728       15.850       13.242      714.390      251.233      175.357        0.181        0.057       47.751        8.606        0.032      335.956        6.936      857.072
11/10/2014  21:54:00      -56.380      -16.607       -6.845       15.813       17.917       16.244      250.049      321.019      263.856        0.217        0.042       58.775        8.719        0.022      335.965        6.950      857.076
11/10/2014  21:55:00      -66.542      -29.335       -2.914       19.760       13.810       12.795      390.464      190.725      163.715        0.302        0.037       72.721        4.617        0.004      335.982        6.977      857.080
11/10/2014  21:56:00       -9.687        0.290        3.925       22.066       13.567       13.192      486.912      184.053      174.033        0.048        0.042        9.692       14.980        2.389      335.851        6.759      857.090
11/10/2014  21:57:00        4.726       12.299        2.081        9.081        9.535        9.448       82.467       90.922       89.274        0.022        0.013       13.176        5.459        0.172      335.891        6.825      857.102
11/10/2014  21:58:00       11.341        8.454        5.152       19.321       14.126       11.459      373.306      199.551      131.309        0.047        0.035       14.146        6.670        0.222      335.959        6.940      857.110
11/10/2014  21:59:00      -47.105      -13.835      -11.292        9.080       17.487        8.727       82.443      305.793       76.168        0.150        0.023       49.094        6.986        0.020      336.020        7.040      857.122
11/10/2014  22:00:00      -24.408      -24.213      -11.633       18.463       10.675        6.483      340.891      113.954       42.028        0.091        0.025       34.380        5.374        0.024      336.080        7.142      857.134
11/10/2014  22:01:00      -42.446      -13.378       -5.595       21.506        8.039        7.590      462.526       64.632       57.614        0.130        0.029       44.504       10.022        0.051      335.989        6.987      857.140
11/10/2014  22:02:00      -68.751      -30.443       -5.139       10.511       10.149       10.203      110.483      103.002      104.107        0.300        0.016       75.189        4.984        0.004      335.915        6.867      857.137
11/10/2014  22:03:00      -66.602      -26.841       -9.552       11.083       15.940        9.826      122.834      254.079       96.555        0.286        0.024       71.808        6.410        0.008      335.888        6.821      857.136
11/10/2014  22:04:00      -79.788      -23.137      -11.364       17.417       18.234        9.814      303.352      332.462       96.306        0.388        0.037       83.075        6.081        0.005      335.865        6.784      857.138
11/10/2014  22:05:00      -67.342      -11.893      -10.225       24.102       16.330        9.377      580.894      266.682       87.934        0.286        0.047       68.384        5.434        0.006      335.955        6.934      857.152
11/10/2014  22:06:00      -67.563       15.226      -16.330       25.368       41.680       16.302      643.533     1737.220      265.750        0.385        0.132       69.257       16.850        0.059      336.102        7.178      857.167
11/10/2014  22:07:00      -57.513      -18.990      -10.466       11.122       18.633        9.417      123.708      347.195       88.673        0.217        0.028       60.568        7.651        0.016      336.011        7.027      857.173
11/10/2014  22:08:00      -91.600       55.861      -25.464       34.057       39.410       17.733     1159.847     1553.142      314.459        0.759        0.151      107.290       20.498        0.036      336.256        7.436      857.172
11/10/2014  22:09:00      -81.155       54.894      -17.340       22.143       35.751       17.257      490.313     1278.148      297.809        0.598        0.103       97.977       15.654        0.026      336.265        7.451      857.172
11/10/2014  22:10:00      -69.032       24.108      -12.549       28.465       31.816       15.290      810.279     1012.284      233.796        0.378        0.103       73.120       12.067        0.027      336.109        7.191      857.177
11/10/2014  22:11:00      -48.467      -12.902       -0.357       33.301       17.791       15.499     1108.954      316.519      240.227        0.209        0.083       50.154       16.886        0.113      335.930        6.890      857.179
11/10/2014  22:12:00      -69.451       -6.883      -10.093       27.032       22.461       17.071      730.747      504.506      291.423        0.325        0.076       69.791       14.388        0.043      335.868        6.789      857.189
11/10/2014  22:13:00      -61.490       49.616      -10.950       28.317       57.077       21.935      801.866     3257.790      481.164        0.545        0.227       79.011       19.424        0.060      336.108        7.188      857.193
11/10/2014  22:14:00      -46.350       58.583      -11.502       30.260       28.857       17.019      915.673      832.706      289.655        0.387        0.102       74.702       12.980        0.030      336.206        7.352      857.192
11/10/2014  22:15:00      -47.071      -10.782      -10.016       18.383       18.867       13.687      337.935      355.980      187.346        0.166        0.044       48.290        9.149        0.036      336.149        7.257      857.204
11/10/2014  22:16:00      -21.000      -27.160        2.758       29.448       13.569       13.159      867.183      184.129      173.157        0.121        0.061       34.332       11.146        0.105      335.996        7.003      857.214
11/10/2014  22:17:00      -19.594      -17.296        5.006       17.659       16.087       12.978      311.854      258.802      168.439        0.072        0.037       26.136        7.243        0.077      335.894        6.833      857.225
11/10/2014  22:18:00      -14.551      -16.805       -1.556       17.140        9.575       14.064      293.783       91.687      197.796        0.054        0.029       22.229       12.411        0.312      335.976        6.966      857.235
11/10/2014  22:19:00      -36.669      -25.550       -4.507       17.092       11.252        6.643      292.142      126.612       44.130        0.124        0.023       44.693        5.990        0.018      335.971        6.959      857.255
11/10/2014  22:20:00      -42.214      -37.558       -5.782       18.803       14.787       13.833      353.545      218.670      191.361        0.199        0.038       56.504        4.906        0.008      335.905        6.848      857.283
11/10/2014  22:21:00      -10.019      -21.232        6.914       15.484       16.555       10.095      239.742      274.068      101.909        0.061        0.031       23.478        9.109        0.151      335.872        6.796      857.300
11/10/2014  22:22:00      -58.558      -37.581        1.286       25.522       19.345       14.854      651.364      374.215      220.644        0.304        0.062       69.580        8.454        0.015      335.797        6.670      857.296
11/10/2014  22:23:00      -44.842      -60.825       -2.169       34.274       20.283       17.206     1174.713      411.395      296.045        0.380        0.094       75.568       10.473        0.019      335.814        6.700      857.278
11/10/2014  22:24:00      -27.051      -54.540        2.023       29.715       21.552       18.978      882.993      464.495      360.160        0.271        0.085       60.879       14.984        0.061      335.818        6.704      857.261
11/10/2014  22:25:00       -8.367      -25.530       10.892       26.057       28.573       17.728      678.975      816.422      314.294        0.132        0.090       26.866       12.541        0.218      335.739        6.573      857.256
11/10/2014  22:26:00      -49.050      -45.677        1.148       40.427       30.491       16.222     1634.358      929.707      263.164        0.366        0.141       67.024       10.353        0.024      335.699        6.505      857.255
11/10/2014  22:27:00      -65.493      -47.159        5.564       47.174       27.387       22.629     2225.430      750.045      512.058        0.502        0.174       80.705       15.456        0.037      335.593        6.330      857.244
11/10/2014  22:28:00      -78.181      -51.068        2.774       48.210       28.659       22.851     2324.241      821.338      522.183        0.620        0.183       93.382       19.376        0.043      335.540        6.241      857.242
11/10/2014  22:29:00      -58.931      -49.851        0.206       40.294       24.480       20.672     1623.572      599.248      427.323        0.430        0.133       77.188       19.546        0.064      335.495        6.165      857.243
11/10/2014  22:30:00      -63.083      -53.710        3.180       36.957       24.801       23.710     1365.832      615.067      562.166        0.471        0.127       82.851       20.600        0.062      335.495        6.167      857.230
11/10/2014  22:31:00      -70.704      -45.695       -2.971       40.388       24.799       17.681     1631.159      614.998      312.628        0.483        0.128       84.185       14.652        0.030      335.533        6.230      857.219
11/10/2014  22:32:00      -51.071      -47.392        8.217       38.939       28.605       23.973     1516.258      818.257      574.685        0.391        0.145       69.673       16.905        0.059      335.463        6.113      857.214
11/10/2014  22:33:00      -80.452      -57.348       -1.280       44.071       31.369       23.860     1942.296      984.029      569.299        0.663        0.175       98.799       22.248        0.051      335.488        6.155      857.214
11/10/2014  22:34:00      -66.814      -63.641        3.845       42.539       31.624       25.041     1809.595     1000.072      627.045        0.598        0.172       92.273       21.045        0.052      335.467        6.120      857.217
11/10/2014  22:35:00      -85.072      -75.982       -0.754       48.397       29.051       22.714     2342.305      843.969      515.931        0.836        0.185      114.063       22.919        0.040      335.478        6.137      857.222
11/10/2014  22:36:00      -78.993      -50.948        2.692       45.708       28.729       25.637     2089.199      825.383      657.248        0.621        0.179       93.998       26.058        0.077      335.387        5.986      857.237
11/10/2014  22:37:00      -58.122      -51.710       -0.686       42.696       26.096       20.014     1822.955      681.027      400.562        0.448        0.145       77.795       22.513        0.084      335.398        6.005      857.256
11/10/2014  22:38:00     -102.501      -54.726       -5.686       33.292       21.429       16.908     1108.362      459.223      285.886        0.769        0.093      116.195       13.478        0.013      335.320        5.874      857.267
11/10/2014  22:39:00     -125.850      -43.539      -13.069       12.416       14.907        9.884      154.169      222.214       97.693        0.919        0.024      133.169        6.700        0.003      335.324        5.883      857.285
11/10/2014  22:40:00     -109.140      -30.743      -10.772       27.974       28.697       16.494      782.540      823.522      272.044        0.743        0.094      113.387        8.045        0.005      335.319        5.872      857.299
11/10/2014  22:41:00      -98.757      -12.034        0.662       41.794       31.929       22.789     1746.697     1019.492      519.338        0.659        0.164       99.487       24.039        0.058      335.252        5.763      857.302
11/10/2014  22:42:00     -136.784      -32.662       -3.546       30.842       33.511       22.928      951.219     1122.995      525.699        1.119        0.130      140.629       19.438        0.019      335.144        5.582      857.305
11/10/2014  22:43:00     -157.971      -44.712      -13.600       18.072       20.406       14.652      326.594      416.407      214.674        1.405        0.048      164.177       10.130        0.004      335.172        5.628      857.304
11/10/2014  22:44:00     -130.744      -20.357      -12.614       32.552       24.237       19.607     1059.659      587.445      384.425        0.985        0.102      132.319       19.590        0.022      335.097        5.506      857.326
11/10/2014  22:45:00     -119.084      -45.228      -17.227       15.444       23.413       12.322      238.532      548.164      151.821        0.873        0.047      127.383       12.009        0.009      335.115        5.535      857.331
11/10/2014  22:46:00     -109.542      -51.148       -4.578       26.469       19.300       17.964      700.595      372.484      322.690        0.802        0.070      120.895       17.295        0.020      335.048        5.423      857.329
11/10/2014  22:47:00      -68.417      -41.922       -2.554       30.065       25.778       18.125      903.894      664.531      328.498        0.417        0.095       80.240       14.717        0.034      335.080        5.476      857.331
11/10/2014  22:48:00      -84.439        3.324        1.663       35.952       28.212       22.690     1292.528      795.899      514.842        0.487        0.130       84.505       17.170        0.041      334.998        5.341      857.337
11/10/2014  22:49:00      -99.033       -0.547       -2.293       46.764       31.174       23.902     2186.833      971.797      571.282        0.677        0.186       99.035       22.875        0.053      335.024        5.385      857.328
11/10/2014  22:50:00      -99.256      -20.447       -1.058       51.089       23.950       20.334     2610.072      573.625      413.479        0.693        0.180      101.340       23.044        0.052      334.952        5.266      857.318
11/10/2014  22:51:00     -103.775      -15.613       -3.581       49.362       32.169       22.378     2436.559     1034.837      500.784        0.750        0.199      104.943       24.402        0.054      335.029        5.392      857.320
11/10/2014  22:52:00      -98.420      -46.662       -4.600       34.967       21.647       16.850     1222.681      468.612      283.925        0.693        0.099      108.921       17.990        0.027      335.025        5.386      857.324
11/10/2014  22:53:00      -27.183       -8.878        3.961       32.407       23.421       18.919     1050.211      548.520      357.911        0.139        0.098       28.596       18.206        0.405      334.959        5.275      857.321
11/10/2014  22:54:00      -95.530       -8.433       -9.510       30.272       29.435       15.495      916.369      866.436      240.093        0.565        0.101       95.902        8.433        0.008      335.069        5.460      857.308
11/10/2014  22:55:00      -79.300      -38.662      -10.378       25.174       20.813       15.559      633.755      433.176      242.090        0.460        0.065       88.223        8.850        0.010      335.008        5.358      857.298
11/10/2014  22:56:00      -90.174      -28.135       -7.954       27.534       21.276       13.523      758.115      452.667      182.876        0.519        0.070       94.461        8.032        0.007      335.095        5.502      857.299
11/10/2014  22:57:00     -105.047      -71.147       -7.226       27.327       25.040       18.649      746.792      627.025      347.800        0.893        0.086      126.873       14.378        0.013      335.034        5.400      857.306
11/10/2014  22:58:00      -97.413      -52.284       -7.103       23.169       24.450       20.974      536.825      597.809      439.928        0.692        0.079      110.557        3.684        0.001      335.053        5.433      857.291
11/10/2014  22:59:00      -83.376      -33.467      -13.582       24.713       17.289       11.664      610.722      298.907      136.056        0.465        0.052       89.842        9.489        0.011      335.038        5.408      857.277
11/10/2014  23:00:00      -77.713      -24.433       -5.847       31.724       34.294       14.512     1006.400     1176.065      210.604        0.453        0.120       81.463       15.037        0.034      335.041        5.411      857.274
11/10/2014  23:01:00      -84.235      -20.529       -5.984       24.055       22.860       16.318      578.662      522.563      266.278        0.446        0.068       86.701       15.597        0.032      335.105        5.518      857.270
11/10/2014  23:02:00     -104.981      -35.663      -12.404       23.163       18.538       14.117      536.537      343.650      199.289        0.676        0.054      110.873       11.506        0.011      335.057        5.439      857.282
11/10/2014  23:03:00      -75.262      -32.794       -5.589       21.440       20.711       15.681      459.690      428.944      245.896        0.395        0.057       82.096       13.371        0.027      335.032        5.397      857.305
11/10/2014  23:04:00      -64.319      -27.699       -0.498       30.757       24.086       16.260      945.972      580.143      264.382        0.335        0.090       70.030       17.363        0.061      335.111        5.528      857.304
11/10/2014  23:05:00     -103.277      -51.170       -7.359       20.280       15.569       14.666      411.269      242.399      215.085        0.710        0.043      115.259       11.003        0.009      335.098        5.506      857.306
11/10/2014  23:06:00     -101.021      -41.149       -8.733       19.354       24.207       12.026      374.562      585.966      144.629        0.654        0.055      109.081       10.357        0.009      335.161        5.611      857.323
11/10/2014  23:07:00      -78.578      -23.250       -7.309       21.208       15.472       13.557      449.772      239.396      183.798        0.382        0.044       81.946       13.182        0.026      335.127        5.553      857.325
11/10/2014  23:08:00      -79.614      -33.447      -14.484       14.414       14.150        9.318      207.759      200.223       86.831        0.408        0.025       86.355        5.356        0.004      335.132        5.565      857.325
11/10/2014  23:09:00      -74.286      -45.307       -9.378       27.274       17.383       14.137      743.887      302.163      199.859        0.445        0.062       87.012       14.105        0.026      335.146        5.586      857.347
11/10/2014  23:10:00      -53.346      -33.765       -2.699       25.110       15.457       10.661      630.515      238.904      113.657        0.249        0.049       63.133        9.323        0.022      335.157        5.605      857.347
11/10/2014  23:11:00      -77.197      -42.820       -9.889       16.197       13.019       12.319      262.350      169.498      151.755        0.424        0.029       88.278        8.186        0.009      335.079        5.475      857.336
11/10/2014  23:12:00      -59.050      -44.374        3.878       27.381       23.018       21.158      749.744      529.831      447.649        0.360        0.086       73.865       15.819        0.046      335.044        5.418      857.315
11/10/2014  23:13:00      -98.925      -46.734       -9.254       21.599       21.510       11.360      466.538      462.700      129.053        0.656        0.053      109.408       10.771        0.010      334.976        5.302      857.314
11/10/2014  23:14:00     -120.176      -48.311      -12.224       15.047       13.552       12.220      226.427      183.654      149.335        0.874        0.028      129.523        6.922        0.003      334.995        5.336      857.336
11/10/2014  23:15:00      -93.503      -34.846      -15.232       20.205       13.473       12.509      408.254      181.535      156.469        0.547        0.037       99.785        9.384        0.009      335.017        5.371      857.357
11/10/2014  23:16:00      -53.230      -39.019       -3.119       18.270       15.442       12.153      333.794      238.462      147.703        0.254        0.036       66.000        4.482        0.005      335.036        5.403      857.374
11/10/2014  23:17:00      -66.880      -27.640       -8.524       13.314       14.845       13.580      177.253      220.383      184.404        0.295        0.029       72.367        7.635        0.011      335.047        5.423      857.372
11/10/2014  23:18:00      -78.293      -40.886      -10.412       15.456       15.469        8.607      238.896      239.286       74.086        0.423        0.028       88.326        5.567        0.004      334.969        5.294      857.365
11/10/2014  23:19:00      -78.471      -41.807       -7.919       17.721       14.669       11.580      314.021      215.189      134.099        0.432        0.033       88.913        7.888        0.008      334.985        5.318      857.365
11/10/2014  23:20:00      -45.332      -30.357        0.800       19.887       11.792       11.185      395.474      139.047      125.109        0.182        0.033       54.557        8.991        0.027      335.001        5.346      857.374
11/10/2014  23:21:00      -35.123      -30.224        2.817       31.645       19.435       12.769     1001.375      377.733      163.045        0.185        0.077       46.337       12.439        0.072      335.111        5.529      857.372
11/10/2014  23:22:00      -29.611      -20.794        4.058       26.175       12.922        9.972      685.144      166.981       99.446        0.114        0.048       36.183        9.768        0.073      335.048        5.422      857.361
11/10/2014  23:23:00      -76.776      -39.102      -14.082       20.651       12.419       12.150      426.466      154.232      147.619        0.417        0.036       86.160       12.160        0.020      335.080        5.478      857.357
11/10/2014  23:24:00      -87.604      -52.283       -6.956       14.485       14.019       12.915      209.805      196.545      166.809        0.551        0.029      102.020        6.757        0.004      335.059        5.441      857.377
11/10/2014  23:25:00      -61.868      -44.259       -7.276       14.052       12.014        6.506      197.449      144.341       42.324        0.311        0.019       76.069        4.056        0.003      335.114        5.535      857.384
11/10/2014  23:26:00      -47.533      -22.254       -4.787       12.139       12.060        8.221      147.348      145.434       67.582        0.157        0.018       52.485        6.252        0.014      335.100        5.511      857.376
11/10/2014  23:27:00      -34.629      -16.602      -10.805       13.697        7.344        6.261      187.602       53.929       39.195        0.094        0.014       38.403        5.939        0.024      335.304        5.849      857.361
11/10/2014  23:28:00      -59.974      -24.114       -6.498        9.207        9.886        9.976       84.761       97.726       99.518        0.225        0.014       64.641        4.332        0.004      335.157        5.603      857.365
11/10/2014  23:29:00      -24.405      -19.665        5.094       35.838       10.335       11.601     1284.384      106.816      134.577        0.127        0.076       31.342        4.937        0.025      335.062        5.447      857.383
11/10/2014  23:30:00       -4.160      -22.374       10.312       15.626       16.058       13.207      244.169      257.867      174.426        0.065        0.034       22.757        6.816        0.090      334.936        5.238      857.396
11/10/2014  23:31:00       -5.917      -27.175       -3.495       15.451       20.954       13.184      238.745      439.059      173.816        0.082        0.043       27.812       12.405        0.199      334.974        5.300      857.392
11/10/2014  23:32:00      -52.600      -26.877       -2.710       17.134       12.774        9.606      293.568      163.186       92.278        0.202        0.027       59.069        3.820        0.004      335.007        5.355      857.394
11/10/2014  23:33:00      -91.831      -38.224       -9.914       11.201       11.398        7.311      125.466      129.921       53.450        0.515        0.015       99.469        4.122        0.002      334.993        5.331      857.404
11/10/2014  23:34:00      -82.786      -48.477      -16.293       10.913       11.797        7.339      119.084      139.166       53.864        0.489        0.016       95.935        6.561        0.005      334.992        5.332      857.431
11/10/2014  23:35:00      -78.146      -39.281      -11.839       10.038       13.036        8.484      100.762      169.931       71.977        0.407        0.017       87.463        4.561        0.003      334.991        5.329      857.439
11/10/2014  23:36:00      -83.996      -29.821       -5.563       17.272       19.471        8.616      298.306      379.120       74.231        0.436        0.038       89.133        8.480        0.009      334.969        5.293      857.452
11/10/2014  23:37:00      -64.934      -34.480       -3.599       17.662       10.766       11.208      311.941      115.896      125.625        0.299        0.028       73.521        9.768        0.018      334.932        5.232      857.455
11/10/2014  23:38:00      -71.606      -28.391       -4.694       15.249       14.782       12.221      232.546      218.510      149.364        0.328        0.030       77.029       10.592        0.019      334.973        5.299      857.467
11/10/2014  23:39:00      -87.189      -44.334      -13.010       12.976        9.907        9.056      168.378       98.141       82.002        0.504        0.017       97.813        5.152        0.003      334.908        5.191      857.462
11/10/2014  23:40:00      -60.378      -36.262       -3.680       27.203       13.395       10.997      740.030      179.414      120.944        0.301        0.052       70.430        6.609        0.009      334.878        5.141      857.451
11/10/2014  23:41:00      -62.272      -37.349       -9.484       24.446       10.851        8.737      597.611      117.747       76.332        0.308        0.040       72.614        9.986        0.019      334.898        5.175      857.452
11/10/2014  23:42:00      -71.891      -40.735       -1.218       14.782       13.016       12.112      218.510      169.410      146.697        0.368        0.027       82.630        9.352        0.013      334.846        5.086      857.454
11/10/2014  23:43:00      -74.022      -39.708       -6.922       12.333       11.710        9.882      152.101      137.128       97.649        0.375        0.019       84.000        6.614        0.006      334.852        5.099      857.443
11/10/2014  23:44:00      -77.940      -38.759       -9.412       12.505        9.398        7.750      156.376       88.315       60.067        0.399        0.015       87.045        4.194        0.002      334.788        4.993      857.431
11/10/2014  23:45:00      -67.853      -39.585        1.499       23.957       16.018       17.018      573.921      256.592      289.626        0.365        0.056       78.555       16.268        0.043      334.782        4.982      857.422
11/10/2014  23:46:00      -80.547      -41.215       -0.960       30.638       20.231       12.901      938.685      409.277      166.435        0.485        0.076       90.480       17.050        0.036      334.829        5.060      857.427
11/10/2014  23:47:00      -77.893      -64.291       -4.164       24.574       20.514       15.450      603.866      420.839      238.710        0.574        0.063      100.998       10.916        0.012      334.810        5.028      857.434
11/10/2014  23:48:00      -60.388      -37.388       -1.068       23.218       14.531       15.511      539.059      211.141      240.602        0.302        0.050       71.025       14.060        0.039      334.779        4.976      857.432
11/10/2014  23:49:00      -22.464      -33.991        8.206       29.598       21.397       21.568      876.061      457.811      465.182        0.176        0.090       40.744       19.535        0.230      334.797        5.007      857.434
11/10/2014  23:50:00      -39.506      -36.077       -0.522       26.722       15.094       13.419      714.062      227.834      180.062        0.199        0.056       53.500        6.634        0.015      334.830        5.061      857.442
11/10/2014  23:51:00      -59.960      -32.375       -4.871       25.732       11.435       13.681      662.149      130.748      187.159        0.282        0.049       68.142       13.242        0.038      334.827        5.057      857.452
11/10/2014  23:52:00      -78.844      -35.594      -11.682       14.228        9.010       11.554      202.425       81.185      133.495        0.402        0.021       86.507        9.631        0.012      334.825        5.055      857.449
11/10/2014  23:53:00      -80.267      -38.259      -10.437        9.880        8.751        7.757       97.607       76.586       60.168        0.412        0.012       88.919        5.142        0.003      334.793        5.000      857.452
11/10/2014  23:54:00      -86.416      -47.581      -11.101        8.961        8.210        6.696       80.296       67.399       44.836        0.502        0.010       98.649        4.572        0.002      334.945        5.253      857.455
11/10/2014  23:55:00      -90.435      -28.215      -11.119       12.281       17.523       11.437      150.825      307.049      130.814        0.484        0.029       94.734        6.390        0.005      334.849        5.093      857.462
11/10/2014  23:56:00     -104.505      -22.693       -8.897       27.689       14.792       13.994      766.678      218.800      195.821        0.635        0.059      106.941       14.171        0.018      334.760        4.946      857.465
11/10/2014  23:57:00      -84.905      -25.825       -8.803       21.957       14.604       11.687      482.129      213.263      136.598        0.439        0.042       88.746        9.817        0.012      334.754        4.936      857.454
11/10/2014  23:58:00      -82.564      -40.276      -11.995        9.787        7.993        7.392       95.783       63.882       54.646        0.440        0.011       91.864        3.965        0.002      334.775        4.970      857.451
11/10/2014  23:59:00      -83.928      -39.490      -11.105       15.473       10.871        8.785      239.420      118.171       77.182        0.458        0.022       92.754        6.309        0.005      334.757        4.940      857.468
